<?xml version="1.0" encoding="UTF-8"?>
<gpx version="1.1" creator="2bulu-scraper" xmlns="http://www.topografix.com/GPX/1/1">
  <metadata><name>2026-07-15 19:13:42</name><desc>source: 2bulu.com trackId=87147066; exported 2026-09-01T14:59:12.081Z</desc>
    <bounds minlat="29.376442" minlon="104.606523" maxlat="29.39019" maxlon="104.63134"/>
    <link href="https://www.2bulu.com/track/t-cvHeZ%252Bm4VFPp%252FR2KBg5Tzw%253D%253D.htm"><text>2bulu 源页面</text></link>
  </metadata>
  <wpt lat="29.383564" lon="104.6313"><ele>329</ele><name></name></wpt>
  <wpt lat="29.38505" lon="104.624969"><ele>321</ele><name></name></wpt>
  <wpt lat="29.384516" lon="104.624597"><ele>321</ele><name></name></wpt>
  <wpt lat="29.384118" lon="104.624313"><ele>322</ele><name></name></wpt>
  <wpt lat="29.38296" lon="104.623519"><ele>323</ele><name></name></wpt>
  <wpt lat="29.382799" lon="104.623383"><ele>322</ele><name></name></wpt>
  <wpt lat="29.382113" lon="104.622932"><ele>327</ele><name></name></wpt>
  <wpt lat="29.380358" lon="104.621783"><ele>336</ele><name></name></wpt>
  <wpt lat="29.379685" lon="104.621309"><ele>331</ele><name></name></wpt>
  <wpt lat="29.378719" lon="104.620629"><ele>339</ele><name></name></wpt>
  <wpt lat="29.376647" lon="104.619317"><ele>334</ele><name></name></wpt>
  <wpt lat="29.377826" lon="104.620122"><ele>338</ele><name></name></wpt>
  <wpt lat="29.378676" lon="104.620719"><ele>340</ele><name></name></wpt>
  <wpt lat="29.379843" lon="104.621544"><ele>330</ele><name></name></wpt>
  <wpt lat="29.379926" lon="104.621603"><ele>329</ele><name></name></wpt>
  <wpt lat="29.380343" lon="104.621902"><ele>331</ele><name></name></wpt>
  <wpt lat="29.381084" lon="104.622426"><ele>338</ele><name></name></wpt>
  <wpt lat="29.381149" lon="104.622464"><ele>335</ele><name></name></wpt>
  <wpt lat="29.381358" lon="104.622098"><ele>333</ele><name></name></wpt>
  <wpt lat="29.381373" lon="104.622098"><ele>332</ele><name></name></wpt>
  <wpt lat="29.382262" lon="104.620454"><ele>329</ele><name></name></wpt>
  <wpt lat="29.382625" lon="104.61982"><ele>332</ele><name></name></wpt>
  <wpt lat="29.382659" lon="104.619734"><ele>332</ele><name></name></wpt>
  <wpt lat="29.382757" lon="104.619551"><ele>334</ele><name></name></wpt>
  <wpt lat="29.383056" lon="104.618974"><ele>343</ele><name></name></wpt>
  <wpt lat="29.383306" lon="104.618574"><ele>346</ele><name></name></wpt>
  <wpt lat="29.383382" lon="104.618394"><ele>347</ele><name></name></wpt>
  <wpt lat="29.383638" lon="104.617911"><ele>341</ele><name></name></wpt>
  <wpt lat="29.384763" lon="104.615755"><ele>350</ele><name></name></wpt>
  <wpt lat="29.384772" lon="104.615729"><ele>351</ele><name></name></wpt>
  <wpt lat="29.385232" lon="104.614857"><ele>354</ele><name></name></wpt>
  <wpt lat="29.385416" lon="104.614518"><ele>351</ele><name></name></wpt>
  <wpt lat="29.385779" lon="104.613921"><ele>344</ele><name></name></wpt>
  <wpt lat="29.386012" lon="104.613501"><ele>340</ele><name></name></wpt>
  <wpt lat="29.386947" lon="104.613327"><ele>328</ele><name></name></wpt>
  <wpt lat="29.387675" lon="104.613793"><ele>328</ele><name></name></wpt>
  <wpt lat="29.388998" lon="104.61452"><ele>328</ele><name></name></wpt>
  <wpt lat="29.389546" lon="104.614726"><ele>325</ele><name></name></wpt>
  <wpt lat="29.389663" lon="104.614807"><ele>324</ele><name></name></wpt>
  <wpt lat="29.390139" lon="104.615124"><ele>323</ele><name></name></wpt>
  <wpt lat="29.388336" lon="104.618722"><ele>330</ele><name></name></wpt>
  <wpt lat="29.388043" lon="104.618589"><ele>331</ele><name></name></wpt>
  <wpt lat="29.385874" lon="104.616967"><ele>340</ele><name></name></wpt>
  <wpt lat="29.384756" lon="104.616137"><ele>344</ele><name>缺人行</name></wpt>
  <wpt lat="29.384352" lon="104.616397"><ele>351</ele><name></name></wpt>
  <wpt lat="29.383885" lon="104.617256"><ele>346</ele><name></name></wpt>
  <wpt lat="29.383578" lon="104.617835"><ele>341</ele><name></name></wpt>
  <wpt lat="29.383335" lon="104.618331"><ele>343</ele><name></name></wpt>
  <wpt lat="29.383114" lon="104.618751"><ele>347</ele><name></name></wpt>
  <wpt lat="29.382493" lon="104.619925"><ele>341</ele><name></name></wpt>
  <wpt lat="29.381805" lon="104.621171"><ele>336</ele><name></name></wpt>
  <wpt lat="29.384252" lon="104.61571"><ele>345</ele><name></name></wpt>
  <wpt lat="29.381472" lon="104.613546"><ele>348</ele><name></name></wpt>
  <wpt lat="29.381543" lon="104.610001"><ele>344</ele><name></name></wpt>
  <wpt lat="29.377898" lon="104.606957"><ele>353</ele><name>缺慢</name></wpt>
  <wpt lat="29.381228" lon="104.609301"><ele>339</ele><name></name></wpt>
  <wpt lat="29.384077" lon="104.611304"><ele>336</ele><name>缺人行</name></wpt>
  <wpt lat="29.385734" lon="104.612469"><ele>346</ele><name></name></wpt>
  <wpt lat="29.38742" lon="104.613608"><ele>329</ele><name></name></wpt>
  <wpt lat="29.386999" lon="104.613273"><ele>329</ele><name></name></wpt>
  <wpt lat="29.385552" lon="104.614172"><ele>339</ele><name></name></wpt>
  <wpt lat="29.383055" lon="104.618948"><ele>346</ele><name></name></wpt>
  <wpt lat="29.384027" lon="104.619626"><ele>339</ele><name></name></wpt>
  <wpt lat="29.385734" lon="104.620813"><ele>332</ele><name></name></wpt>
  <wpt lat="29.38605" lon="104.621018"><ele>326</ele><name></name></wpt>
  <wpt lat="29.384851" lon="104.620108"><ele>333</ele><name></name></wpt>
  <wpt lat="29.383722" lon="104.619319"><ele>340</ele><name></name></wpt>
  <wpt lat="29.38364" lon="104.619252"><ele>339</ele><name></name></wpt>
  <wpt lat="29.383665" lon="104.617897"><ele>344</ele><name></name></wpt>
  <wpt lat="29.386922" lon="104.621053"><ele>329</ele><name></name></wpt>
  <wpt lat="29.382256" lon="104.623295"><ele>333</ele><name></name></wpt>
  <wpt lat="29.383549" lon="104.62422"><ele>325</ele><name></name></wpt>
  <wpt lat="29.384095" lon="104.624552"><ele>326</ele><name></name></wpt>
  <wpt lat="29.384354" lon="104.624723"><ele>323</ele><name></name></wpt>
  <wpt lat="29.384739" lon="104.624997"><ele>323</ele><name></name></wpt>
  <wpt lat="29.386435" lon="104.617483"><ele>338</ele><name></name></wpt>
  <wpt lat="29.384732" lon="104.615746"><ele>343</ele><name></name></wpt>
  <trk><name>2026-07-15 19:13:42</name>
      <trkseg>
        <trkpt lat="29.383547" lon="104.63134"><ele>328.5384</ele><time>2026-07-15T03:13:43.000Z</time></trkpt>
        <trkpt lat="29.383588" lon="104.631247"><ele>330.19458</ele><time>2026-07-15T03:13:54.000Z</time></trkpt>
        <trkpt lat="29.383596" lon="104.63123"><ele>330.04047</ele><time>2026-07-15T03:13:55.000Z</time></trkpt>
        <trkpt lat="29.383607" lon="104.631209"><ele>329.92606</ele><time>2026-07-15T03:13:56.000Z</time></trkpt>
        <trkpt lat="29.383632" lon="104.63116"><ele>329.83444</ele><time>2026-07-15T03:13:58.000Z</time></trkpt>
        <trkpt lat="29.383648" lon="104.63113"><ele>330.20404</ele><time>2026-07-15T03:13:59.000Z</time></trkpt>
        <trkpt lat="29.383666" lon="104.631097"><ele>330.16824</ele><time>2026-07-15T03:14:00.000Z</time></trkpt>
        <trkpt lat="29.383686" lon="104.63106"><ele>330.20288</ele><time>2026-07-15T03:14:01.000Z</time></trkpt>
        <trkpt lat="29.383753" lon="104.630941"><ele>330.09003</ele><time>2026-07-15T03:14:02.000Z</time></trkpt>
        <trkpt lat="29.383762" lon="104.630925"><ele>330.21283</ele><time>2026-07-15T03:14:03.000Z</time></trkpt>
        <trkpt lat="29.383763" lon="104.630922"><ele>329.85474</ele><time>2026-07-15T03:14:04.000Z</time></trkpt>
        <trkpt lat="29.383867" lon="104.63072"><ele>328.87134</ele><time>2026-07-15T03:14:09.000Z</time></trkpt>
        <trkpt lat="29.383919" lon="104.630622"><ele>328.83994</ele><time>2026-07-15T03:14:10.000Z</time></trkpt>
        <trkpt lat="29.383989" lon="104.630497"><ele>328.7376</ele><time>2026-07-15T03:14:11.000Z</time></trkpt>
        <trkpt lat="29.384065" lon="104.630363"><ele>328.63184</ele><time>2026-07-15T03:14:12.000Z</time></trkpt>
        <trkpt lat="29.384144" lon="104.630224"><ele>328.80374</ele><time>2026-07-15T03:14:13.000Z</time></trkpt>
        <trkpt lat="29.384223" lon="104.630088"><ele>328.54617</ele><time>2026-07-15T03:14:14.000Z</time></trkpt>
        <trkpt lat="29.3843" lon="104.629954"><ele>328.33362</ele><time>2026-07-15T03:14:15.000Z</time></trkpt>
        <trkpt lat="29.384374" lon="104.629822"><ele>328.41583</ele><time>2026-07-15T03:14:16.000Z</time></trkpt>
        <trkpt lat="29.384446" lon="104.629691"><ele>328.089</ele><time>2026-07-15T03:14:17.000Z</time></trkpt>
        <trkpt lat="29.384516" lon="104.629562"><ele>327.50842</ele><time>2026-07-15T03:14:18.000Z</time></trkpt>
        <trkpt lat="29.384584" lon="104.629433"><ele>327.29898</ele><time>2026-07-15T03:14:19.000Z</time></trkpt>
        <trkpt lat="29.38465" lon="104.629304"><ele>327.06503</ele><time>2026-07-15T03:14:20.000Z</time></trkpt>
        <trkpt lat="29.384713" lon="104.629173"><ele>326.3685</ele><time>2026-07-15T03:14:21.000Z</time></trkpt>
        <trkpt lat="29.384774" lon="104.629041"><ele>325.92963</ele><time>2026-07-15T03:14:22.000Z</time></trkpt>
        <trkpt lat="29.384831" lon="104.628908"><ele>324.64166</ele><time>2026-07-15T03:14:23.000Z</time></trkpt>
        <trkpt lat="29.384885" lon="104.628772"><ele>323.64948</ele><time>2026-07-15T03:14:24.000Z</time></trkpt>
        <trkpt lat="29.384936" lon="104.628633"><ele>323.36404</ele><time>2026-07-15T03:14:25.000Z</time></trkpt>
        <trkpt lat="29.384986" lon="104.62849"><ele>323.03214</ele><time>2026-07-15T03:14:26.000Z</time></trkpt>
        <trkpt lat="29.385035" lon="104.628344"><ele>322.84866</ele><time>2026-07-15T03:14:27.000Z</time></trkpt>
        <trkpt lat="29.385083" lon="104.628196"><ele>322.62634</ele><time>2026-07-15T03:14:28.000Z</time></trkpt>
        <trkpt lat="29.38513" lon="104.628044"><ele>322.60687</ele><time>2026-07-15T03:14:29.000Z</time></trkpt>
        <trkpt lat="29.385177" lon="104.62789"><ele>322.693</ele><time>2026-07-15T03:14:30.000Z</time></trkpt>
        <trkpt lat="29.385223" lon="104.627737"><ele>322.61047</ele><time>2026-07-15T03:14:31.000Z</time></trkpt>
        <trkpt lat="29.385268" lon="104.627583"><ele>323.0447</ele><time>2026-07-15T03:14:32.000Z</time></trkpt>
        <trkpt lat="29.385311" lon="104.62743"><ele>323.30887</ele><time>2026-07-15T03:14:33.000Z</time></trkpt>
        <trkpt lat="29.385351" lon="104.627279"><ele>323.61096</ele><time>2026-07-15T03:14:34.000Z</time></trkpt>
        <trkpt lat="29.385388" lon="104.627132"><ele>323.4695</ele><time>2026-07-15T03:14:35.000Z</time></trkpt>
        <trkpt lat="29.385422" lon="104.626992"><ele>323.2248</ele><time>2026-07-15T03:14:36.000Z</time></trkpt>
        <trkpt lat="29.385453" lon="104.626857"><ele>323.1444</ele><time>2026-07-15T03:14:37.000Z</time></trkpt>
        <trkpt lat="29.385482" lon="104.626727"><ele>323.22964</ele><time>2026-07-15T03:14:38.000Z</time></trkpt>
        <trkpt lat="29.385509" lon="104.626603"><ele>322.42493</ele><time>2026-07-15T03:14:39.000Z</time></trkpt>
        <trkpt lat="29.385534" lon="104.626484"><ele>322.20572</ele><time>2026-07-15T03:14:40.000Z</time></trkpt>
        <trkpt lat="29.385559" lon="104.626367"><ele>321.8974</ele><time>2026-07-15T03:14:41.000Z</time></trkpt>
        <trkpt lat="29.385584" lon="104.626252"><ele>321.8355</ele><time>2026-07-15T03:14:42.000Z</time></trkpt>
        <trkpt lat="29.385609" lon="104.626137"><ele>321.79327</ele><time>2026-07-15T03:14:43.000Z</time></trkpt>
        <trkpt lat="29.385635" lon="104.626024"><ele>321.76953</ele><time>2026-07-15T03:14:44.000Z</time></trkpt>
        <trkpt lat="29.385661" lon="104.625913"><ele>321.3395</ele><time>2026-07-15T03:14:45.000Z</time></trkpt>
        <trkpt lat="29.385686" lon="104.625807"><ele>320.84894</ele><time>2026-07-15T03:14:46.000Z</time></trkpt>
        <trkpt lat="29.385708" lon="104.62571"><ele>320.94388</ele><time>2026-07-15T03:14:47.000Z</time></trkpt>
        <trkpt lat="29.385725" lon="104.625622"><ele>320.67932</ele><time>2026-07-15T03:14:48.000Z</time></trkpt>
        <trkpt lat="29.385735" lon="104.625542"><ele>320.82724</ele><time>2026-07-15T03:14:49.000Z</time></trkpt>
        <trkpt lat="29.385752" lon="104.625474"><ele>320.9143</ele><time>2026-07-15T03:14:50.000Z</time></trkpt>
        <trkpt lat="29.385752" lon="104.625416"><ele>321.0739</ele><time>2026-07-15T03:14:51.000Z</time></trkpt>
        <trkpt lat="29.385738" lon="104.625367"><ele>321.24988</ele><time>2026-07-15T03:14:52.000Z</time></trkpt>
        <trkpt lat="29.385711" lon="104.625319"><ele>321.36343</ele><time>2026-07-15T03:14:53.000Z</time></trkpt>
        <trkpt lat="29.385675" lon="104.625278"><ele>321.7322</ele><time>2026-07-15T03:14:54.000Z</time></trkpt>
        <trkpt lat="29.385633" lon="104.625243"><ele>321.2803</ele><time>2026-07-15T03:14:55.000Z</time></trkpt>
        <trkpt lat="29.385587" lon="104.625213"><ele>321.3564</ele><time>2026-07-15T03:14:56.000Z</time></trkpt>
        <trkpt lat="29.385537" lon="104.625189"><ele>321.42975</ele><time>2026-07-15T03:14:57.000Z</time></trkpt>
        <trkpt lat="29.385488" lon="104.625169"><ele>321.61124</ele><time>2026-07-15T03:14:58.000Z</time></trkpt>
        <trkpt lat="29.38544" lon="104.625152"><ele>321.38403</ele><time>2026-07-15T03:14:59.000Z</time></trkpt>
        <trkpt lat="29.385396" lon="104.625139"><ele>321.4515</ele><time>2026-07-15T03:15:00.000Z</time></trkpt>
        <trkpt lat="29.385358" lon="104.625129"><ele>321.26373</ele><time>2026-07-15T03:15:01.000Z</time></trkpt>
        <trkpt lat="29.385325" lon="104.625122"><ele>321.25613</ele><time>2026-07-15T03:15:02.000Z</time></trkpt>
        <trkpt lat="29.385297" lon="104.625117"><ele>321.18347</ele><time>2026-07-15T03:15:03.000Z</time></trkpt>
        <trkpt lat="29.385252" lon="104.625108"><ele>321.1131</ele><time>2026-07-15T03:15:05.000Z</time></trkpt>
        <trkpt lat="29.385233" lon="104.6251"><ele>321.215</ele><time>2026-07-15T03:15:06.000Z</time></trkpt>
        <trkpt lat="29.385196" lon="104.625081"><ele>321.1211</ele><time>2026-07-15T03:15:08.000Z</time></trkpt>
        <trkpt lat="29.385158" lon="104.62506"><ele>320.86652</ele><time>2026-07-15T03:15:10.000Z</time></trkpt>
        <trkpt lat="29.385141" lon="104.62505"><ele>320.81046</ele><time>2026-07-15T03:15:11.000Z</time></trkpt>
        <trkpt lat="29.385114" lon="104.625031"><ele>320.85315</ele><time>2026-07-15T03:15:13.000Z</time></trkpt>
        <trkpt lat="29.385073" lon="104.625002"><ele>321.05627</ele><time>2026-07-15T03:15:17.000Z</time></trkpt>
        <trkpt lat="29.385066" lon="104.624995"><ele>320.96738</ele><time>2026-07-15T03:15:18.000Z</time></trkpt>
        <trkpt lat="29.385039" lon="104.624963"><ele>320.68695</ele><time>2026-07-15T03:15:22.000Z</time></trkpt>
        <trkpt lat="29.385034" lon="104.624954"><ele>320.51047</ele><time>2026-07-15T03:15:28.000Z</time></trkpt>
        <trkpt lat="29.385035" lon="104.624955"><ele>320.4753</ele><time>2026-07-15T03:15:29.000Z</time></trkpt>
        <trkpt lat="29.385009" lon="104.624939"><ele>320.5819</ele><time>2026-07-15T03:15:45.000Z</time></trkpt>
        <trkpt lat="29.384993" lon="104.624929"><ele>320.7035</ele><time>2026-07-15T03:15:46.000Z</time></trkpt>
        <trkpt lat="29.384956" lon="104.624903"><ele>320.88574</ele><time>2026-07-15T03:15:53.000Z</time></trkpt>
        <trkpt lat="29.384912" lon="104.624873"><ele>320.98285</ele><time>2026-07-15T03:15:55.000Z</time></trkpt>
        <trkpt lat="29.384885" lon="104.624854"><ele>320.92584</ele><time>2026-07-15T03:15:56.000Z</time></trkpt>
        <trkpt lat="29.384856" lon="104.624834"><ele>320.93735</ele><time>2026-07-15T03:15:57.000Z</time></trkpt>
        <trkpt lat="29.384828" lon="104.624814"><ele>321.12646</ele><time>2026-07-15T03:15:58.000Z</time></trkpt>
        <trkpt lat="29.3848" lon="104.624795"><ele>321.09784</ele><time>2026-07-15T03:15:59.000Z</time></trkpt>
        <trkpt lat="29.384774" lon="104.624777"><ele>321.09836</ele><time>2026-07-15T03:16:00.000Z</time></trkpt>
        <trkpt lat="29.38475" lon="104.62476"><ele>321.18887</ele><time>2026-07-15T03:16:01.000Z</time></trkpt>
        <trkpt lat="29.384725" lon="104.624743"><ele>321.1975</ele><time>2026-07-15T03:16:02.000Z</time></trkpt>
        <trkpt lat="29.384675" lon="104.62471"><ele>321.58273</ele><time>2026-07-15T03:16:04.000Z</time></trkpt>
        <trkpt lat="29.384648" lon="104.624692"><ele>321.6324</ele><time>2026-07-15T03:16:05.000Z</time></trkpt>
        <trkpt lat="29.38462" lon="104.624673"><ele>321.42136</ele><time>2026-07-15T03:16:06.000Z</time></trkpt>
        <trkpt lat="29.384592" lon="104.624654"><ele>321.41516</ele><time>2026-07-15T03:16:07.000Z</time></trkpt>
        <trkpt lat="29.384564" lon="104.624634"><ele>321.2346</ele><time>2026-07-15T03:16:08.000Z</time></trkpt>
        <trkpt lat="29.384537" lon="104.624615"><ele>321.22482</ele><time>2026-07-15T03:16:09.000Z</time></trkpt>
        <trkpt lat="29.384511" lon="104.624596"><ele>321.34912</ele><time>2026-07-15T03:16:10.000Z</time></trkpt>
        <trkpt lat="29.384486" lon="104.624579"><ele>321.56467</ele><time>2026-07-15T03:16:11.000Z</time></trkpt>
        <trkpt lat="29.384461" lon="104.624562"><ele>321.8171</ele><time>2026-07-15T03:16:12.000Z</time></trkpt>
        <trkpt lat="29.384418" lon="104.624532"><ele>322.00214</ele><time>2026-07-15T03:16:14.000Z</time></trkpt>
        <trkpt lat="29.3844" lon="104.624519"><ele>321.8712</ele><time>2026-07-15T03:16:15.000Z</time></trkpt>
        <trkpt lat="29.384401" lon="104.624516"><ele>321.69727</ele><time>2026-07-15T03:16:16.000Z</time></trkpt>
        <trkpt lat="29.384399" lon="104.624515"><ele>321.165</ele><time>2026-07-15T03:16:20.000Z</time></trkpt>
        <trkpt lat="29.384383" lon="104.624508"><ele>322.28094</ele><time>2026-07-15T03:16:33.000Z</time></trkpt>
        <trkpt lat="29.384372" lon="104.624501"><ele>322.18204</ele><time>2026-07-15T03:16:34.000Z</time></trkpt>
        <trkpt lat="29.38435" lon="104.624484"><ele>322.43826</ele><time>2026-07-15T03:16:35.000Z</time></trkpt>
        <trkpt lat="29.384301" lon="104.62445"><ele>321.82925</ele><time>2026-07-15T03:16:42.000Z</time></trkpt>
        <trkpt lat="29.384275" lon="104.624431"><ele>321.8569</ele><time>2026-07-15T03:16:43.000Z</time></trkpt>
        <trkpt lat="29.384241" lon="104.624407"><ele>322.01605</ele><time>2026-07-15T03:16:44.000Z</time></trkpt>
        <trkpt lat="29.384203" lon="104.624382"><ele>321.89246</ele><time>2026-07-15T03:16:45.000Z</time></trkpt>
        <trkpt lat="29.384165" lon="104.624356"><ele>322.12256</ele><time>2026-07-15T03:16:46.000Z</time></trkpt>
        <trkpt lat="29.384129" lon="104.62433"><ele>322.97012</ele><time>2026-07-15T03:16:47.000Z</time></trkpt>
        <trkpt lat="29.384098" lon="104.624307"><ele>324.1351</ele><time>2026-07-15T03:16:48.000Z</time></trkpt>
        <trkpt lat="29.384069" lon="104.624287"><ele>324.26398</ele><time>2026-07-15T03:16:49.000Z</time></trkpt>
        <trkpt lat="29.384043" lon="104.624269"><ele>323.68796</ele><time>2026-07-15T03:16:50.000Z</time></trkpt>
        <trkpt lat="29.38402" lon="104.624252"><ele>324.74512</ele><time>2026-07-15T03:16:51.000Z</time></trkpt>
        <trkpt lat="29.383984" lon="104.624226"><ele>324.58456</ele><time>2026-07-15T03:16:53.000Z</time></trkpt>
        <trkpt lat="29.383955" lon="104.624205"><ele>323.40045</ele><time>2026-07-15T03:16:55.000Z</time></trkpt>
        <trkpt lat="29.383937" lon="104.624193"><ele>323.77045</ele><time>2026-07-15T03:16:56.000Z</time></trkpt>
        <trkpt lat="29.383892" lon="104.624162"><ele>324.51395</ele><time>2026-07-15T03:16:58.000Z</time></trkpt>
        <trkpt lat="29.383866" lon="104.624144"><ele>324.6315</ele><time>2026-07-15T03:16:59.000Z</time></trkpt>
        <trkpt lat="29.383837" lon="104.624124"><ele>324.85736</ele><time>2026-07-15T03:17:00.000Z</time></trkpt>
        <trkpt lat="29.383805" lon="104.624102"><ele>324.86737</ele><time>2026-07-15T03:17:01.000Z</time></trkpt>
        <trkpt lat="29.38377" lon="104.624076"><ele>325.25632</ele><time>2026-07-15T03:17:02.000Z</time></trkpt>
        <trkpt lat="29.383674" lon="104.624009"><ele>325.2351</ele><time>2026-07-15T03:17:03.000Z</time></trkpt>
        <trkpt lat="29.383663" lon="104.624001"><ele>325.39087</ele><time>2026-07-15T03:17:04.000Z</time></trkpt>
        <trkpt lat="29.383654" lon="104.623995"><ele>325.1816</ele><time>2026-07-15T03:17:07.000Z</time></trkpt>
        <trkpt lat="29.383498" lon="104.62389"><ele>324.56424</ele><time>2026-07-15T03:17:10.000Z</time></trkpt>
        <trkpt lat="29.383428" lon="104.623843"><ele>324.6501</ele><time>2026-07-15T03:17:11.000Z</time></trkpt>
        <trkpt lat="29.383341" lon="104.623783"><ele>324.44427</ele><time>2026-07-15T03:17:13.000Z</time></trkpt>
        <trkpt lat="29.383252" lon="104.623721"><ele>323.86584</ele><time>2026-07-15T03:17:14.000Z</time></trkpt>
        <trkpt lat="29.383166" lon="104.623663"><ele>323.17935</ele><time>2026-07-15T03:17:15.000Z</time></trkpt>
        <trkpt lat="29.383088" lon="104.623608"><ele>322.96564</ele><time>2026-07-15T03:17:16.000Z</time></trkpt>
        <trkpt lat="29.383024" lon="104.623558"><ele>322.5469</ele><time>2026-07-15T03:17:17.000Z</time></trkpt>
        <trkpt lat="29.382986" lon="104.623527"><ele>322.78796</ele><time>2026-07-15T03:17:18.000Z</time></trkpt>
        <trkpt lat="29.38298" lon="104.623524"><ele>322.3779</ele><time>2026-07-15T03:17:19.000Z</time></trkpt>
        <trkpt lat="29.382925" lon="104.623491"><ele>322.5692</ele><time>2026-07-15T03:17:28.000Z</time></trkpt>
        <trkpt lat="29.382906" lon="104.62348"><ele>322.16776</ele><time>2026-07-15T03:17:29.000Z</time></trkpt>
        <trkpt lat="29.382885" lon="104.623468"><ele>322.4583</ele><time>2026-07-15T03:17:30.000Z</time></trkpt>
        <trkpt lat="29.382839" lon="104.623441"><ele>321.8991</ele><time>2026-07-15T03:17:32.000Z</time></trkpt>
        <trkpt lat="29.382818" lon="104.623427"><ele>321.8679</ele><time>2026-07-15T03:17:33.000Z</time></trkpt>
        <trkpt lat="29.382805" lon="104.62341"><ele>322.31644</ele><time>2026-07-15T03:17:34.000Z</time></trkpt>
        <trkpt lat="29.382768" lon="104.623372"><ele>322.75662</ele><time>2026-07-15T03:17:39.000Z</time></trkpt>
        <trkpt lat="29.382751" lon="104.623358"><ele>322.54517</ele><time>2026-07-15T03:17:47.000Z</time></trkpt>
        <trkpt lat="29.382721" lon="104.623333"><ele>322.13156</ele><time>2026-07-15T03:17:49.000Z</time></trkpt>
        <trkpt lat="29.382686" lon="104.623303"><ele>322.47717</ele><time>2026-07-15T03:17:51.000Z</time></trkpt>
        <trkpt lat="29.382665" lon="104.623287"><ele>322.59534</ele><time>2026-07-15T03:17:52.000Z</time></trkpt>
        <trkpt lat="29.382643" lon="104.62327"><ele>322.50424</ele><time>2026-07-15T03:17:53.000Z</time></trkpt>
        <trkpt lat="29.382598" lon="104.623237"><ele>322.35406</ele><time>2026-07-15T03:17:55.000Z</time></trkpt>
        <trkpt lat="29.382573" lon="104.62322"><ele>322.97614</ele><time>2026-07-15T03:17:56.000Z</time></trkpt>
        <trkpt lat="29.382546" lon="104.623201"><ele>323.30258</ele><time>2026-07-15T03:17:57.000Z</time></trkpt>
        <trkpt lat="29.382515" lon="104.623179"><ele>323.67664</ele><time>2026-07-15T03:17:58.000Z</time></trkpt>
        <trkpt lat="29.382479" lon="104.623156"><ele>323.80334</ele><time>2026-07-15T03:17:59.000Z</time></trkpt>
        <trkpt lat="29.382372" lon="104.623088"><ele>324.43573</ele><time>2026-07-15T03:18:00.000Z</time></trkpt>
        <trkpt lat="29.382358" lon="104.623079"><ele>325.08084</ele><time>2026-07-15T03:18:01.000Z</time></trkpt>
        <trkpt lat="29.382355" lon="104.623078"><ele>325.8949</ele><time>2026-07-15T03:18:02.000Z</time></trkpt>
        <trkpt lat="29.382215" lon="104.622984"><ele>329.94818</ele><time>2026-07-15T03:18:07.000Z</time></trkpt>
        <trkpt lat="29.382144" lon="104.622935"><ele>330.83026</ele><time>2026-07-15T03:18:08.000Z</time></trkpt>
        <trkpt lat="29.382056" lon="104.622872"><ele>330.64688</ele><time>2026-07-15T03:18:09.000Z</time></trkpt>
        <trkpt lat="29.381965" lon="104.622805"><ele>330.90033</ele><time>2026-07-15T03:18:10.000Z</time></trkpt>
        <trkpt lat="29.381877" lon="104.62274"><ele>331.2189</ele><time>2026-07-15T03:18:11.000Z</time></trkpt>
        <trkpt lat="29.381798" lon="104.622682"><ele>331.89536</ele><time>2026-07-15T03:18:12.000Z</time></trkpt>
        <trkpt lat="29.381731" lon="104.622633"><ele>332.80832</ele><time>2026-07-15T03:18:13.000Z</time></trkpt>
        <trkpt lat="29.381696" lon="104.622608"><ele>333.16162</ele><time>2026-07-15T03:18:14.000Z</time></trkpt>
        <trkpt lat="29.381691" lon="104.622606"><ele>333.6294</ele><time>2026-07-15T03:18:15.000Z</time></trkpt>
        <trkpt lat="29.381622" lon="104.622576"><ele>335.91217</ele><time>2026-07-15T03:18:24.000Z</time></trkpt>
        <trkpt lat="29.381589" lon="104.622559"><ele>336.1107</ele><time>2026-07-15T03:18:25.000Z</time></trkpt>
        <trkpt lat="29.381456" lon="104.622492"><ele>336.37146</ele><time>2026-07-15T03:18:26.000Z</time></trkpt>
        <trkpt lat="29.381438" lon="104.622483"><ele>336.31088</ele><time>2026-07-15T03:18:27.000Z</time></trkpt>
        <trkpt lat="29.381436" lon="104.622481"><ele>336.40372</ele><time>2026-07-15T03:18:28.000Z</time></trkpt>
        <trkpt lat="29.3813" lon="104.622401"><ele>337.1735</ele><time>2026-07-15T03:18:33.000Z</time></trkpt>
        <trkpt lat="29.381231" lon="104.62236"><ele>336.79315</ele><time>2026-07-15T03:18:34.000Z</time></trkpt>
        <trkpt lat="29.381143" lon="104.622307"><ele>336.86993</ele><time>2026-07-15T03:18:35.000Z</time></trkpt>
        <trkpt lat="29.381049" lon="104.622251"><ele>336.66995</ele><time>2026-07-15T03:18:36.000Z</time></trkpt>
        <trkpt lat="29.380956" lon="104.622193"><ele>336.84378</ele><time>2026-07-15T03:18:37.000Z</time></trkpt>
        <trkpt lat="29.380866" lon="104.622136"><ele>336.95905</ele><time>2026-07-15T03:18:38.000Z</time></trkpt>
        <trkpt lat="29.38078" lon="104.622081"><ele>337.1692</ele><time>2026-07-15T03:18:39.000Z</time></trkpt>
        <trkpt lat="29.3807" lon="104.622028"><ele>337.06067</ele><time>2026-07-15T03:18:40.000Z</time></trkpt>
        <trkpt lat="29.380626" lon="104.621978"><ele>337.17453</ele><time>2026-07-15T03:18:41.000Z</time></trkpt>
        <trkpt lat="29.380557" lon="104.621932"><ele>336.9487</ele><time>2026-07-15T03:18:42.000Z</time></trkpt>
        <trkpt lat="29.380494" lon="104.621888"><ele>336.69363</ele><time>2026-07-15T03:18:43.000Z</time></trkpt>
        <trkpt lat="29.380436" lon="104.621848"><ele>336.8651</ele><time>2026-07-15T03:18:44.000Z</time></trkpt>
        <trkpt lat="29.380384" lon="104.621811"><ele>336.52863</ele><time>2026-07-15T03:18:45.000Z</time></trkpt>
        <trkpt lat="29.380337" lon="104.621777"><ele>335.98154</ele><time>2026-07-15T03:18:46.000Z</time></trkpt>
        <trkpt lat="29.380295" lon="104.621747"><ele>335.08447</ele><time>2026-07-15T03:18:47.000Z</time></trkpt>
        <trkpt lat="29.380259" lon="104.621721"><ele>334.63058</ele><time>2026-07-15T03:18:48.000Z</time></trkpt>
        <trkpt lat="29.380227" lon="104.621697"><ele>333.7139</ele><time>2026-07-15T03:18:49.000Z</time></trkpt>
        <trkpt lat="29.3802" lon="104.621677"><ele>333.05753</ele><time>2026-07-15T03:18:50.000Z</time></trkpt>
        <trkpt lat="29.380176" lon="104.62166"><ele>332.53632</ele><time>2026-07-15T03:18:51.000Z</time></trkpt>
        <trkpt lat="29.380137" lon="104.62163"><ele>331.44992</ele><time>2026-07-15T03:18:53.000Z</time></trkpt>
        <trkpt lat="29.380118" lon="104.621617"><ele>331.036</ele><time>2026-07-15T03:18:54.000Z</time></trkpt>
        <trkpt lat="29.380098" lon="104.621602"><ele>330.77832</ele><time>2026-07-15T03:18:55.000Z</time></trkpt>
        <trkpt lat="29.380042" lon="104.621561"><ele>330.6227</ele><time>2026-07-15T03:18:57.000Z</time></trkpt>
        <trkpt lat="29.380006" lon="104.621536"><ele>330.83023</ele><time>2026-07-15T03:18:58.000Z</time></trkpt>
        <trkpt lat="29.379965" lon="104.621507"><ele>330.89777</ele><time>2026-07-15T03:18:59.000Z</time></trkpt>
        <trkpt lat="29.37992" lon="104.621475"><ele>330.4594</ele><time>2026-07-15T03:19:00.000Z</time></trkpt>
        <trkpt lat="29.379872" lon="104.621441"><ele>330.93378</ele><time>2026-07-15T03:19:01.000Z</time></trkpt>
        <trkpt lat="29.37982" lon="104.621404"><ele>331.24988</ele><time>2026-07-15T03:19:02.000Z</time></trkpt>
        <trkpt lat="29.379765" lon="104.621366"><ele>331.25555</ele><time>2026-07-15T03:19:03.000Z</time></trkpt>
        <trkpt lat="29.379708" lon="104.621325"><ele>331.71155</ele><time>2026-07-15T03:19:04.000Z</time></trkpt>
        <trkpt lat="29.379649" lon="104.621283"><ele>331.66974</ele><time>2026-07-15T03:19:05.000Z</time></trkpt>
        <trkpt lat="29.379586" lon="104.621239"><ele>332.65683</ele><time>2026-07-15T03:19:06.000Z</time></trkpt>
        <trkpt lat="29.379522" lon="104.621194"><ele>333.38748</ele><time>2026-07-15T03:19:07.000Z</time></trkpt>
        <trkpt lat="29.379456" lon="104.621147"><ele>333.33316</ele><time>2026-07-15T03:19:08.000Z</time></trkpt>
        <trkpt lat="29.379389" lon="104.6211"><ele>333.8944</ele><time>2026-07-15T03:19:09.000Z</time></trkpt>
        <trkpt lat="29.379322" lon="104.621053"><ele>333.99713</ele><time>2026-07-15T03:19:10.000Z</time></trkpt>
        <trkpt lat="29.379257" lon="104.621007"><ele>334.63226</ele><time>2026-07-15T03:19:11.000Z</time></trkpt>
        <trkpt lat="29.379193" lon="104.620962"><ele>334.8498</ele><time>2026-07-15T03:19:12.000Z</time></trkpt>
        <trkpt lat="29.379132" lon="104.620919"><ele>335.35968</ele><time>2026-07-15T03:19:13.000Z</time></trkpt>
        <trkpt lat="29.379076" lon="104.62088"><ele>335.57083</ele><time>2026-07-15T03:19:14.000Z</time></trkpt>
        <trkpt lat="29.379024" lon="104.620843"><ele>335.80466</ele><time>2026-07-15T03:19:15.000Z</time></trkpt>
        <trkpt lat="29.378978" lon="104.620811"><ele>336.2773</ele><time>2026-07-15T03:19:16.000Z</time></trkpt>
        <trkpt lat="29.378941" lon="104.620785"><ele>336.59967</ele><time>2026-07-15T03:19:16.000Z</time></trkpt>
        <trkpt lat="29.378909" lon="104.620763"><ele>337.1197</ele><time>2026-07-15T03:19:17.000Z</time></trkpt>
        <trkpt lat="29.37888" lon="104.620742"><ele>337.30032</ele><time>2026-07-15T03:19:18.000Z</time></trkpt>
        <trkpt lat="29.37885" lon="104.620721"><ele>337.82123</ele><time>2026-07-15T03:19:19.000Z</time></trkpt>
        <trkpt lat="29.378818" lon="104.620699"><ele>338.11142</ele><time>2026-07-15T03:19:20.000Z</time></trkpt>
        <trkpt lat="29.378787" lon="104.620677"><ele>338.2407</ele><time>2026-07-15T03:19:21.000Z</time></trkpt>
        <trkpt lat="29.378757" lon="104.620656"><ele>337.9415</ele><time>2026-07-15T03:19:22.000Z</time></trkpt>
        <trkpt lat="29.378725" lon="104.620634"><ele>338.6957</ele><time>2026-07-15T03:19:23.000Z</time></trkpt>
        <trkpt lat="29.378696" lon="104.620614"><ele>338.25818</ele><time>2026-07-15T03:19:24.000Z</time></trkpt>
        <trkpt lat="29.378674" lon="104.620598"><ele>338.8146</ele><time>2026-07-15T03:19:25.000Z</time></trkpt>
        <trkpt lat="29.378664" lon="104.620571"><ele>339.41736</ele><time>2026-07-15T03:19:28.000Z</time></trkpt>
        <trkpt lat="29.378639" lon="104.620525"><ele>340.91647</ele><time>2026-07-15T03:19:33.000Z</time></trkpt>
        <trkpt lat="29.378623" lon="104.620507"><ele>341.28204</ele><time>2026-07-15T03:19:34.000Z</time></trkpt>
        <trkpt lat="29.378593" lon="104.620485"><ele>342.13803</ele><time>2026-07-15T03:19:35.000Z</time></trkpt>
        <trkpt lat="29.378507" lon="104.62043"><ele>341.7008</ele><time>2026-07-15T03:19:38.000Z</time></trkpt>
        <trkpt lat="29.378453" lon="104.620399"><ele>341.766</ele><time>2026-07-15T03:19:39.000Z</time></trkpt>
        <trkpt lat="29.378392" lon="104.620362"><ele>342.39642</ele><time>2026-07-15T03:19:40.000Z</time></trkpt>
        <trkpt lat="29.378325" lon="104.620321"><ele>342.72882</ele><time>2026-07-15T03:19:41.000Z</time></trkpt>
        <trkpt lat="29.378253" lon="104.620275"><ele>343.0191</ele><time>2026-07-15T03:19:42.000Z</time></trkpt>
        <trkpt lat="29.378176" lon="104.620226"><ele>343.2345</ele><time>2026-07-15T03:19:43.000Z</time></trkpt>
        <trkpt lat="29.378095" lon="104.620173"><ele>343.6571</ele><time>2026-07-15T03:19:44.000Z</time></trkpt>
        <trkpt lat="29.378011" lon="104.620117"><ele>343.6514</ele><time>2026-07-15T03:19:45.000Z</time></trkpt>
        <trkpt lat="29.377924" lon="104.620059"><ele>343.65543</ele><time>2026-07-15T03:19:46.000Z</time></trkpt>
        <trkpt lat="29.377836" lon="104.62"><ele>343.40283</ele><time>2026-07-15T03:19:47.000Z</time></trkpt>
        <trkpt lat="29.377747" lon="104.61994"><ele>342.9127</ele><time>2026-07-15T03:19:48.000Z</time></trkpt>
        <trkpt lat="29.377658" lon="104.619878"><ele>342.37695</ele><time>2026-07-15T03:19:49.000Z</time></trkpt>
        <trkpt lat="29.37757" lon="104.619817"><ele>342.08817</ele><time>2026-07-15T03:19:50.000Z</time></trkpt>
        <trkpt lat="29.377482" lon="104.619756"><ele>341.79828</ele><time>2026-07-15T03:19:51.000Z</time></trkpt>
        <trkpt lat="29.377396" lon="104.619697"><ele>341.1858</ele><time>2026-07-15T03:19:52.000Z</time></trkpt>
        <trkpt lat="29.377312" lon="104.619638"><ele>340.70868</ele><time>2026-07-15T03:19:53.000Z</time></trkpt>
        <trkpt lat="29.377232" lon="104.619582"><ele>340.15854</ele><time>2026-07-15T03:19:54.000Z</time></trkpt>
        <trkpt lat="29.377154" lon="104.619529"><ele>339.4963</ele><time>2026-07-15T03:19:55.000Z</time></trkpt>
        <trkpt lat="29.377081" lon="104.619478"><ele>338.67813</ele><time>2026-07-15T03:19:56.000Z</time></trkpt>
        <trkpt lat="29.377012" lon="104.61943"><ele>337.89752</ele><time>2026-07-15T03:19:57.000Z</time></trkpt>
        <trkpt lat="29.376948" lon="104.619385"><ele>337.19043</ele><time>2026-07-15T03:19:58.000Z</time></trkpt>
        <trkpt lat="29.376888" lon="104.619343"><ele>336.36755</ele><time>2026-07-15T03:19:59.000Z</time></trkpt>
        <trkpt lat="29.376832" lon="104.619304"><ele>335.97504</ele><time>2026-07-15T03:20:00.000Z</time></trkpt>
        <trkpt lat="29.376777" lon="104.619268"><ele>335.7359</ele><time>2026-07-15T03:20:01.000Z</time></trkpt>
        <trkpt lat="29.376725" lon="104.619235"><ele>335.22858</ele><time>2026-07-15T03:20:02.000Z</time></trkpt>
        <trkpt lat="29.376676" lon="104.619206"><ele>335.06128</ele><time>2026-07-15T03:20:03.000Z</time></trkpt>
        <trkpt lat="29.376631" lon="104.619178"><ele>334.70963</ele><time>2026-07-15T03:20:04.000Z</time></trkpt>
        <trkpt lat="29.376589" lon="104.619156"><ele>334.21387</ele><time>2026-07-15T03:20:05.000Z</time></trkpt>
        <trkpt lat="29.376551" lon="104.619142"><ele>334.4443</ele><time>2026-07-15T03:20:06.000Z</time></trkpt>
        <trkpt lat="29.376512" lon="104.619134"><ele>334.30017</ele><time>2026-07-15T03:20:07.000Z</time></trkpt>
        <trkpt lat="29.376477" lon="104.619135"><ele>334.0348</ele><time>2026-07-15T03:20:08.000Z</time></trkpt>
        <trkpt lat="29.376448" lon="104.619144"><ele>333.75314</ele><time>2026-07-15T03:20:09.000Z</time></trkpt>
        <trkpt lat="29.376442" lon="104.619136"><ele>333.5681</ele><time>2026-07-15T03:20:10.000Z</time></trkpt>
        <trkpt lat="29.376545" lon="104.619222"><ele>333.51956</ele><time>2026-07-15T03:20:13.000Z</time></trkpt>
        <trkpt lat="29.376715" lon="104.619361"><ele>333.34943</ele><time>2026-07-15T03:20:14.000Z</time></trkpt>
        <trkpt lat="29.376739" lon="104.61938"><ele>333.153</ele><time>2026-07-15T03:20:15.000Z</time></trkpt>
        <trkpt lat="29.376742" lon="104.619382"><ele>332.81848</ele><time>2026-07-15T03:20:16.000Z</time></trkpt>
        <trkpt lat="29.376813" lon="104.619431"><ele>333.38895</ele><time>2026-07-15T03:20:26.000Z</time></trkpt>
        <trkpt lat="29.376841" lon="104.61945"><ele>333.33246</ele><time>2026-07-15T03:20:27.000Z</time></trkpt>
        <trkpt lat="29.376968" lon="104.619536"><ele>333.4523</ele><time>2026-07-15T03:20:28.000Z</time></trkpt>
        <trkpt lat="29.376985" lon="104.619548"><ele>333.19644</ele><time>2026-07-15T03:20:29.000Z</time></trkpt>
        <trkpt lat="29.376987" lon="104.61955"><ele>333.63876</ele><time>2026-07-15T03:20:30.000Z</time></trkpt>
        <trkpt lat="29.377108" lon="104.619632"><ele>335.89944</ele><time>2026-07-15T03:20:35.000Z</time></trkpt>
        <trkpt lat="29.37718" lon="104.619681"><ele>336.2534</ele><time>2026-07-15T03:20:36.000Z</time></trkpt>
        <trkpt lat="29.37728" lon="104.619749"><ele>336.70416</ele><time>2026-07-15T03:20:37.000Z</time></trkpt>
        <trkpt lat="29.377396" lon="104.619829"><ele>337.27487</ele><time>2026-07-15T03:20:38.000Z</time></trkpt>
        <trkpt lat="29.377521" lon="104.619914"><ele>337.91528</ele><time>2026-07-15T03:20:39.000Z</time></trkpt>
        <trkpt lat="29.377647" lon="104.620001"><ele>338.357</ele><time>2026-07-15T03:20:40.000Z</time></trkpt>
        <trkpt lat="29.377771" lon="104.620086"><ele>339.1749</ele><time>2026-07-15T03:20:41.000Z</time></trkpt>
        <trkpt lat="29.37789" lon="104.620167"><ele>340.08075</ele><time>2026-07-15T03:20:42.000Z</time></trkpt>
        <trkpt lat="29.378" lon="104.620244"><ele>340.75214</ele><time>2026-07-15T03:20:43.000Z</time></trkpt>
        <trkpt lat="29.378101" lon="104.620313"><ele>341.19907</ele><time>2026-07-15T03:20:44.000Z</time></trkpt>
        <trkpt lat="29.378192" lon="104.620376"><ele>341.45816</ele><time>2026-07-15T03:20:45.000Z</time></trkpt>
        <trkpt lat="29.378273" lon="104.620433"><ele>341.7831</ele><time>2026-07-15T03:20:46.000Z</time></trkpt>
        <trkpt lat="29.378346" lon="104.620484"><ele>341.69617</ele><time>2026-07-15T03:20:47.000Z</time></trkpt>
        <trkpt lat="29.378411" lon="104.620529"><ele>341.76144</ele><time>2026-07-15T03:20:48.000Z</time></trkpt>
        <trkpt lat="29.378468" lon="104.62057"><ele>341.53168</ele><time>2026-07-15T03:20:49.000Z</time></trkpt>
        <trkpt lat="29.378521" lon="104.620607"><ele>341.3861</ele><time>2026-07-15T03:20:50.000Z</time></trkpt>
        <trkpt lat="29.378569" lon="104.620641"><ele>341.14755</ele><time>2026-07-15T03:20:51.000Z</time></trkpt>
        <trkpt lat="29.378616" lon="104.620674"><ele>340.68192</ele><time>2026-07-15T03:20:52.000Z</time></trkpt>
        <trkpt lat="29.378663" lon="104.620707"><ele>340.2948</ele><time>2026-07-15T03:20:53.000Z</time></trkpt>
        <trkpt lat="29.378709" lon="104.62074"><ele>339.75424</ele><time>2026-07-15T03:20:54.000Z</time></trkpt>
        <trkpt lat="29.378754" lon="104.620772"><ele>339.06702</ele><time>2026-07-15T03:20:55.000Z</time></trkpt>
        <trkpt lat="29.3788" lon="104.620805"><ele>338.60712</ele><time>2026-07-15T03:20:56.000Z</time></trkpt>
        <trkpt lat="29.378847" lon="104.620838"><ele>337.8469</ele><time>2026-07-15T03:20:57.000Z</time></trkpt>
        <trkpt lat="29.378895" lon="104.620872"><ele>337.24323</ele><time>2026-07-15T03:20:58.000Z</time></trkpt>
        <trkpt lat="29.378942" lon="104.620906"><ele>336.6701</ele><time>2026-07-15T03:20:59.000Z</time></trkpt>
        <trkpt lat="29.378989" lon="104.620938"><ele>336.1969</ele><time>2026-07-15T03:21:00.000Z</time></trkpt>
        <trkpt lat="29.379033" lon="104.620969"><ele>335.69452</ele><time>2026-07-15T03:21:01.000Z</time></trkpt>
        <trkpt lat="29.379073" lon="104.620998"><ele>335.11023</ele><time>2026-07-15T03:21:02.000Z</time></trkpt>
        <trkpt lat="29.37911" lon="104.621024"><ele>334.48608</ele><time>2026-07-15T03:21:03.000Z</time></trkpt>
        <trkpt lat="29.379146" lon="104.62105"><ele>334.25766</ele><time>2026-07-15T03:21:04.000Z</time></trkpt>
        <trkpt lat="29.379183" lon="104.621076"><ele>333.99573</ele><time>2026-07-15T03:21:05.000Z</time></trkpt>
        <trkpt lat="29.379226" lon="104.621106"><ele>333.757</ele><time>2026-07-15T03:21:06.000Z</time></trkpt>
        <trkpt lat="29.379277" lon="104.621142"><ele>332.16794</ele><time>2026-07-15T03:21:11.000Z</time></trkpt>
        <trkpt lat="29.379322" lon="104.621174"><ele>331.9057</ele><time>2026-07-15T03:21:12.000Z</time></trkpt>
        <trkpt lat="29.379396" lon="104.621226"><ele>331.35147</ele><time>2026-07-15T03:21:13.000Z</time></trkpt>
        <trkpt lat="29.379491" lon="104.621293"><ele>330.91702</ele><time>2026-07-15T03:21:14.000Z</time></trkpt>
        <trkpt lat="29.379592" lon="104.621365"><ele>330.42395</ele><time>2026-07-15T03:21:15.000Z</time></trkpt>
        <trkpt lat="29.379687" lon="104.621432"><ele>330.041</ele><time>2026-07-15T03:21:16.000Z</time></trkpt>
        <trkpt lat="29.379767" lon="104.621489"><ele>329.79187</ele><time>2026-07-15T03:21:17.000Z</time></trkpt>
        <trkpt lat="29.379831" lon="104.621535"><ele>329.76523</ele><time>2026-07-15T03:21:18.000Z</time></trkpt>
        <trkpt lat="29.379879" lon="104.621569"><ele>329.72363</ele><time>2026-07-15T03:21:19.000Z</time></trkpt>
        <trkpt lat="29.379909" lon="104.621592"><ele>329.90997</ele><time>2026-07-15T03:21:20.000Z</time></trkpt>
        <trkpt lat="29.379888" lon="104.621577"><ele>329.0574</ele><time>2026-07-15T03:21:26.000Z</time></trkpt>
        <trkpt lat="29.380043" lon="104.621688"><ele>329.16473</ele><time>2026-07-15T03:21:34.000Z</time></trkpt>
        <trkpt lat="29.380163" lon="104.621773"><ele>329.1577</ele><time>2026-07-15T03:21:35.000Z</time></trkpt>
        <trkpt lat="29.380179" lon="104.621785"><ele>329.52252</ele><time>2026-07-15T03:21:36.000Z</time></trkpt>
        <trkpt lat="29.380182" lon="104.621786"><ele>329.60098</ele><time>2026-07-15T03:21:37.000Z</time></trkpt>
        <trkpt lat="29.380268" lon="104.621849"><ele>332.19092</ele><time>2026-07-15T03:21:43.000Z</time></trkpt>
        <trkpt lat="29.380314" lon="104.621881"><ele>333.07135</ele><time>2026-07-15T03:21:44.000Z</time></trkpt>
        <trkpt lat="29.380373" lon="104.621921"><ele>333.82608</ele><time>2026-07-15T03:21:45.000Z</time></trkpt>
        <trkpt lat="29.380435" lon="104.621963"><ele>334.29114</ele><time>2026-07-15T03:21:46.000Z</time></trkpt>
        <trkpt lat="29.380498" lon="104.622006"><ele>334.7038</ele><time>2026-07-15T03:21:47.000Z</time></trkpt>
        <trkpt lat="29.380559" lon="104.622049"><ele>335.04373</ele><time>2026-07-15T03:21:48.000Z</time></trkpt>
        <trkpt lat="29.380617" lon="104.622089"><ele>335.42297</ele><time>2026-07-15T03:21:49.000Z</time></trkpt>
        <trkpt lat="29.380672" lon="104.622129"><ele>335.51523</ele><time>2026-07-15T03:21:50.000Z</time></trkpt>
        <trkpt lat="29.380725" lon="104.622167"><ele>336.17346</ele><time>2026-07-15T03:21:51.000Z</time></trkpt>
        <trkpt lat="29.380776" lon="104.622205"><ele>336.49524</ele><time>2026-07-15T03:21:52.000Z</time></trkpt>
        <trkpt lat="29.380825" lon="104.62224"><ele>336.8385</ele><time>2026-07-15T03:21:53.000Z</time></trkpt>
        <trkpt lat="29.380873" lon="104.622275"><ele>337.32037</ele><time>2026-07-15T03:21:54.000Z</time></trkpt>
        <trkpt lat="29.380921" lon="104.622309"><ele>337.36096</ele><time>2026-07-15T03:21:55.000Z</time></trkpt>
        <trkpt lat="29.380968" lon="104.622341"><ele>337.6184</ele><time>2026-07-15T03:21:56.000Z</time></trkpt>
        <trkpt lat="29.381016" lon="104.622373"><ele>337.8365</ele><time>2026-07-15T03:21:57.000Z</time></trkpt>
        <trkpt lat="29.381062" lon="104.622405"><ele>338.2995</ele><time>2026-07-15T03:21:58.000Z</time></trkpt>
        <trkpt lat="29.381104" lon="104.622434"><ele>338.16385</ele><time>2026-07-15T03:21:59.000Z</time></trkpt>
        <trkpt lat="29.381139" lon="104.622458"><ele>338.30334</ele><time>2026-07-15T03:22:00.000Z</time></trkpt>
        <trkpt lat="29.381168" lon="104.622478"><ele>338.16562</ele><time>2026-07-15T03:22:01.000Z</time></trkpt>
        <trkpt lat="29.38119" lon="104.622493"><ele>337.78564</ele><time>2026-07-15T03:22:02.000Z</time></trkpt>
        <trkpt lat="29.38119" lon="104.622494"><ele>337.0453</ele><time>2026-07-15T03:22:04.000Z</time></trkpt>
        <trkpt lat="29.38125" lon="104.622362"><ele>335.2669</ele><time>2026-07-15T03:22:14.000Z</time></trkpt>
        <trkpt lat="29.381334" lon="104.622173"><ele>335.23236</ele><time>2026-07-15T03:22:15.000Z</time></trkpt>
        <trkpt lat="29.381342" lon="104.622157"><ele>335.3629</ele><time>2026-07-15T03:22:16.000Z</time></trkpt>
        <trkpt lat="29.381342" lon="104.622155"><ele>335.25778</ele><time>2026-07-15T03:22:17.000Z</time></trkpt>
        <trkpt lat="29.381364" lon="104.622085"><ele>332.4616</ele><time>2026-07-15T03:22:33.000Z</time></trkpt>
        <trkpt lat="29.381363" lon="104.622085"><ele>332.02786</ele><time>2026-07-15T03:22:34.000Z</time></trkpt>
        <trkpt lat="29.381363" lon="104.622085"><ele>331.96765</ele><time>2026-07-15T03:22:35.000Z</time></trkpt>
        <trkpt lat="29.381381" lon="104.622061"><ele>331.91956</ele><time>2026-07-15T03:22:51.000Z</time></trkpt>
        <trkpt lat="29.381398" lon="104.622034"><ele>332.05383</ele><time>2026-07-15T03:22:52.000Z</time></trkpt>
        <trkpt lat="29.381453" lon="104.621944"><ele>330.92065</ele><time>2026-07-15T03:22:59.000Z</time></trkpt>
        <trkpt lat="29.381484" lon="104.621891"><ele>330.577</ele><time>2026-07-15T03:23:00.000Z</time></trkpt>
        <trkpt lat="29.381526" lon="104.62182"><ele>330.22256</ele><time>2026-07-15T03:23:01.000Z</time></trkpt>
        <trkpt lat="29.381573" lon="104.621737"><ele>330.69513</ele><time>2026-07-15T03:23:02.000Z</time></trkpt>
        <trkpt lat="29.381623" lon="104.621647"><ele>330.18433</ele><time>2026-07-15T03:23:03.000Z</time></trkpt>
        <trkpt lat="29.381673" lon="104.621553"><ele>329.94366</ele><time>2026-07-15T03:23:04.000Z</time></trkpt>
        <trkpt lat="29.381723" lon="104.621459"><ele>329.55127</ele><time>2026-07-15T03:23:05.000Z</time></trkpt>
        <trkpt lat="29.381772" lon="104.621364"><ele>329.59637</ele><time>2026-07-15T03:23:06.000Z</time></trkpt>
        <trkpt lat="29.381822" lon="104.621272"><ele>329.44632</ele><time>2026-07-15T03:23:07.000Z</time></trkpt>
        <trkpt lat="29.381871" lon="104.62118"><ele>329.58185</ele><time>2026-07-15T03:23:08.000Z</time></trkpt>
        <trkpt lat="29.381918" lon="104.621091"><ele>329.58112</ele><time>2026-07-15T03:23:09.000Z</time></trkpt>
        <trkpt lat="29.381964" lon="104.621004"><ele>329.23462</ele><time>2026-07-15T03:23:10.000Z</time></trkpt>
        <trkpt lat="29.38201" lon="104.620917"><ele>330.01166</ele><time>2026-07-15T03:23:11.000Z</time></trkpt>
        <trkpt lat="29.382053" lon="104.620835"><ele>329.77277</ele><time>2026-07-15T03:23:12.000Z</time></trkpt>
        <trkpt lat="29.382094" lon="104.62076"><ele>328.9787</ele><time>2026-07-15T03:23:13.000Z</time></trkpt>
        <trkpt lat="29.382132" lon="104.620688"><ele>329.24725</ele><time>2026-07-15T03:23:14.000Z</time></trkpt>
        <trkpt lat="29.382168" lon="104.620621"><ele>329.36432</ele><time>2026-07-15T03:23:15.000Z</time></trkpt>
        <trkpt lat="29.382202" lon="104.620559"><ele>329.44168</ele><time>2026-07-15T03:23:16.000Z</time></trkpt>
        <trkpt lat="29.382235" lon="104.620499"><ele>329.1455</ele><time>2026-07-15T03:23:17.000Z</time></trkpt>
        <trkpt lat="29.382266" lon="104.620443"><ele>328.9894</ele><time>2026-07-15T03:23:18.000Z</time></trkpt>
        <trkpt lat="29.382294" lon="104.620392"><ele>328.95355</ele><time>2026-07-15T03:23:19.000Z</time></trkpt>
        <trkpt lat="29.382318" lon="104.620346"><ele>329.0579</ele><time>2026-07-15T03:23:20.000Z</time></trkpt>
        <trkpt lat="29.38234" lon="104.620307"><ele>328.2215</ele><time>2026-07-15T03:23:21.000Z</time></trkpt>
        <trkpt lat="29.382359" lon="104.620271"><ele>328.39954</ele><time>2026-07-15T03:23:22.000Z</time></trkpt>
        <trkpt lat="29.382378" lon="104.620237"><ele>329.1165</ele><time>2026-07-15T03:23:23.000Z</time></trkpt>
        <trkpt lat="29.382397" lon="104.620203"><ele>328.94412</ele><time>2026-07-15T03:23:24.000Z</time></trkpt>
        <trkpt lat="29.382418" lon="104.620169"><ele>328.77582</ele><time>2026-07-15T03:23:25.000Z</time></trkpt>
        <trkpt lat="29.382441" lon="104.620131"><ele>328.90076</ele><time>2026-07-15T03:23:26.000Z</time></trkpt>
        <trkpt lat="29.382492" lon="104.620045"><ele>329.31897</ele><time>2026-07-15T03:23:28.000Z</time></trkpt>
        <trkpt lat="29.382519" lon="104.619999"><ele>328.89764</ele><time>2026-07-15T03:23:28.000Z</time></trkpt>
        <trkpt lat="29.382548" lon="104.619952"><ele>328.7551</ele><time>2026-07-15T03:23:29.000Z</time></trkpt>
        <trkpt lat="29.382576" lon="104.619904"><ele>327.8551</ele><time>2026-07-15T03:23:30.000Z</time></trkpt>
        <trkpt lat="29.382602" lon="104.619855"><ele>327.75037</ele><time>2026-07-15T03:23:31.000Z</time></trkpt>
        <trkpt lat="29.382624" lon="104.619812"><ele>328.5485</ele><time>2026-07-15T03:23:32.000Z</time></trkpt>
        <trkpt lat="29.38265" lon="104.619756"><ele>329.7862</ele><time>2026-07-15T03:23:34.000Z</time></trkpt>
        <trkpt lat="29.382657" lon="104.61974"><ele>329.64062</ele><time>2026-07-15T03:23:35.000Z</time></trkpt>
        <trkpt lat="29.382664" lon="104.619728"><ele>331.67487</ele><time>2026-07-15T03:23:38.000Z</time></trkpt>
        <trkpt lat="29.382695" lon="104.619672"><ele>332.96045</ele><time>2026-07-15T03:24:41.000Z</time></trkpt>
        <trkpt lat="29.382711" lon="104.619642"><ele>333.1986</ele><time>2026-07-15T03:24:42.000Z</time></trkpt>
        <trkpt lat="29.382713" lon="104.619638"><ele>333.5709</ele><time>2026-07-15T03:24:43.000Z</time></trkpt>
        <trkpt lat="29.382776" lon="104.619529"><ele>336.12094</ele><time>2026-07-15T03:24:49.000Z</time></trkpt>
        <trkpt lat="29.382805" lon="104.619478"><ele>336.28958</ele><time>2026-07-15T03:24:50.000Z</time></trkpt>
        <trkpt lat="29.382905" lon="104.61929"><ele>336.9972</ele><time>2026-07-15T03:24:51.000Z</time></trkpt>
        <trkpt lat="29.382927" lon="104.619246"><ele>338.04214</ele><time>2026-07-15T03:24:53.000Z</time></trkpt>
        <trkpt lat="29.382929" lon="104.619243"><ele>338.6304</ele><time>2026-07-15T03:24:54.000Z</time></trkpt>
        <trkpt lat="29.382952" lon="104.619197"><ele>342.13254</ele><time>2026-07-15T03:24:59.000Z</time></trkpt>
        <trkpt lat="29.383067" lon="104.618964"><ele>342.59827</ele><time>2026-07-15T03:25:01.000Z</time></trkpt>
        <trkpt lat="29.383075" lon="104.618948"><ele>343.12698</ele><time>2026-07-15T03:25:02.000Z</time></trkpt>
        <trkpt lat="29.383077" lon="104.618946"><ele>343.5623</ele><time>2026-07-15T03:25:03.000Z</time></trkpt>
        <trkpt lat="29.383131" lon="104.618842"><ele>346.27554</ele><time>2026-07-15T03:25:09.000Z</time></trkpt>
        <trkpt lat="29.383147" lon="104.618811"><ele>346.7196</ele><time>2026-07-15T03:25:10.000Z</time></trkpt>
        <trkpt lat="29.383164" lon="104.618781"><ele>345.9461</ele><time>2026-07-15T03:25:11.000Z</time></trkpt>
        <trkpt lat="29.383179" lon="104.618758"><ele>345.74582</ele><time>2026-07-15T03:25:12.000Z</time></trkpt>
        <trkpt lat="29.383204" lon="104.618734"><ele>345.8312</ele><time>2026-07-15T03:25:14.000Z</time></trkpt>
        <trkpt lat="29.383211" lon="104.618726"><ele>346.47406</ele><time>2026-07-15T03:25:23.000Z</time></trkpt>
        <trkpt lat="29.383254" lon="104.618664"><ele>345.54407</ele><time>2026-07-15T03:25:41.000Z</time></trkpt>
        <trkpt lat="29.38328" lon="104.618625"><ele>345.649</ele><time>2026-07-15T03:25:42.000Z</time></trkpt>
        <trkpt lat="29.383282" lon="104.618619"><ele>345.57086</ele><time>2026-07-15T03:25:43.000Z</time></trkpt>
        <trkpt lat="29.383305" lon="104.618572"><ele>347.3434</ele><time>2026-07-15T03:25:48.000Z</time></trkpt>
        <trkpt lat="29.383329" lon="104.618518"><ele>347.1419</ele><time>2026-07-15T03:25:50.000Z</time></trkpt>
        <trkpt lat="29.38334" lon="104.61849"><ele>346.90094</ele><time>2026-07-15T03:25:51.000Z</time></trkpt>
        <trkpt lat="29.383348" lon="104.618466"><ele>346.66678</ele><time>2026-07-15T03:25:52.000Z</time></trkpt>
        <trkpt lat="29.383371" lon="104.618422"><ele>346.96793</ele><time>2026-07-15T03:25:56.000Z</time></trkpt>
        <trkpt lat="29.383388" lon="104.618392"><ele>346.6851</ele><time>2026-07-15T03:26:03.000Z</time></trkpt>
        <trkpt lat="29.383397" lon="104.618375"><ele>346.9232</ele><time>2026-07-15T03:26:04.000Z</time></trkpt>
        <trkpt lat="29.383432" lon="104.61831"><ele>346.51367</ele><time>2026-07-15T03:26:06.000Z</time></trkpt>
        <trkpt lat="29.383454" lon="104.61827"><ele>346.26028</ele><time>2026-07-15T03:26:07.000Z</time></trkpt>
        <trkpt lat="29.383479" lon="104.618225"><ele>345.76025</ele><time>2026-07-15T03:26:08.000Z</time></trkpt>
        <trkpt lat="29.383505" lon="104.618179"><ele>345.19937</ele><time>2026-07-15T03:26:09.000Z</time></trkpt>
        <trkpt lat="29.383531" lon="104.618132"><ele>344.54117</ele><time>2026-07-15T03:26:10.000Z</time></trkpt>
        <trkpt lat="29.38359" lon="104.618029"><ele>344.0943</ele><time>2026-07-15T03:26:11.000Z</time></trkpt>
        <trkpt lat="29.383598" lon="104.618015"><ele>343.44662</ele><time>2026-07-15T03:26:12.000Z</time></trkpt>
        <trkpt lat="29.383599" lon="104.618013"><ele>342.7999</ele><time>2026-07-15T03:26:13.000Z</time></trkpt>
        <trkpt lat="29.383634" lon="104.617926"><ele>341.45502</ele><time>2026-07-15T03:26:25.000Z</time></trkpt>
        <trkpt lat="29.383637" lon="104.617918"><ele>341.09238</ele><time>2026-07-15T03:26:26.000Z</time></trkpt>
        <trkpt lat="29.383641" lon="104.61791"><ele>340.8404</ele><time>2026-07-15T03:26:27.000Z</time></trkpt>
        <trkpt lat="29.383664" lon="104.617862"><ele>339.154</ele><time>2026-07-15T03:26:46.000Z</time></trkpt>
        <trkpt lat="29.383671" lon="104.61785"><ele>339.16693</ele><time>2026-07-15T03:26:47.000Z</time></trkpt>
        <trkpt lat="29.383698" lon="104.6178"><ele>340.99054</ele><time>2026-07-15T03:26:53.000Z</time></trkpt>
        <trkpt lat="29.383751" lon="104.617705"><ele>341.25818</ele><time>2026-07-15T03:26:55.000Z</time></trkpt>
        <trkpt lat="29.383787" lon="104.617639"><ele>342.1871</ele><time>2026-07-15T03:26:56.000Z</time></trkpt>
        <trkpt lat="29.383828" lon="104.617565"><ele>342.71298</ele><time>2026-07-15T03:26:57.000Z</time></trkpt>
        <trkpt lat="29.383871" lon="104.617486"><ele>343.0476</ele><time>2026-07-15T03:26:58.000Z</time></trkpt>
        <trkpt lat="29.383915" lon="104.617406"><ele>343.04068</ele><time>2026-07-15T03:26:59.000Z</time></trkpt>
        <trkpt lat="29.38396" lon="104.617325"><ele>343.48843</ele><time>2026-07-15T03:27:00.000Z</time></trkpt>
        <trkpt lat="29.384004" lon="104.617244"><ele>342.8523</ele><time>2026-07-15T03:27:01.000Z</time></trkpt>
        <trkpt lat="29.384048" lon="104.617163"><ele>343.73914</ele><time>2026-07-15T03:27:02.000Z</time></trkpt>
        <trkpt lat="29.384091" lon="104.617082"><ele>343.9865</ele><time>2026-07-15T03:27:03.000Z</time></trkpt>
        <trkpt lat="29.384133" lon="104.617002"><ele>343.82053</ele><time>2026-07-15T03:27:04.000Z</time></trkpt>
        <trkpt lat="29.384175" lon="104.616923"><ele>343.8917</ele><time>2026-07-15T03:27:05.000Z</time></trkpt>
        <trkpt lat="29.384215" lon="104.616845"><ele>344.32712</ele><time>2026-07-15T03:27:06.000Z</time></trkpt>
        <trkpt lat="29.384254" lon="104.616767"><ele>344.97794</ele><time>2026-07-15T03:27:07.000Z</time></trkpt>
        <trkpt lat="29.384292" lon="104.616691"><ele>344.37357</ele><time>2026-07-15T03:27:08.000Z</time></trkpt>
        <trkpt lat="29.384328" lon="104.616615"><ele>344.67282</ele><time>2026-07-15T03:27:09.000Z</time></trkpt>
        <trkpt lat="29.384364" lon="104.616541"><ele>345.17746</ele><time>2026-07-15T03:27:10.000Z</time></trkpt>
        <trkpt lat="29.384399" lon="104.616467"><ele>345.67047</ele><time>2026-07-15T03:27:11.000Z</time></trkpt>
        <trkpt lat="29.384434" lon="104.616396"><ele>345.61694</ele><time>2026-07-15T03:27:12.000Z</time></trkpt>
        <trkpt lat="29.384468" lon="104.616326"><ele>345.86215</ele><time>2026-07-15T03:27:13.000Z</time></trkpt>
        <trkpt lat="29.384503" lon="104.616256"><ele>346.4025</ele><time>2026-07-15T03:27:14.000Z</time></trkpt>
        <trkpt lat="29.384537" lon="104.616187"><ele>346.84808</ele><time>2026-07-15T03:27:15.000Z</time></trkpt>
        <trkpt lat="29.384571" lon="104.616118"><ele>347.0643</ele><time>2026-07-15T03:27:16.000Z</time></trkpt>
        <trkpt lat="29.384607" lon="104.616048"><ele>347.78094</ele><time>2026-07-15T03:27:17.000Z</time></trkpt>
        <trkpt lat="29.384642" lon="104.615979"><ele>347.84528</ele><time>2026-07-15T03:27:18.000Z</time></trkpt>
        <trkpt lat="29.384677" lon="104.615913"><ele>348.47598</ele><time>2026-07-15T03:27:19.000Z</time></trkpt>
        <trkpt lat="29.38471" lon="104.61585"><ele>348.40143</ele><time>2026-07-15T03:27:20.000Z</time></trkpt>
        <trkpt lat="29.384739" lon="104.615795"><ele>348.74335</ele><time>2026-07-15T03:27:21.000Z</time></trkpt>
        <trkpt lat="29.384763" lon="104.61575"><ele>348.76132</ele><time>2026-07-15T03:27:22.000Z</time></trkpt>
        <trkpt lat="29.384782" lon="104.615715"><ele>349.28543</ele><time>2026-07-15T03:27:23.000Z</time></trkpt>
        <trkpt lat="29.384795" lon="104.61569"><ele>349.32275</ele><time>2026-07-15T03:27:24.000Z</time></trkpt>
        <trkpt lat="29.384811" lon="104.615658"><ele>349.6859</ele><time>2026-07-15T03:27:26.000Z</time></trkpt>
        <trkpt lat="29.384881" lon="104.615518"><ele>356.86197</ele><time>2026-07-15T03:27:50.000Z</time></trkpt>
        <trkpt lat="29.384923" lon="104.615437"><ele>356.56134</ele><time>2026-07-15T03:27:51.000Z</time></trkpt>
        <trkpt lat="29.38498" lon="104.61533"><ele>355.64713</ele><time>2026-07-15T03:27:52.000Z</time></trkpt>
        <trkpt lat="29.385043" lon="104.615211"><ele>354.94244</ele><time>2026-07-15T03:27:53.000Z</time></trkpt>
        <trkpt lat="29.385108" lon="104.61509"><ele>353.90073</ele><time>2026-07-15T03:27:54.000Z</time></trkpt>
        <trkpt lat="29.38517" lon="104.61497"><ele>353.30515</ele><time>2026-07-15T03:27:55.000Z</time></trkpt>
        <trkpt lat="29.38523" lon="104.614856"><ele>352.47546</ele><time>2026-07-15T03:27:56.000Z</time></trkpt>
        <trkpt lat="29.385286" lon="104.614752"><ele>352.19968</ele><time>2026-07-15T03:27:57.000Z</time></trkpt>
        <trkpt lat="29.385339" lon="104.614657"><ele>351.93695</ele><time>2026-07-15T03:27:58.000Z</time></trkpt>
        <trkpt lat="29.385387" lon="104.614573"><ele>351.68887</ele><time>2026-07-15T03:27:59.000Z</time></trkpt>
        <trkpt lat="29.385428" lon="104.6145"><ele>351.4187</ele><time>2026-07-15T03:28:00.000Z</time></trkpt>
        <trkpt lat="29.385462" lon="104.614442"><ele>351.32693</ele><time>2026-07-15T03:28:01.000Z</time></trkpt>
        <trkpt lat="29.385486" lon="104.614399"><ele>351.0951</ele><time>2026-07-15T03:28:02.000Z</time></trkpt>
        <trkpt lat="29.3855" lon="104.614371"><ele>351.17105</ele><time>2026-07-15T03:28:03.000Z</time></trkpt>
        <trkpt lat="29.385511" lon="104.614351"><ele>351.23602</ele><time>2026-07-15T03:28:06.000Z</time></trkpt>
        <trkpt lat="29.385432" lon="104.614489"><ele>350.56076</ele><time>2026-07-15T03:28:16.000Z</time></trkpt>
        <trkpt lat="29.385428" lon="104.614496"><ele>350.63403</ele><time>2026-07-15T03:28:17.000Z</time></trkpt>
        <trkpt lat="29.385423" lon="104.614503"><ele>350.0515</ele><time>2026-07-15T03:28:18.000Z</time></trkpt>
        <trkpt lat="29.385537" lon="104.614333"><ele>347.02032</ele><time>2026-07-15T03:28:45.000Z</time></trkpt>
        <trkpt lat="29.38557" lon="104.614281"><ele>345.59723</ele><time>2026-07-15T03:28:46.000Z</time></trkpt>
        <trkpt lat="29.38561" lon="104.614217"><ele>344.71118</ele><time>2026-07-15T03:28:47.000Z</time></trkpt>
        <trkpt lat="29.385651" lon="104.614148"><ele>344.386</ele><time>2026-07-15T03:28:48.000Z</time></trkpt>
        <trkpt lat="29.385691" lon="104.614079"><ele>344.10464</ele><time>2026-07-15T03:28:49.000Z</time></trkpt>
        <trkpt lat="29.385729" lon="104.614013"><ele>343.6634</ele><time>2026-07-15T03:28:50.000Z</time></trkpt>
        <trkpt lat="29.385761" lon="104.61395"><ele>343.45102</ele><time>2026-07-15T03:28:51.000Z</time></trkpt>
        <trkpt lat="29.385819" lon="104.613838"><ele>343.1869</ele><time>2026-07-15T03:28:53.000Z</time></trkpt>
        <trkpt lat="29.385823" lon="104.61383"><ele>343.51337</ele><time>2026-07-15T03:28:54.000Z</time></trkpt>
        <trkpt lat="29.385823" lon="104.613829"><ele>342.6801</ele><time>2026-07-15T03:28:55.000Z</time></trkpt>
        <trkpt lat="29.385879" lon="104.613734"><ele>341.07886</ele><time>2026-07-15T03:29:02.000Z</time></trkpt>
        <trkpt lat="29.385968" lon="104.61358"><ele>340.71262</ele><time>2026-07-15T03:29:03.000Z</time></trkpt>
        <trkpt lat="29.385981" lon="104.613559"><ele>340.41345</ele><time>2026-07-15T03:29:04.000Z</time></trkpt>
        <trkpt lat="29.385982" lon="104.613556"><ele>340.06464</ele><time>2026-07-15T03:29:05.000Z</time></trkpt>
        <trkpt lat="29.386044" lon="104.613443"><ele>337.1224</ele><time>2026-07-15T03:29:10.000Z</time></trkpt>
        <trkpt lat="29.386153" lon="104.613244"><ele>336.7037</ele><time>2026-07-15T03:29:11.000Z</time></trkpt>
        <trkpt lat="29.386167" lon="104.613216"><ele>335.9823</ele><time>2026-07-15T03:29:12.000Z</time></trkpt>
        <trkpt lat="29.38617" lon="104.613213"><ele>335.79623</ele><time>2026-07-15T03:29:13.000Z</time></trkpt>
        <trkpt lat="29.386203" lon="104.613157"><ele>333.0239</ele><time>2026-07-15T03:29:18.000Z</time></trkpt>
        <trkpt lat="29.386225" lon="104.613128"><ele>333.18378</ele><time>2026-07-15T03:29:19.000Z</time></trkpt>
        <trkpt lat="29.386326" lon="104.612997"><ele>332.99542</ele><time>2026-07-15T03:29:20.000Z</time></trkpt>
        <trkpt lat="29.38634" lon="104.612979"><ele>332.348</ele><time>2026-07-15T03:29:21.000Z</time></trkpt>
        <trkpt lat="29.386341" lon="104.61298"><ele>331.74826</ele><time>2026-07-15T03:29:22.000Z</time></trkpt>
        <trkpt lat="29.386504" lon="104.613049"><ele>329.87747</ele><time>2026-07-15T03:29:28.000Z</time></trkpt>
        <trkpt lat="29.386563" lon="104.613077"><ele>329.56863</ele><time>2026-07-15T03:29:29.000Z</time></trkpt>
        <trkpt lat="29.386632" lon="104.613112"><ele>329.10672</ele><time>2026-07-15T03:29:30.000Z</time></trkpt>
        <trkpt lat="29.386703" lon="104.613151"><ele>328.72513</ele><time>2026-07-15T03:29:31.000Z</time></trkpt>
        <trkpt lat="29.386772" lon="104.613191"><ele>328.4707</ele><time>2026-07-15T03:29:32.000Z</time></trkpt>
        <trkpt lat="29.386836" lon="104.613231"><ele>328.58746</ele><time>2026-07-15T03:29:33.000Z</time></trkpt>
        <trkpt lat="29.386896" lon="104.613271"><ele>328.37424</ele><time>2026-07-15T03:29:34.000Z</time></trkpt>
        <trkpt lat="29.386952" lon="104.613309"><ele>328.24207</ele><time>2026-07-15T03:29:35.000Z</time></trkpt>
        <trkpt lat="29.387005" lon="104.613345"><ele>328.06467</ele><time>2026-07-15T03:29:36.000Z</time></trkpt>
        <trkpt lat="29.387055" lon="104.61338"><ele>327.97485</ele><time>2026-07-15T03:29:37.000Z</time></trkpt>
        <trkpt lat="29.387102" lon="104.613413"><ele>327.87497</ele><time>2026-07-15T03:29:38.000Z</time></trkpt>
        <trkpt lat="29.387145" lon="104.613443"><ele>327.5528</ele><time>2026-07-15T03:29:39.000Z</time></trkpt>
        <trkpt lat="29.387184" lon="104.61347"><ele>327.75217</ele><time>2026-07-15T03:29:40.000Z</time></trkpt>
        <trkpt lat="29.387217" lon="104.613491"><ele>327.0441</ele><time>2026-07-15T03:29:41.000Z</time></trkpt>
        <trkpt lat="29.38724" lon="104.613505"><ele>326.46973</ele><time>2026-07-15T03:29:42.000Z</time></trkpt>
        <trkpt lat="29.38727" lon="104.61352"><ele>327.4716</ele><time>2026-07-15T03:29:44.000Z</time></trkpt>
        <trkpt lat="29.3873" lon="104.613538"><ele>327.6508</ele><time>2026-07-15T03:29:47.000Z</time></trkpt>
        <trkpt lat="29.387329" lon="104.613555"><ele>327.10214</ele><time>2026-07-15T03:29:49.000Z</time></trkpt>
        <trkpt lat="29.387352" lon="104.61357"><ele>327.16467</ele><time>2026-07-15T03:29:50.000Z</time></trkpt>
        <trkpt lat="29.387381" lon="104.613589"><ele>327.13272</ele><time>2026-07-15T03:29:51.000Z</time></trkpt>
        <trkpt lat="29.387415" lon="104.613612"><ele>327.6702</ele><time>2026-07-15T03:29:52.000Z</time></trkpt>
        <trkpt lat="29.387496" lon="104.613667"><ele>327.57477</ele><time>2026-07-15T03:29:54.000Z</time></trkpt>
        <trkpt lat="29.387542" lon="104.613699"><ele>327.76535</ele><time>2026-07-15T03:29:55.000Z</time></trkpt>
        <trkpt lat="29.387591" lon="104.613733"><ele>328.1666</ele><time>2026-07-15T03:29:56.000Z</time></trkpt>
        <trkpt lat="29.387644" lon="104.613769"><ele>328.5776</ele><time>2026-07-15T03:29:57.000Z</time></trkpt>
        <trkpt lat="29.387699" lon="104.613807"><ele>328.9342</ele><time>2026-07-15T03:29:58.000Z</time></trkpt>
        <trkpt lat="29.387754" lon="104.613846"><ele>329.62222</ele><time>2026-07-15T03:29:59.000Z</time></trkpt>
        <trkpt lat="29.387807" lon="104.613884"><ele>330.17026</ele><time>2026-07-15T03:30:01.000Z</time></trkpt>
        <trkpt lat="29.387856" lon="104.613921"><ele>330.6671</ele><time>2026-07-15T03:30:02.000Z</time></trkpt>
        <trkpt lat="29.3879" lon="104.613954"><ele>331.13184</ele><time>2026-07-15T03:30:03.000Z</time></trkpt>
        <trkpt lat="29.387936" lon="104.613981"><ele>331.92526</ele><time>2026-07-15T03:30:04.000Z</time></trkpt>
        <trkpt lat="29.387963" lon="104.614002"><ele>331.77417</ele><time>2026-07-15T03:30:05.000Z</time></trkpt>
        <trkpt lat="29.387988" lon="104.614019"><ele>332.08813</ele><time>2026-07-15T03:30:06.000Z</time></trkpt>
        <trkpt lat="29.388012" lon="104.614033"><ele>333.01703</ele><time>2026-07-15T03:30:07.000Z</time></trkpt>
        <trkpt lat="29.38804" lon="104.614046"><ele>333.10315</ele><time>2026-07-15T03:30:08.000Z</time></trkpt>
        <trkpt lat="29.388071" lon="104.61406"><ele>333.01624</ele><time>2026-07-15T03:30:09.000Z</time></trkpt>
        <trkpt lat="29.388104" lon="104.614076"><ele>332.9774</ele><time>2026-07-15T03:30:10.000Z</time></trkpt>
        <trkpt lat="29.388139" lon="104.614094"><ele>333.01727</ele><time>2026-07-15T03:30:11.000Z</time></trkpt>
        <trkpt lat="29.38822" lon="104.614137"><ele>333.35892</ele><time>2026-07-15T03:30:13.000Z</time></trkpt>
        <trkpt lat="29.388267" lon="104.614163"><ele>333.26025</ele><time>2026-07-15T03:30:14.000Z</time></trkpt>
        <trkpt lat="29.388318" lon="104.614192"><ele>332.82892</ele><time>2026-07-15T03:30:15.000Z</time></trkpt>
        <trkpt lat="29.388374" lon="104.614223"><ele>332.3733</ele><time>2026-07-15T03:30:16.000Z</time></trkpt>
        <trkpt lat="29.388434" lon="104.614257"><ele>331.934</ele><time>2026-07-15T03:30:17.000Z</time></trkpt>
        <trkpt lat="29.388498" lon="104.614292"><ele>331.74017</ele><time>2026-07-15T03:30:18.000Z</time></trkpt>
        <trkpt lat="29.388565" lon="104.614328"><ele>331.17337</ele><time>2026-07-15T03:30:19.000Z</time></trkpt>
        <trkpt lat="29.388634" lon="104.614364"><ele>330.41513</ele><time>2026-07-15T03:30:20.000Z</time></trkpt>
        <trkpt lat="29.388705" lon="104.6144"><ele>329.62387</ele><time>2026-07-15T03:30:21.000Z</time></trkpt>
        <trkpt lat="29.388777" lon="104.614434"><ele>328.66742</ele><time>2026-07-15T03:30:22.000Z</time></trkpt>
        <trkpt lat="29.388849" lon="104.614467"><ele>328.38184</ele><time>2026-07-15T03:30:23.000Z</time></trkpt>
        <trkpt lat="29.388921" lon="104.614499"><ele>328.21237</ele><time>2026-07-15T03:30:24.000Z</time></trkpt>
        <trkpt lat="29.388994" lon="104.614529"><ele>327.55563</ele><time>2026-07-15T03:30:25.000Z</time></trkpt>
        <trkpt lat="29.389069" lon="104.614556"><ele>327.04</ele><time>2026-07-15T03:30:26.000Z</time></trkpt>
        <trkpt lat="29.389145" lon="104.614583"><ele>327.0602</ele><time>2026-07-15T03:30:27.000Z</time></trkpt>
        <trkpt lat="29.389221" lon="104.61461"><ele>326.3091</ele><time>2026-07-15T03:30:28.000Z</time></trkpt>
        <trkpt lat="29.389292" lon="104.614635"><ele>326.06503</ele><time>2026-07-15T03:30:29.000Z</time></trkpt>
        <trkpt lat="29.389358" lon="104.614657"><ele>325.83847</ele><time>2026-07-15T03:30:30.000Z</time></trkpt>
        <trkpt lat="29.389414" lon="104.614676"><ele>325.49222</ele><time>2026-07-15T03:30:31.000Z</time></trkpt>
        <trkpt lat="29.389458" lon="104.614693"><ele>325.36914</ele><time>2026-07-15T03:30:32.000Z</time></trkpt>
        <trkpt lat="29.389491" lon="104.614705"><ele>325.20407</ele><time>2026-07-15T03:30:33.000Z</time></trkpt>
        <trkpt lat="29.389515" lon="104.614715"><ele>325.68365</ele><time>2026-07-15T03:30:34.000Z</time></trkpt>
        <trkpt lat="29.38955" lon="104.61473"><ele>325.83105</ele><time>2026-07-15T03:30:36.000Z</time></trkpt>
        <trkpt lat="29.389583" lon="104.614744"><ele>325.28024</ele><time>2026-07-15T03:30:38.000Z</time></trkpt>
        <trkpt lat="29.389602" lon="104.614752"><ele>324.89557</ele><time>2026-07-15T03:30:39.000Z</time></trkpt>
        <trkpt lat="29.389641" lon="104.614776"><ele>324.21216</ele><time>2026-07-15T03:30:41.000Z</time></trkpt>
        <trkpt lat="29.389672" lon="104.614799"><ele>323.87885</ele><time>2026-07-15T03:30:43.000Z</time></trkpt>
        <trkpt lat="29.389684" lon="104.614808"><ele>324.14603</ele><time>2026-07-15T03:30:44.000Z</time></trkpt>
        <trkpt lat="29.389727" lon="104.614841"><ele>324.08472</ele><time>2026-07-15T03:30:48.000Z</time></trkpt>
        <trkpt lat="29.38975" lon="104.614859"><ele>323.99542</ele><time>2026-07-15T03:30:50.000Z</time></trkpt>
        <trkpt lat="29.389763" lon="104.614871"><ele>323.92487</ele><time>2026-07-15T03:30:51.000Z</time></trkpt>
        <trkpt lat="29.389799" lon="104.614901"><ele>322.9623</ele><time>2026-07-15T03:30:53.000Z</time></trkpt>
        <trkpt lat="29.389822" lon="104.614921"><ele>323.0551</ele><time>2026-07-15T03:30:54.000Z</time></trkpt>
        <trkpt lat="29.389848" lon="104.614942"><ele>323.3046</ele><time>2026-07-15T03:30:55.000Z</time></trkpt>
        <trkpt lat="29.389879" lon="104.614965"><ele>323.2</ele><time>2026-07-15T03:30:56.000Z</time></trkpt>
        <trkpt lat="29.389913" lon="104.61499"><ele>323.18686</ele><time>2026-07-15T03:30:57.000Z</time></trkpt>
        <trkpt lat="29.38995" lon="104.615015"><ele>322.60153</ele><time>2026-07-15T03:30:58.000Z</time></trkpt>
        <trkpt lat="29.389988" lon="104.61504"><ele>322.26935</ele><time>2026-07-15T03:30:59.000Z</time></trkpt>
        <trkpt lat="29.390024" lon="104.615063"><ele>322.28873</ele><time>2026-07-15T03:31:00.000Z</time></trkpt>
        <trkpt lat="29.390058" lon="104.615084"><ele>322.20444</ele><time>2026-07-15T03:31:01.000Z</time></trkpt>
        <trkpt lat="29.39009" lon="104.615104"><ele>322.23718</ele><time>2026-07-15T03:31:02.000Z</time></trkpt>
        <trkpt lat="29.390118" lon="104.615121"><ele>321.88235</ele><time>2026-07-15T03:31:03.000Z</time></trkpt>
        <trkpt lat="29.390143" lon="104.615135"><ele>322.42886</ele><time>2026-07-15T03:31:04.000Z</time></trkpt>
        <trkpt lat="29.390173" lon="104.615138"><ele>323.5315</ele><time>2026-07-15T03:31:06.000Z</time></trkpt>
        <trkpt lat="29.390174" lon="104.615143"><ele>323.45114</ele><time>2026-07-15T03:31:12.000Z</time></trkpt>
        <trkpt lat="29.39019" lon="104.615244"><ele>321.7617</ele><time>2026-07-15T03:31:27.000Z</time></trkpt>
        <trkpt lat="29.390182" lon="104.615278"><ele>321.3663</ele><time>2026-07-15T03:31:28.000Z</time></trkpt>
        <trkpt lat="29.390144" lon="104.615443"><ele>321.8953</ele><time>2026-07-15T03:31:29.000Z</time></trkpt>
        <trkpt lat="29.390139" lon="104.615466"><ele>322.0493</ele><time>2026-07-15T03:31:30.000Z</time></trkpt>
        <trkpt lat="29.390137" lon="104.615468"><ele>321.53677</ele><time>2026-07-15T03:31:31.000Z</time></trkpt>
        <trkpt lat="29.390061" lon="104.615601"><ele>321.63672</ele><time>2026-07-15T03:31:36.000Z</time></trkpt>
        <trkpt lat="29.39002" lon="104.615673"><ele>321.71783</ele><time>2026-07-15T03:31:37.000Z</time></trkpt>
        <trkpt lat="29.389966" lon="104.615767"><ele>321.7822</ele><time>2026-07-15T03:31:38.000Z</time></trkpt>
        <trkpt lat="29.389906" lon="104.615872"><ele>322.21967</ele><time>2026-07-15T03:31:39.000Z</time></trkpt>
        <trkpt lat="29.389845" lon="104.615981"><ele>322.24103</ele><time>2026-07-15T03:31:40.000Z</time></trkpt>
        <trkpt lat="29.389785" lon="104.61609"><ele>322.28058</ele><time>2026-07-15T03:31:41.000Z</time></trkpt>
        <trkpt lat="29.389726" lon="104.616196"><ele>322.4013</ele><time>2026-07-15T03:31:42.000Z</time></trkpt>
        <trkpt lat="29.389671" lon="104.616299"><ele>322.52585</ele><time>2026-07-15T03:31:43.000Z</time></trkpt>
        <trkpt lat="29.389617" lon="104.616398"><ele>323.03052</ele><time>2026-07-15T03:31:44.000Z</time></trkpt>
        <trkpt lat="29.389566" lon="104.616493"><ele>323.24603</ele><time>2026-07-15T03:31:45.000Z</time></trkpt>
        <trkpt lat="29.389517" lon="104.616584"><ele>323.6526</ele><time>2026-07-15T03:31:46.000Z</time></trkpt>
        <trkpt lat="29.38947" lon="104.616671"><ele>323.73337</ele><time>2026-07-15T03:31:47.000Z</time></trkpt>
        <trkpt lat="29.389424" lon="104.616756"><ele>324.05795</ele><time>2026-07-15T03:31:48.000Z</time></trkpt>
        <trkpt lat="29.389381" lon="104.616838"><ele>324.19922</ele><time>2026-07-15T03:31:49.000Z</time></trkpt>
        <trkpt lat="29.389339" lon="104.616919"><ele>324.84274</ele><time>2026-07-15T03:31:50.000Z</time></trkpt>
        <trkpt lat="29.389298" lon="104.616999"><ele>325.26605</ele><time>2026-07-15T03:31:51.000Z</time></trkpt>
        <trkpt lat="29.389257" lon="104.617078"><ele>325.53625</ele><time>2026-07-15T03:31:52.000Z</time></trkpt>
        <trkpt lat="29.389217" lon="104.617156"><ele>325.927</ele><time>2026-07-15T03:31:52.000Z</time></trkpt>
        <trkpt lat="29.389176" lon="104.617234"><ele>326.39648</ele><time>2026-07-15T03:31:53.000Z</time></trkpt>
        <trkpt lat="29.389135" lon="104.617312"><ele>327.02426</ele><time>2026-07-15T03:31:54.000Z</time></trkpt>
        <trkpt lat="29.389094" lon="104.61739"><ele>327.16437</ele><time>2026-07-15T03:31:55.000Z</time></trkpt>
        <trkpt lat="29.389052" lon="104.617468"><ele>326.94315</ele><time>2026-07-15T03:31:56.000Z</time></trkpt>
        <trkpt lat="29.38901" lon="104.617547"><ele>326.9034</ele><time>2026-07-15T03:31:57.000Z</time></trkpt>
        <trkpt lat="29.388967" lon="104.617626"><ele>326.59546</ele><time>2026-07-15T03:31:58.000Z</time></trkpt>
        <trkpt lat="29.388923" lon="104.617705"><ele>327.0754</ele><time>2026-07-15T03:31:59.000Z</time></trkpt>
        <trkpt lat="29.388879" lon="104.617785"><ele>327.2463</ele><time>2026-07-15T03:32:00.000Z</time></trkpt>
        <trkpt lat="29.388835" lon="104.617865"><ele>327.2903</ele><time>2026-07-15T03:32:01.000Z</time></trkpt>
        <trkpt lat="29.388791" lon="104.617945"><ele>327.7451</ele><time>2026-07-15T03:32:02.000Z</time></trkpt>
        <trkpt lat="29.388748" lon="104.618026"><ele>327.6572</ele><time>2026-07-15T03:32:03.000Z</time></trkpt>
        <trkpt lat="29.388705" lon="104.618106"><ele>328.16177</ele><time>2026-07-15T03:32:04.000Z</time></trkpt>
        <trkpt lat="29.388662" lon="104.618183"><ele>328.2721</ele><time>2026-07-15T03:32:05.000Z</time></trkpt>
        <trkpt lat="29.388621" lon="104.618259"><ele>328.31882</ele><time>2026-07-15T03:32:06.000Z</time></trkpt>
        <trkpt lat="29.388581" lon="104.618331"><ele>328.3101</ele><time>2026-07-15T03:32:07.000Z</time></trkpt>
        <trkpt lat="29.388543" lon="104.618399"><ele>328.55908</ele><time>2026-07-15T03:32:08.000Z</time></trkpt>
        <trkpt lat="29.388507" lon="104.618464"><ele>329.05682</ele><time>2026-07-15T03:32:09.000Z</time></trkpt>
        <trkpt lat="29.388472" lon="104.618527"><ele>329.14554</ele><time>2026-07-15T03:32:10.000Z</time></trkpt>
        <trkpt lat="29.38844" lon="104.618586"><ele>329.02554</ele><time>2026-07-15T03:32:11.000Z</time></trkpt>
        <trkpt lat="29.388409" lon="104.618642"><ele>329.15366</ele><time>2026-07-15T03:32:12.000Z</time></trkpt>
        <trkpt lat="29.388381" lon="104.61869"><ele>329.58295</ele><time>2026-07-15T03:32:13.000Z</time></trkpt>
        <trkpt lat="29.388355" lon="104.61873"><ele>329.82797</ele><time>2026-07-15T03:32:14.000Z</time></trkpt>
        <trkpt lat="29.388332" lon="104.618762"><ele>329.93484</ele><time>2026-07-15T03:32:15.000Z</time></trkpt>
        <trkpt lat="29.388312" lon="104.618789"><ele>329.83664</ele><time>2026-07-15T03:32:16.000Z</time></trkpt>
        <trkpt lat="29.388292" lon="104.618805"><ele>329.87262</ele><time>2026-07-15T03:32:18.000Z</time></trkpt>
        <trkpt lat="29.388258" lon="104.618824"><ele>329.89813</ele><time>2026-07-15T03:32:19.000Z</time></trkpt>
        <trkpt lat="29.388224" lon="104.618836"><ele>329.9491</ele><time>2026-07-15T03:32:20.000Z</time></trkpt>
        <trkpt lat="29.388194" lon="104.61884"><ele>329.88376</ele><time>2026-07-15T03:32:21.000Z</time></trkpt>
        <trkpt lat="29.388172" lon="104.618834"><ele>329.97913</ele><time>2026-07-15T03:32:22.000Z</time></trkpt>
        <trkpt lat="29.388131" lon="104.618823"><ele>329.74475</ele><time>2026-07-15T03:32:25.000Z</time></trkpt>
        <trkpt lat="29.388163" lon="104.61874"><ele>330.82584</ele><time>2026-07-15T03:32:33.000Z</time></trkpt>
        <trkpt lat="29.388165" lon="104.618729"><ele>330.26984</ele><time>2026-07-15T03:32:34.000Z</time></trkpt>
        <trkpt lat="29.388161" lon="104.618722"><ele>330.32257</ele><time>2026-07-15T03:32:35.000Z</time></trkpt>
        <trkpt lat="29.388105" lon="104.61864"><ele>330.07562</ele><time>2026-07-15T03:32:41.000Z</time></trkpt>
        <trkpt lat="29.388093" lon="104.618626"><ele>330.30396</ele><time>2026-07-15T03:32:42.000Z</time></trkpt>
        <trkpt lat="29.388078" lon="104.618612"><ele>330.42203</ele><time>2026-07-15T03:32:43.000Z</time></trkpt>
        <trkpt lat="29.388027" lon="104.618567"><ele>331.30237</ele><time>2026-07-15T03:32:47.000Z</time></trkpt>
        <trkpt lat="29.388019" lon="104.618563"><ele>331.3076</ele><time>2026-07-15T03:32:48.000Z</time></trkpt>
        <trkpt lat="29.388003" lon="104.618553"><ele>331.6307</ele><time>2026-07-15T03:32:52.000Z</time></trkpt>
        <trkpt lat="29.387912" lon="104.618499"><ele>331.53323</ele><time>2026-07-15T03:32:58.000Z</time></trkpt>
        <trkpt lat="29.387912" lon="104.618499"><ele>331.5528</ele><time>2026-07-15T03:32:59.000Z</time></trkpt>
        <trkpt lat="29.387912" lon="104.618499"><ele>331.39136</ele><time>2026-07-15T03:33:00.000Z</time></trkpt>
        <trkpt lat="29.387743" lon="104.618388"><ele>330.4747</ele><time>2026-07-15T03:33:06.000Z</time></trkpt>
        <trkpt lat="29.387675" lon="104.618343"><ele>330.08408</ele><time>2026-07-15T03:33:07.000Z</time></trkpt>
        <trkpt lat="29.387592" lon="104.618287"><ele>329.8373</ele><time>2026-07-15T03:33:08.000Z</time></trkpt>
        <trkpt lat="29.387505" lon="104.618228"><ele>329.90836</ele><time>2026-07-15T03:33:09.000Z</time></trkpt>
        <trkpt lat="29.387417" lon="104.618166"><ele>329.61578</ele><time>2026-07-15T03:33:10.000Z</time></trkpt>
        <trkpt lat="29.387331" lon="104.618104"><ele>329.48297</ele><time>2026-07-15T03:33:11.000Z</time></trkpt>
        <trkpt lat="29.387246" lon="104.618042"><ele>329.48456</ele><time>2026-07-15T03:33:12.000Z</time></trkpt>
        <trkpt lat="29.387165" lon="104.61798"><ele>329.71005</ele><time>2026-07-15T03:33:13.000Z</time></trkpt>
        <trkpt lat="29.387086" lon="104.617917"><ele>328.8743</ele><time>2026-07-15T03:33:14.000Z</time></trkpt>
        <trkpt lat="29.387008" lon="104.617856"><ele>329.35574</ele><time>2026-07-15T03:33:15.000Z</time></trkpt>
        <trkpt lat="29.386931" lon="104.617796"><ele>330.35068</ele><time>2026-07-15T03:33:16.000Z</time></trkpt>
        <trkpt lat="29.386854" lon="104.617737"><ele>331.00528</ele><time>2026-07-15T03:33:17.000Z</time></trkpt>
        <trkpt lat="29.386778" lon="104.617677"><ele>331.64047</ele><time>2026-07-15T03:33:18.000Z</time></trkpt>
        <trkpt lat="29.386701" lon="104.617618"><ele>331.93246</ele><time>2026-07-15T03:33:19.000Z</time></trkpt>
        <trkpt lat="29.386625" lon="104.617558"><ele>331.62372</ele><time>2026-07-15T03:33:20.000Z</time></trkpt>
        <trkpt lat="29.386548" lon="104.617498"><ele>332.84845</ele><time>2026-07-15T03:33:21.000Z</time></trkpt>
        <trkpt lat="29.38647" lon="104.617437"><ele>334.25412</ele><time>2026-07-15T03:33:22.000Z</time></trkpt>
        <trkpt lat="29.386392" lon="104.617376"><ele>335.7509</ele><time>2026-07-15T03:33:23.000Z</time></trkpt>
        <trkpt lat="29.386313" lon="104.617314"><ele>336.99213</ele><time>2026-07-15T03:33:24.000Z</time></trkpt>
        <trkpt lat="29.386234" lon="104.617252"><ele>337.87686</ele><time>2026-07-15T03:33:25.000Z</time></trkpt>
        <trkpt lat="29.386156" lon="104.61719"><ele>338.90607</ele><time>2026-07-15T03:33:26.000Z</time></trkpt>
        <trkpt lat="29.386077" lon="104.617129"><ele>339.54565</ele><time>2026-07-15T03:33:27.000Z</time></trkpt>
        <trkpt lat="29.386" lon="104.617068"><ele>339.6444</ele><time>2026-07-15T03:33:28.000Z</time></trkpt>
        <trkpt lat="29.385924" lon="104.617008"><ele>339.8551</ele><time>2026-07-15T03:33:29.000Z</time></trkpt>
        <trkpt lat="29.385848" lon="104.616949"><ele>339.7511</ele><time>2026-07-15T03:33:30.000Z</time></trkpt>
        <trkpt lat="29.385775" lon="104.616891"><ele>339.3531</ele><time>2026-07-15T03:33:31.000Z</time></trkpt>
        <trkpt lat="29.385704" lon="104.616836"><ele>338.8293</ele><time>2026-07-15T03:33:32.000Z</time></trkpt>
        <trkpt lat="29.385637" lon="104.616783"><ele>338.67758</ele><time>2026-07-15T03:33:33.000Z</time></trkpt>
        <trkpt lat="29.385573" lon="104.616733"><ele>337.77747</ele><time>2026-07-15T03:33:34.000Z</time></trkpt>
        <trkpt lat="29.385512" lon="104.616686"><ele>337.3215</ele><time>2026-07-15T03:33:35.000Z</time></trkpt>
        <trkpt lat="29.385455" lon="104.616641"><ele>336.80298</ele><time>2026-07-15T03:33:36.000Z</time></trkpt>
        <trkpt lat="29.385401" lon="104.616598"><ele>336.54904</ele><time>2026-07-15T03:33:37.000Z</time></trkpt>
        <trkpt lat="29.38535" lon="104.616559"><ele>336.24103</ele><time>2026-07-15T03:33:38.000Z</time></trkpt>
        <trkpt lat="29.385303" lon="104.616522"><ele>335.91156</ele><time>2026-07-15T03:33:39.000Z</time></trkpt>
        <trkpt lat="29.38526" lon="104.616489"><ele>335.67923</ele><time>2026-07-15T03:33:40.000Z</time></trkpt>
        <trkpt lat="29.385222" lon="104.616459"><ele>335.60773</ele><time>2026-07-15T03:33:41.000Z</time></trkpt>
        <trkpt lat="29.385186" lon="104.616431"><ele>335.80316</ele><time>2026-07-15T03:33:42.000Z</time></trkpt>
        <trkpt lat="29.385151" lon="104.616402"><ele>335.83005</ele><time>2026-07-15T03:33:43.000Z</time></trkpt>
        <trkpt lat="29.385114" lon="104.616372"><ele>336.54483</ele><time>2026-07-15T03:33:44.000Z</time></trkpt>
        <trkpt lat="29.385075" lon="104.616341"><ele>337.20508</ele><time>2026-07-15T03:33:45.000Z</time></trkpt>
        <trkpt lat="29.385031" lon="104.616308"><ele>337.91815</ele><time>2026-07-15T03:33:46.000Z</time></trkpt>
        <trkpt lat="29.384986" lon="104.616277"><ele>338.66156</ele><time>2026-07-15T03:33:47.000Z</time></trkpt>
        <trkpt lat="29.384941" lon="104.616248"><ele>339.44592</ele><time>2026-07-15T03:33:48.000Z</time></trkpt>
        <trkpt lat="29.384897" lon="104.61622"><ele>340.17584</ele><time>2026-07-15T03:33:49.000Z</time></trkpt>
        <trkpt lat="29.384853" lon="104.616193"><ele>340.90073</ele><time>2026-07-15T03:33:50.000Z</time></trkpt>
        <trkpt lat="29.384813" lon="104.616168"><ele>341.7657</ele><time>2026-07-15T03:33:51.000Z</time></trkpt>
        <trkpt lat="29.384776" lon="104.616146"><ele>342.5126</ele><time>2026-07-15T03:33:52.000Z</time></trkpt>
        <trkpt lat="29.384747" lon="104.616128"><ele>343.0528</ele><time>2026-07-15T03:33:53.000Z</time></trkpt>
        <trkpt lat="29.384725" lon="104.616114"><ele>343.44547</ele><time>2026-07-15T03:33:54.000Z</time></trkpt>
        <trkpt lat="29.384708" lon="104.616085"><ele>344.55475</ele><time>2026-07-15T03:33:56.000Z</time></trkpt>
        <trkpt lat="29.384698" lon="104.616077"><ele>347.481</ele><time>2026-07-15T03:34:03.000Z</time></trkpt>
        <trkpt lat="29.384678" lon="104.616072"><ele>347.8403</ele><time>2026-07-15T03:34:04.000Z</time></trkpt>
        <trkpt lat="29.384615" lon="104.616075"><ele>350.68192</ele><time>2026-07-15T03:34:11.000Z</time></trkpt>
        <trkpt lat="29.384594" lon="104.616092"><ele>351.00742</ele><time>2026-07-15T03:34:12.000Z</time></trkpt>
        <trkpt lat="29.384465" lon="104.616203"><ele>351.2669</ele><time>2026-07-15T03:34:13.000Z</time></trkpt>
        <trkpt lat="29.384448" lon="104.616218"><ele>351.36453</ele><time>2026-07-15T03:34:14.000Z</time></trkpt>
        <trkpt lat="29.384446" lon="104.616221"><ele>351.2131</ele><time>2026-07-15T03:34:15.000Z</time></trkpt>
        <trkpt lat="29.384402" lon="104.616305"><ele>349.81873</ele><time>2026-07-15T03:34:20.000Z</time></trkpt>
        <trkpt lat="29.38431" lon="104.616477"><ele>349.63522</ele><time>2026-07-15T03:34:21.000Z</time></trkpt>
        <trkpt lat="29.384297" lon="104.616501"><ele>349.53195</ele><time>2026-07-15T03:34:23.000Z</time></trkpt>
        <trkpt lat="29.384296" lon="104.616504"><ele>349.19775</ele><time>2026-07-15T03:34:24.000Z</time></trkpt>
        <trkpt lat="29.384253" lon="104.616579"><ele>347.1951</ele><time>2026-07-15T03:34:33.000Z</time></trkpt>
        <trkpt lat="29.384234" lon="104.616612"><ele>346.88116</ele><time>2026-07-15T03:34:34.000Z</time></trkpt>
        <trkpt lat="29.384208" lon="104.616658"><ele>346.71777</ele><time>2026-07-15T03:34:35.000Z</time></trkpt>
        <trkpt lat="29.384177" lon="104.616712"><ele>346.3491</ele><time>2026-07-15T03:34:36.000Z</time></trkpt>
        <trkpt lat="29.384143" lon="104.616774"><ele>346.16202</ele><time>2026-07-15T03:34:37.000Z</time></trkpt>
        <trkpt lat="29.384106" lon="104.616843"><ele>345.97098</ele><time>2026-07-15T03:34:38.000Z</time></trkpt>
        <trkpt lat="29.384066" lon="104.616918"><ele>345.8067</ele><time>2026-07-15T03:34:39.000Z</time></trkpt>
        <trkpt lat="29.384023" lon="104.616999"><ele>345.70776</ele><time>2026-07-15T03:34:40.000Z</time></trkpt>
        <trkpt lat="29.383978" lon="104.617083"><ele>345.62915</ele><time>2026-07-15T03:34:41.000Z</time></trkpt>
        <trkpt lat="29.383931" lon="104.61717"><ele>345.6521</ele><time>2026-07-15T03:34:42.000Z</time></trkpt>
        <trkpt lat="29.383884" lon="104.61726"><ele>345.63425</ele><time>2026-07-15T03:34:43.000Z</time></trkpt>
        <trkpt lat="29.383836" lon="104.617349"><ele>345.40332</ele><time>2026-07-15T03:34:44.000Z</time></trkpt>
        <trkpt lat="29.38379" lon="104.617437"><ele>344.96793</ele><time>2026-07-15T03:34:45.000Z</time></trkpt>
        <trkpt lat="29.383746" lon="104.617522"><ele>344.4577</ele><time>2026-07-15T03:34:46.000Z</time></trkpt>
        <trkpt lat="29.383704" lon="104.617602"><ele>343.9821</ele><time>2026-07-15T03:34:47.000Z</time></trkpt>
        <trkpt lat="29.383666" lon="104.617674"><ele>343.45557</ele><time>2026-07-15T03:34:48.000Z</time></trkpt>
        <trkpt lat="29.383633" lon="104.617737"><ele>342.78067</ele><time>2026-07-15T03:34:49.000Z</time></trkpt>
        <trkpt lat="29.383621" lon="104.617759"><ele>342.355</ele><time>2026-07-15T03:34:50.000Z</time></trkpt>
        <trkpt lat="29.383619" lon="104.617764"><ele>341.21313</ele><time>2026-07-15T03:34:53.000Z</time></trkpt>
        <trkpt lat="29.383544" lon="104.617918"><ele>340.5969</ele><time>2026-07-15T03:34:58.000Z</time></trkpt>
        <trkpt lat="29.383457" lon="104.618097"><ele>340.64017</ele><time>2026-07-15T03:34:59.000Z</time></trkpt>
        <trkpt lat="29.383446" lon="104.618121"><ele>340.83237</ele><time>2026-07-15T03:35:00.000Z</time></trkpt>
        <trkpt lat="29.383444" lon="104.618125"><ele>341.06503</ele><time>2026-07-15T03:35:01.000Z</time></trkpt>
        <trkpt lat="29.383404" lon="104.6182"><ele>342.43506</ele><time>2026-07-15T03:35:10.000Z</time></trkpt>
        <trkpt lat="29.383396" lon="104.618216"><ele>341.84357</ele><time>2026-07-15T03:35:11.000Z</time></trkpt>
        <trkpt lat="29.383388" lon="104.618231"><ele>341.17044</ele><time>2026-07-15T03:35:12.000Z</time></trkpt>
        <trkpt lat="29.383352" lon="104.618299"><ele>342.7787</ele><time>2026-07-15T03:35:16.000Z</time></trkpt>
        <trkpt lat="29.383341" lon="104.618321"><ele>343.26376</ele><time>2026-07-15T03:35:17.000Z</time></trkpt>
        <trkpt lat="29.383325" lon="104.61835"><ele>343.21945</ele><time>2026-07-15T03:35:18.000Z</time></trkpt>
        <trkpt lat="29.383307" lon="104.618385"><ele>343.37344</ele><time>2026-07-15T03:35:19.000Z</time></trkpt>
        <trkpt lat="29.383287" lon="104.618423"><ele>343.6171</ele><time>2026-07-15T03:35:20.000Z</time></trkpt>
        <trkpt lat="29.383267" lon="104.618462"><ele>343.6965</ele><time>2026-07-15T03:35:21.000Z</time></trkpt>
        <trkpt lat="29.383247" lon="104.618499"><ele>344.38577</ele><time>2026-07-15T03:35:22.000Z</time></trkpt>
        <trkpt lat="29.38323" lon="104.618532"><ele>344.93686</ele><time>2026-07-15T03:35:23.000Z</time></trkpt>
        <trkpt lat="29.383214" lon="104.618561"><ele>345.154</ele><time>2026-07-15T03:35:24.000Z</time></trkpt>
        <trkpt lat="29.383201" lon="104.618587"><ele>345.32272</ele><time>2026-07-15T03:35:25.000Z</time></trkpt>
        <trkpt lat="29.383173" lon="104.618639"><ele>346.40363</ele><time>2026-07-15T03:35:27.000Z</time></trkpt>
        <trkpt lat="29.383157" lon="104.61867"><ele>346.89536</ele><time>2026-07-15T03:35:28.000Z</time></trkpt>
        <trkpt lat="29.383139" lon="104.618705"><ele>347.31982</ele><time>2026-07-15T03:35:29.000Z</time></trkpt>
        <trkpt lat="29.383118" lon="104.618744"><ele>347.26855</ele><time>2026-07-15T03:35:30.000Z</time></trkpt>
        <trkpt lat="29.38307" lon="104.618835"><ele>346.726</ele><time>2026-07-15T03:35:32.000Z</time></trkpt>
        <trkpt lat="29.383044" lon="104.618885"><ele>346.25183</ele><time>2026-07-15T03:35:33.000Z</time></trkpt>
        <trkpt lat="29.383016" lon="104.618937"><ele>345.7192</ele><time>2026-07-15T03:35:34.000Z</time></trkpt>
        <trkpt lat="29.382989" lon="104.618988"><ele>345.27017</ele><time>2026-07-15T03:35:35.000Z</time></trkpt>
        <trkpt lat="29.382963" lon="104.619038"><ele>345.24194</ele><time>2026-07-15T03:35:36.000Z</time></trkpt>
        <trkpt lat="29.382938" lon="104.619086"><ele>345.30664</ele><time>2026-07-15T03:35:37.000Z</time></trkpt>
        <trkpt lat="29.382912" lon="104.619135"><ele>345.08597</ele><time>2026-07-15T03:35:38.000Z</time></trkpt>
        <trkpt lat="29.382885" lon="104.619187"><ele>344.95377</ele><time>2026-07-15T03:35:39.000Z</time></trkpt>
        <trkpt lat="29.382856" lon="104.619241"><ele>344.6683</ele><time>2026-07-15T03:35:40.000Z</time></trkpt>
        <trkpt lat="29.382826" lon="104.619298"><ele>344.6484</ele><time>2026-07-15T03:35:41.000Z</time></trkpt>
        <trkpt lat="29.382794" lon="104.61936"><ele>344.16818</ele><time>2026-07-15T03:35:42.000Z</time></trkpt>
        <trkpt lat="29.38276" lon="104.619425"><ele>343.506</ele><time>2026-07-15T03:35:43.000Z</time></trkpt>
        <trkpt lat="29.382723" lon="104.619495"><ele>342.7498</ele><time>2026-07-15T03:35:44.000Z</time></trkpt>
        <trkpt lat="29.382683" lon="104.61957"><ele>341.8691</ele><time>2026-07-15T03:35:45.000Z</time></trkpt>
        <trkpt lat="29.382642" lon="104.619647"><ele>340.9977</ele><time>2026-07-15T03:35:46.000Z</time></trkpt>
        <trkpt lat="29.382599" lon="104.619729"><ele>340.71347</ele><time>2026-07-15T03:35:47.000Z</time></trkpt>
        <trkpt lat="29.382554" lon="104.619813"><ele>340.7196</ele><time>2026-07-15T03:35:48.000Z</time></trkpt>
        <trkpt lat="29.382508" lon="104.6199"><ele>340.29553</ele><time>2026-07-15T03:35:49.000Z</time></trkpt>
        <trkpt lat="29.38246" lon="104.619989"><ele>339.99915</ele><time>2026-07-15T03:35:50.000Z</time></trkpt>
        <trkpt lat="29.382413" lon="104.620076"><ele>339.5883</ele><time>2026-07-15T03:35:51.000Z</time></trkpt>
        <trkpt lat="29.382368" lon="104.620161"><ele>339.5895</ele><time>2026-07-15T03:35:52.000Z</time></trkpt>
        <trkpt lat="29.382325" lon="104.62024"><ele>339.38983</ele><time>2026-07-15T03:35:53.000Z</time></trkpt>
        <trkpt lat="29.382286" lon="104.620313"><ele>339.02515</ele><time>2026-07-15T03:35:54.000Z</time></trkpt>
        <trkpt lat="29.382251" lon="104.620378"><ele>338.95596</ele><time>2026-07-15T03:35:55.000Z</time></trkpt>
        <trkpt lat="29.382223" lon="104.620431"><ele>338.77863</ele><time>2026-07-15T03:35:56.000Z</time></trkpt>
        <trkpt lat="29.382201" lon="104.620472"><ele>338.75778</ele><time>2026-07-15T03:35:57.000Z</time></trkpt>
        <trkpt lat="29.382184" lon="104.620503"><ele>338.6389</ele><time>2026-07-15T03:35:58.000Z</time></trkpt>
        <trkpt lat="29.382172" lon="104.620524"><ele>338.90207</ele><time>2026-07-15T03:35:59.000Z</time></trkpt>
        <trkpt lat="29.38213" lon="104.620602"><ele>336.63287</ele><time>2026-07-15T03:36:21.000Z</time></trkpt>
        <trkpt lat="29.382104" lon="104.62065"><ele>336.62753</ele><time>2026-07-15T03:36:22.000Z</time></trkpt>
        <trkpt lat="29.382072" lon="104.62071"><ele>336.6051</ele><time>2026-07-15T03:36:23.000Z</time></trkpt>
        <trkpt lat="29.382037" lon="104.620774"><ele>336.69492</ele><time>2026-07-15T03:36:24.000Z</time></trkpt>
        <trkpt lat="29.382" lon="104.620843"><ele>335.76175</ele><time>2026-07-15T03:36:25.000Z</time></trkpt>
        <trkpt lat="29.381961" lon="104.620914"><ele>335.53244</ele><time>2026-07-15T03:36:26.000Z</time></trkpt>
        <trkpt lat="29.38192" lon="104.620987"><ele>336.37085</ele><time>2026-07-15T03:36:27.000Z</time></trkpt>
        <trkpt lat="29.381879" lon="104.621062"><ele>336.34625</ele><time>2026-07-15T03:36:28.000Z</time></trkpt>
        <trkpt lat="29.381838" lon="104.621137"><ele>335.41794</ele><time>2026-07-15T03:36:29.000Z</time></trkpt>
        <trkpt lat="29.381798" lon="104.621211"><ele>334.63516</ele><time>2026-07-15T03:36:30.000Z</time></trkpt>
        <trkpt lat="29.381759" lon="104.621284"><ele>334.79904</ele><time>2026-07-15T03:36:31.000Z</time></trkpt>
        <trkpt lat="29.381721" lon="104.621355"><ele>333.70218</ele><time>2026-07-15T03:36:33.000Z</time></trkpt>
        <trkpt lat="29.381686" lon="104.621421"><ele>333.4862</ele><time>2026-07-15T03:36:34.000Z</time></trkpt>
        <trkpt lat="29.381653" lon="104.621475"><ele>330.9253</ele><time>2026-07-15T03:36:35.000Z</time></trkpt>
        <trkpt lat="29.381624" lon="104.621517"><ele>330.47882</ele><time>2026-07-15T03:36:36.000Z</time></trkpt>
        <trkpt lat="29.381601" lon="104.621548"><ele>330.38284</ele><time>2026-07-15T03:36:37.000Z</time></trkpt>
        <trkpt lat="29.381582" lon="104.621569"><ele>330.71915</ele><time>2026-07-15T03:36:38.000Z</time></trkpt>
        <trkpt lat="29.381558" lon="104.621588"><ele>329.93677</ele><time>2026-07-15T03:36:40.000Z</time></trkpt>
        <trkpt lat="29.38171" lon="104.621471"><ele>328.14218</ele><time>2026-07-15T03:36:49.000Z</time></trkpt>
        <trkpt lat="29.381801" lon="104.621301"><ele>327.8736</ele><time>2026-07-15T03:36:50.000Z</time></trkpt>
        <trkpt lat="29.381813" lon="104.621278"><ele>327.8308</ele><time>2026-07-15T03:36:51.000Z</time></trkpt>
        <trkpt lat="29.381815" lon="104.621274"><ele>328.71997</ele><time>2026-07-15T03:36:52.000Z</time></trkpt>
        <trkpt lat="29.381902" lon="104.621122"><ele>329.07138</ele><time>2026-07-15T03:36:57.000Z</time></trkpt>
        <trkpt lat="29.38195" lon="104.621036"><ele>329.41095</ele><time>2026-07-15T03:36:58.000Z</time></trkpt>
        <trkpt lat="29.382015" lon="104.620921"><ele>329.5585</ele><time>2026-07-15T03:36:59.000Z</time></trkpt>
        <trkpt lat="29.382088" lon="104.620792"><ele>329.76865</ele><time>2026-07-15T03:37:00.000Z</time></trkpt>
        <trkpt lat="29.382164" lon="104.620656"><ele>329.6825</ele><time>2026-07-15T03:37:01.000Z</time></trkpt>
        <trkpt lat="29.382239" lon="104.620519"><ele>329.68793</ele><time>2026-07-15T03:37:02.000Z</time></trkpt>
        <trkpt lat="29.382312" lon="104.620386"><ele>329.87445</ele><time>2026-07-15T03:37:03.000Z</time></trkpt>
        <trkpt lat="29.382382" lon="104.620261"><ele>330.16547</ele><time>2026-07-15T03:37:04.000Z</time></trkpt>
        <trkpt lat="29.382445" lon="104.620146"><ele>330.0372</ele><time>2026-07-15T03:37:05.000Z</time></trkpt>
        <trkpt lat="29.382502" lon="104.62004"><ele>329.1059</ele><time>2026-07-15T03:37:06.000Z</time></trkpt>
        <trkpt lat="29.382553" lon="104.619943"><ele>329.66214</ele><time>2026-07-15T03:37:07.000Z</time></trkpt>
        <trkpt lat="29.382599" lon="104.619857"><ele>330.41226</ele><time>2026-07-15T03:37:08.000Z</time></trkpt>
        <trkpt lat="29.382641" lon="104.619779"><ele>330.76938</ele><time>2026-07-15T03:37:09.000Z</time></trkpt>
        <trkpt lat="29.382678" lon="104.619709"><ele>331.12323</ele><time>2026-07-15T03:37:10.000Z</time></trkpt>
        <trkpt lat="29.382713" lon="104.619645"><ele>331.34073</ele><time>2026-07-15T03:37:11.000Z</time></trkpt>
        <trkpt lat="29.382744" lon="104.619585"><ele>331.73828</ele><time>2026-07-15T03:37:12.000Z</time></trkpt>
        <trkpt lat="29.382773" lon="104.61953"><ele>332.40512</ele><time>2026-07-15T03:37:13.000Z</time></trkpt>
        <trkpt lat="29.382799" lon="104.619481"><ele>333.35022</ele><time>2026-07-15T03:37:14.000Z</time></trkpt>
        <trkpt lat="29.382819" lon="104.619443"><ele>333.90207</ele><time>2026-07-15T03:37:15.000Z</time></trkpt>
        <trkpt lat="29.382834" lon="104.61942"><ele>333.80872</ele><time>2026-07-15T03:37:16.000Z</time></trkpt>
        <trkpt lat="29.382865" lon="104.619366"><ele>336.72906</ele><time>2026-07-15T03:37:26.000Z</time></trkpt>
        <trkpt lat="29.38291" lon="104.619285"><ele>337.89206</ele><time>2026-07-15T03:37:28.000Z</time></trkpt>
        <trkpt lat="29.38294" lon="104.61923"><ele>338.63147</ele><time>2026-07-15T03:37:29.000Z</time></trkpt>
        <trkpt lat="29.382973" lon="104.619166"><ele>339.2201</ele><time>2026-07-15T03:37:30.000Z</time></trkpt>
        <trkpt lat="29.38301" lon="104.619092"><ele>339.48038</ele><time>2026-07-15T03:37:31.000Z</time></trkpt>
        <trkpt lat="29.383049" lon="104.619015"><ele>340.6214</ele><time>2026-07-15T03:37:32.000Z</time></trkpt>
        <trkpt lat="29.383089" lon="104.618934"><ele>341.207</ele><time>2026-07-15T03:37:33.000Z</time></trkpt>
        <trkpt lat="29.383131" lon="104.61885"><ele>342.5285</ele><time>2026-07-15T03:37:34.000Z</time></trkpt>
        <trkpt lat="29.383174" lon="104.618764"><ele>343.2173</ele><time>2026-07-15T03:37:35.000Z</time></trkpt>
        <trkpt lat="29.383219" lon="104.618676"><ele>343.26062</ele><time>2026-07-15T03:37:36.000Z</time></trkpt>
        <trkpt lat="29.383266" lon="104.618586"><ele>343.86072</ele><time>2026-07-15T03:37:37.000Z</time></trkpt>
        <trkpt lat="29.383312" lon="104.618497"><ele>344.21176</ele><time>2026-07-15T03:37:38.000Z</time></trkpt>
        <trkpt lat="29.383359" lon="104.618406"><ele>345.1392</ele><time>2026-07-15T03:37:39.000Z</time></trkpt>
        <trkpt lat="29.383407" lon="104.618314"><ele>345.22964</ele><time>2026-07-15T03:37:40.000Z</time></trkpt>
        <trkpt lat="29.383455" lon="104.618222"><ele>344.63403</ele><time>2026-07-15T03:37:41.000Z</time></trkpt>
        <trkpt lat="29.383502" lon="104.618131"><ele>344.57996</ele><time>2026-07-15T03:37:42.000Z</time></trkpt>
        <trkpt lat="29.38355" lon="104.618042"><ele>344.29977</ele><time>2026-07-15T03:37:43.000Z</time></trkpt>
        <trkpt lat="29.383596" lon="104.617954"><ele>343.40894</ele><time>2026-07-15T03:37:44.000Z</time></trkpt>
        <trkpt lat="29.383643" lon="104.617866"><ele>343.62497</ele><time>2026-07-15T03:37:45.000Z</time></trkpt>
        <trkpt lat="29.383689" lon="104.61778"><ele>343.22693</ele><time>2026-07-15T03:37:46.000Z</time></trkpt>
        <trkpt lat="29.383735" lon="104.617695"><ele>343.14615</ele><time>2026-07-15T03:37:47.000Z</time></trkpt>
        <trkpt lat="29.38378" lon="104.617609"><ele>343.18622</ele><time>2026-07-15T03:37:48.000Z</time></trkpt>
        <trkpt lat="29.383826" lon="104.617522"><ele>343.46436</ele><time>2026-07-15T03:37:49.000Z</time></trkpt>
        <trkpt lat="29.383871" lon="104.617436"><ele>343.87573</ele><time>2026-07-15T03:37:50.000Z</time></trkpt>
        <trkpt lat="29.383917" lon="104.617349"><ele>343.8908</ele><time>2026-07-15T03:37:51.000Z</time></trkpt>
        <trkpt lat="29.383962" lon="104.617261"><ele>344.3586</ele><time>2026-07-15T03:37:52.000Z</time></trkpt>
        <trkpt lat="29.384008" lon="104.617173"><ele>344.90533</ele><time>2026-07-15T03:37:53.000Z</time></trkpt>
        <trkpt lat="29.384055" lon="104.617085"><ele>344.47217</ele><time>2026-07-15T03:37:54.000Z</time></trkpt>
        <trkpt lat="29.384102" lon="104.616999"><ele>344.29324</ele><time>2026-07-15T03:37:55.000Z</time></trkpt>
        <trkpt lat="29.38415" lon="104.616911"><ele>343.93143</ele><time>2026-07-15T03:37:56.000Z</time></trkpt>
        <trkpt lat="29.384197" lon="104.616824"><ele>344.37784</ele><time>2026-07-15T03:37:57.000Z</time></trkpt>
        <trkpt lat="29.384242" lon="104.616737"><ele>344.34122</ele><time>2026-07-15T03:37:58.000Z</time></trkpt>
        <trkpt lat="29.384287" lon="104.61665"><ele>344.43393</ele><time>2026-07-15T03:37:59.000Z</time></trkpt>
        <trkpt lat="29.38433" lon="104.616565"><ele>344.71817</ele><time>2026-07-15T03:38:00.000Z</time></trkpt>
        <trkpt lat="29.384373" lon="104.616481"><ele>345.4811</ele><time>2026-07-15T03:38:01.000Z</time></trkpt>
        <trkpt lat="29.384415" lon="104.616398"><ele>345.6479</ele><time>2026-07-15T03:38:02.000Z</time></trkpt>
        <trkpt lat="29.384456" lon="104.61632"><ele>345.11615</ele><time>2026-07-15T03:38:03.000Z</time></trkpt>
        <trkpt lat="29.384494" lon="104.616245"><ele>345.55927</ele><time>2026-07-15T03:38:04.000Z</time></trkpt>
        <trkpt lat="29.38453" lon="104.616174"><ele>345.74048</ele><time>2026-07-15T03:38:05.000Z</time></trkpt>
        <trkpt lat="29.384566" lon="104.616105"><ele>345.44748</ele><time>2026-07-15T03:38:06.000Z</time></trkpt>
        <trkpt lat="29.384599" lon="104.616042"><ele>345.30118</ele><time>2026-07-15T03:38:07.000Z</time></trkpt>
        <trkpt lat="29.384628" lon="104.615985"><ele>345.61502</ele><time>2026-07-15T03:38:08.000Z</time></trkpt>
        <trkpt lat="29.384639" lon="104.615929"><ele>345.3622</ele><time>2026-07-15T03:38:09.000Z</time></trkpt>
        <trkpt lat="29.384632" lon="104.615881"><ele>344.8839</ele><time>2026-07-15T03:38:10.000Z</time></trkpt>
        <trkpt lat="29.384613" lon="104.615837"><ele>344.7052</ele><time>2026-07-15T03:38:10.000Z</time></trkpt>
        <trkpt lat="29.384583" lon="104.615796"><ele>344.54425</ele><time>2026-07-15T03:38:11.000Z</time></trkpt>
        <trkpt lat="29.384547" lon="104.615759"><ele>344.32443</ele><time>2026-07-15T03:38:12.000Z</time></trkpt>
        <trkpt lat="29.384508" lon="104.615755"><ele>344.01468</ele><time>2026-07-15T03:38:13.000Z</time></trkpt>
        <trkpt lat="29.384301" lon="104.61574"><ele>344.9545</ele><time>2026-07-15T03:38:15.000Z</time></trkpt>
        <trkpt lat="29.384292" lon="104.615739"><ele>344.73703</ele><time>2026-07-15T03:38:16.000Z</time></trkpt>
        <trkpt lat="29.384291" lon="104.615738"><ele>345.26456</ele><time>2026-07-15T03:38:17.000Z</time></trkpt>
        <trkpt lat="29.384154" lon="104.615634"><ele>347.12857</ele><time>2026-07-15T03:38:23.000Z</time></trkpt>
        <trkpt lat="29.3841" lon="104.61559"><ele>346.96628</ele><time>2026-07-15T03:38:24.000Z</time></trkpt>
        <trkpt lat="29.384034" lon="104.615535"><ele>346.92474</ele><time>2026-07-15T03:38:25.000Z</time></trkpt>
        <trkpt lat="29.383966" lon="104.615477"><ele>346.25726</ele><time>2026-07-15T03:38:26.000Z</time></trkpt>
        <trkpt lat="29.383899" lon="104.615423"><ele>345.48016</ele><time>2026-07-15T03:38:27.000Z</time></trkpt>
        <trkpt lat="29.383833" lon="104.615372"><ele>345.04947</ele><time>2026-07-15T03:38:28.000Z</time></trkpt>
        <trkpt lat="29.383766" lon="104.61532"><ele>344.39517</ele><time>2026-07-15T03:38:29.000Z</time></trkpt>
        <trkpt lat="29.3837" lon="104.615268"><ele>343.60123</ele><time>2026-07-15T03:38:30.000Z</time></trkpt>
        <trkpt lat="29.383633" lon="104.615216"><ele>343.091</ele><time>2026-07-15T03:38:31.000Z</time></trkpt>
        <trkpt lat="29.383565" lon="104.615163"><ele>342.48978</ele><time>2026-07-15T03:38:32.000Z</time></trkpt>
        <trkpt lat="29.383496" lon="104.61511"><ele>342.15182</ele><time>2026-07-15T03:38:33.000Z</time></trkpt>
        <trkpt lat="29.383427" lon="104.615056"><ele>341.7115</ele><time>2026-07-15T03:38:34.000Z</time></trkpt>
        <trkpt lat="29.383356" lon="104.615002"><ele>341.15598</ele><time>2026-07-15T03:38:35.000Z</time></trkpt>
        <trkpt lat="29.383284" lon="104.614946"><ele>341.29092</ele><time>2026-07-15T03:38:36.000Z</time></trkpt>
        <trkpt lat="29.38321" lon="104.614888"><ele>341.04813</ele><time>2026-07-15T03:38:37.000Z</time></trkpt>
        <trkpt lat="29.383134" lon="104.614831"><ele>341.2712</ele><time>2026-07-15T03:38:38.000Z</time></trkpt>
        <trkpt lat="29.383055" lon="104.614773"><ele>341.36063</ele><time>2026-07-15T03:38:39.000Z</time></trkpt>
        <trkpt lat="29.382975" lon="104.614712"><ele>341.40817</ele><time>2026-07-15T03:38:40.000Z</time></trkpt>
        <trkpt lat="29.382894" lon="104.614651"><ele>341.88052</ele><time>2026-07-15T03:38:41.000Z</time></trkpt>
        <trkpt lat="29.382811" lon="104.614589"><ele>342.1078</ele><time>2026-07-15T03:38:42.000Z</time></trkpt>
        <trkpt lat="29.382727" lon="104.614527"><ele>342.7856</ele><time>2026-07-15T03:38:43.000Z</time></trkpt>
        <trkpt lat="29.382642" lon="104.614464"><ele>343.89078</ele><time>2026-07-15T03:38:44.000Z</time></trkpt>
        <trkpt lat="29.382556" lon="104.6144"><ele>344.15176</ele><time>2026-07-15T03:38:45.000Z</time></trkpt>
        <trkpt lat="29.38247" lon="104.614335"><ele>345.1169</ele><time>2026-07-15T03:38:46.000Z</time></trkpt>
        <trkpt lat="29.382384" lon="104.61427"><ele>346.20416</ele><time>2026-07-15T03:38:48.000Z</time></trkpt>
        <trkpt lat="29.382297" lon="104.614204"><ele>347.25525</ele><time>2026-07-15T03:38:49.000Z</time></trkpt>
        <trkpt lat="29.38221" lon="104.614136"><ele>347.78656</ele><time>2026-07-15T03:38:50.000Z</time></trkpt>
        <trkpt lat="29.382124" lon="104.614067"><ele>347.9006</ele><time>2026-07-15T03:38:51.000Z</time></trkpt>
        <trkpt lat="29.382039" lon="104.613998"><ele>347.76553</ele><time>2026-07-15T03:38:52.000Z</time></trkpt>
        <trkpt lat="29.381953" lon="104.61393"><ele>347.71182</ele><time>2026-07-15T03:38:53.000Z</time></trkpt>
        <trkpt lat="29.381867" lon="104.613862"><ele>347.84476</ele><time>2026-07-15T03:38:54.000Z</time></trkpt>
        <trkpt lat="29.38178" lon="104.613793"><ele>347.68414</ele><time>2026-07-15T03:38:55.000Z</time></trkpt>
        <trkpt lat="29.381694" lon="104.613724"><ele>347.98245</ele><time>2026-07-15T03:38:56.000Z</time></trkpt>
        <trkpt lat="29.381608" lon="104.613656"><ele>347.98392</ele><time>2026-07-15T03:38:57.000Z</time></trkpt>
        <trkpt lat="29.381524" lon="104.613589"><ele>348.00607</ele><time>2026-07-15T03:38:58.000Z</time></trkpt>
        <trkpt lat="29.381442" lon="104.613524"><ele>347.85013</ele><time>2026-07-15T03:38:59.000Z</time></trkpt>
        <trkpt lat="29.381362" lon="104.613459"><ele>347.98096</ele><time>2026-07-15T03:39:00.000Z</time></trkpt>
        <trkpt lat="29.381284" lon="104.613395"><ele>348.21216</ele><time>2026-07-15T03:39:01.000Z</time></trkpt>
        <trkpt lat="29.381207" lon="104.613332"><ele>348.00446</ele><time>2026-07-15T03:39:02.000Z</time></trkpt>
        <trkpt lat="29.381132" lon="104.613271"><ele>348.11987</ele><time>2026-07-15T03:39:03.000Z</time></trkpt>
        <trkpt lat="29.381061" lon="104.613212"><ele>347.8914</ele><time>2026-07-15T03:39:04.000Z</time></trkpt>
        <trkpt lat="29.380993" lon="104.613155"><ele>347.77505</ele><time>2026-07-15T03:39:05.000Z</time></trkpt>
        <trkpt lat="29.380929" lon="104.613102"><ele>347.61017</ele><time>2026-07-15T03:39:06.000Z</time></trkpt>
        <trkpt lat="29.380869" lon="104.613052"><ele>347.61835</ele><time>2026-07-15T03:39:07.000Z</time></trkpt>
        <trkpt lat="29.380813" lon="104.613004"><ele>347.7305</ele><time>2026-07-15T03:39:08.000Z</time></trkpt>
        <trkpt lat="29.38076" lon="104.61296"><ele>347.59546</ele><time>2026-07-15T03:39:09.000Z</time></trkpt>
        <trkpt lat="29.380709" lon="104.612918"><ele>347.4364</ele><time>2026-07-15T03:39:10.000Z</time></trkpt>
        <trkpt lat="29.380661" lon="104.612879"><ele>347.71597</ele><time>2026-07-15T03:39:11.000Z</time></trkpt>
        <trkpt lat="29.380614" lon="104.612843"><ele>347.96716</ele><time>2026-07-15T03:39:12.000Z</time></trkpt>
        <trkpt lat="29.380571" lon="104.61281"><ele>345.77045</ele><time>2026-07-15T03:39:13.000Z</time></trkpt>
        <trkpt lat="29.380532" lon="104.61278"><ele>344.18082</ele><time>2026-07-15T03:39:14.000Z</time></trkpt>
        <trkpt lat="29.380497" lon="104.612754"><ele>342.97656</ele><time>2026-07-15T03:39:15.000Z</time></trkpt>
        <trkpt lat="29.380467" lon="104.612731"><ele>342.10983</ele><time>2026-07-15T03:39:16.000Z</time></trkpt>
        <trkpt lat="29.380441" lon="104.612712"><ele>341.59335</ele><time>2026-07-15T03:39:17.000Z</time></trkpt>
        <trkpt lat="29.380419" lon="104.612694"><ele>341.2591</ele><time>2026-07-15T03:39:18.000Z</time></trkpt>
        <trkpt lat="29.38038" lon="104.612665"><ele>340.92206</ele><time>2026-07-15T03:39:20.000Z</time></trkpt>
        <trkpt lat="29.380362" lon="104.612651"><ele>341.79956</ele><time>2026-07-15T03:39:21.000Z</time></trkpt>
        <trkpt lat="29.380342" lon="104.612635"><ele>341.21646</ele><time>2026-07-15T03:39:22.000Z</time></trkpt>
        <trkpt lat="29.380303" lon="104.612596"><ele>341.10385</ele><time>2026-07-15T03:39:24.000Z</time></trkpt>
        <trkpt lat="29.380283" lon="104.612567"><ele>341.091</ele><time>2026-07-15T03:39:25.000Z</time></trkpt>
        <trkpt lat="29.380265" lon="104.61253"><ele>341.21753</ele><time>2026-07-15T03:39:26.000Z</time></trkpt>
        <trkpt lat="29.38023" lon="104.612442"><ele>341.18976</ele><time>2026-07-15T03:39:28.000Z</time></trkpt>
        <trkpt lat="29.380215" lon="104.612396"><ele>341.23495</ele><time>2026-07-15T03:39:29.000Z</time></trkpt>
        <trkpt lat="29.380218" lon="104.612352"><ele>341.60956</ele><time>2026-07-15T03:39:30.000Z</time></trkpt>
        <trkpt lat="29.380235" lon="104.612297"><ele>341.9326</ele><time>2026-07-15T03:39:31.000Z</time></trkpt>
        <trkpt lat="29.380258" lon="104.612236"><ele>342.49283</ele><time>2026-07-15T03:39:32.000Z</time></trkpt>
        <trkpt lat="29.380285" lon="104.61217"><ele>343.0283</ele><time>2026-07-15T03:39:33.000Z</time></trkpt>
        <trkpt lat="29.380318" lon="104.612103"><ele>343.7701</ele><time>2026-07-15T03:39:34.000Z</time></trkpt>
        <trkpt lat="29.380357" lon="104.612035"><ele>344.78732</ele><time>2026-07-15T03:39:35.000Z</time></trkpt>
        <trkpt lat="29.3804" lon="104.611965"><ele>345.15082</ele><time>2026-07-15T03:39:36.000Z</time></trkpt>
        <trkpt lat="29.380446" lon="104.611893"><ele>345.55075</ele><time>2026-07-15T03:39:37.000Z</time></trkpt>
        <trkpt lat="29.380495" lon="104.611817"><ele>345.45435</ele><time>2026-07-15T03:39:38.000Z</time></trkpt>
        <trkpt lat="29.380546" lon="104.611739"><ele>345.45435</ele><time>2026-07-15T03:39:39.000Z</time></trkpt>
        <trkpt lat="29.380598" lon="104.611658"><ele>345.49756</ele><time>2026-07-15T03:39:40.000Z</time></trkpt>
        <trkpt lat="29.380652" lon="104.611574"><ele>345.36447</ele><time>2026-07-15T03:39:41.000Z</time></trkpt>
        <trkpt lat="29.380705" lon="104.611488"><ele>345.29483</ele><time>2026-07-15T03:39:42.000Z</time></trkpt>
        <trkpt lat="29.380759" lon="104.6114"><ele>345.18698</ele><time>2026-07-15T03:39:43.000Z</time></trkpt>
        <trkpt lat="29.380812" lon="104.611311"><ele>347.01587</ele><time>2026-07-15T03:39:44.000Z</time></trkpt>
        <trkpt lat="29.380865" lon="104.61122"><ele>348.1568</ele><time>2026-07-15T03:39:45.000Z</time></trkpt>
        <trkpt lat="29.380917" lon="104.611129"><ele>348.66815</ele><time>2026-07-15T03:39:46.000Z</time></trkpt>
        <trkpt lat="29.38097" lon="104.611036"><ele>348.7153</ele><time>2026-07-15T03:39:47.000Z</time></trkpt>
        <trkpt lat="29.381022" lon="104.610942"><ele>348.2536</ele><time>2026-07-15T03:39:48.000Z</time></trkpt>
        <trkpt lat="29.381075" lon="104.610847"><ele>347.62158</ele><time>2026-07-15T03:39:49.000Z</time></trkpt>
        <trkpt lat="29.381128" lon="104.610753"><ele>346.8516</ele><time>2026-07-15T03:39:50.000Z</time></trkpt>
        <trkpt lat="29.38118" lon="104.610658"><ele>346.2357</ele><time>2026-07-15T03:39:51.000Z</time></trkpt>
        <trkpt lat="29.381232" lon="104.610565"><ele>346.0004</ele><time>2026-07-15T03:39:52.000Z</time></trkpt>
        <trkpt lat="29.381282" lon="104.610474"><ele>345.4394</ele><time>2026-07-15T03:39:53.000Z</time></trkpt>
        <trkpt lat="29.381331" lon="104.610385"><ele>345.0312</ele><time>2026-07-15T03:39:54.000Z</time></trkpt>
        <trkpt lat="29.381378" lon="104.610299"><ele>344.61133</ele><time>2026-07-15T03:39:55.000Z</time></trkpt>
        <trkpt lat="29.381423" lon="104.610217"><ele>344.2741</ele><time>2026-07-15T03:39:56.000Z</time></trkpt>
        <trkpt lat="29.381466" lon="104.610138"><ele>344.07495</ele><time>2026-07-15T03:39:57.000Z</time></trkpt>
        <trkpt lat="29.381507" lon="104.610064"><ele>344.26288</ele><time>2026-07-15T03:39:58.000Z</time></trkpt>
        <trkpt lat="29.381545" lon="104.609995"><ele>344.3023</ele><time>2026-07-15T03:39:59.000Z</time></trkpt>
        <trkpt lat="29.38158" lon="104.609933"><ele>344.44284</ele><time>2026-07-15T03:40:00.000Z</time></trkpt>
        <trkpt lat="29.381611" lon="104.609877"><ele>344.34076</ele><time>2026-07-15T03:40:01.000Z</time></trkpt>
        <trkpt lat="29.381638" lon="104.609829"><ele>344.2308</ele><time>2026-07-15T03:40:02.000Z</time></trkpt>
        <trkpt lat="29.381663" lon="104.609785"><ele>343.8792</ele><time>2026-07-15T03:40:03.000Z</time></trkpt>
        <trkpt lat="29.381685" lon="104.609746"><ele>343.94556</ele><time>2026-07-15T03:40:04.000Z</time></trkpt>
        <trkpt lat="29.381706" lon="104.609711"><ele>344.25308</ele><time>2026-07-15T03:40:05.000Z</time></trkpt>
        <trkpt lat="29.381725" lon="104.609679"><ele>344.39844</ele><time>2026-07-15T03:40:06.000Z</time></trkpt>
        <trkpt lat="29.381744" lon="104.609648"><ele>344.79333</ele><time>2026-07-15T03:40:07.000Z</time></trkpt>
        <trkpt lat="29.381761" lon="104.60962"><ele>345.01956</ele><time>2026-07-15T03:40:08.000Z</time></trkpt>
        <trkpt lat="29.381775" lon="104.609591"><ele>345.08258</ele><time>2026-07-15T03:40:09.000Z</time></trkpt>
        <trkpt lat="29.381797" lon="104.609541"><ele>345.7613</ele><time>2026-07-15T03:40:11.000Z</time></trkpt>
        <trkpt lat="29.381795" lon="104.609523"><ele>346.36334</ele><time>2026-07-15T03:40:12.000Z</time></trkpt>
        <trkpt lat="29.381778" lon="104.609503"><ele>346.99155</ele><time>2026-07-15T03:40:14.000Z</time></trkpt>
        <trkpt lat="29.38173" lon="104.609458"><ele>346.70483</ele><time>2026-07-15T03:40:16.000Z</time></trkpt>
        <trkpt lat="29.381704" lon="104.609441"><ele>346.81445</ele><time>2026-07-15T03:40:17.000Z</time></trkpt>
        <trkpt lat="29.381678" lon="104.609431"><ele>346.6109</ele><time>2026-07-15T03:40:18.000Z</time></trkpt>
        <trkpt lat="29.381637" lon="104.609423"><ele>346.64212</ele><time>2026-07-15T03:40:20.000Z</time></trkpt>
        <trkpt lat="29.381612" lon="104.609427"><ele>346.3525</ele><time>2026-07-15T03:40:22.000Z</time></trkpt>
        <trkpt lat="29.381603" lon="104.609442"><ele>346.28525</ele><time>2026-07-15T03:40:25.000Z</time></trkpt>
        <trkpt lat="29.38159" lon="104.609471"><ele>346.28525</ele><time>2026-07-15T03:40:35.000Z</time></trkpt>
        <trkpt lat="29.38159" lon="104.609471"><ele>346.28525</ele><time>2026-07-15T03:40:36.000Z</time></trkpt>
        <trkpt lat="29.381591" lon="104.609472"><ele>346.28525</ele><time>2026-07-15T03:40:37.000Z</time></trkpt>
        <trkpt lat="29.381554" lon="104.609443"><ele>345.61484</ele><time>2026-07-15T03:41:04.000Z</time></trkpt>
        <trkpt lat="29.381485" lon="104.609397"><ele>343.5793</ele><time>2026-07-15T03:41:11.000Z</time></trkpt>
        <trkpt lat="29.381283" lon="104.609261"><ele>342.99847</ele><time>2026-07-15T03:41:12.000Z</time></trkpt>
        <trkpt lat="29.381265" lon="104.609249"><ele>342.802</ele><time>2026-07-15T03:41:13.000Z</time></trkpt>
        <trkpt lat="29.381263" lon="104.609248"><ele>342.2532</ele><time>2026-07-15T03:41:14.000Z</time></trkpt>
        <trkpt lat="29.381105" lon="104.60914"><ele>339.30457</ele><time>2026-07-15T03:41:20.000Z</time></trkpt>
        <trkpt lat="29.381037" lon="104.609094"><ele>338.81955</ele><time>2026-07-15T03:41:21.000Z</time></trkpt>
        <trkpt lat="29.380952" lon="104.609036"><ele>338.48572</ele><time>2026-07-15T03:41:22.000Z</time></trkpt>
        <trkpt lat="29.38086" lon="104.608972"><ele>338.33884</ele><time>2026-07-15T03:41:23.000Z</time></trkpt>
        <trkpt lat="29.380765" lon="104.608907"><ele>338.0625</ele><time>2026-07-15T03:41:24.000Z</time></trkpt>
        <trkpt lat="29.380671" lon="104.608842"><ele>338.15793</ele><time>2026-07-15T03:41:25.000Z</time></trkpt>
        <trkpt lat="29.380578" lon="104.608778"><ele>338.1438</ele><time>2026-07-15T03:41:26.000Z</time></trkpt>
        <trkpt lat="29.380487" lon="104.608715"><ele>338.08484</ele><time>2026-07-15T03:41:27.000Z</time></trkpt>
        <trkpt lat="29.380399" lon="104.608654"><ele>338.09854</ele><time>2026-07-15T03:41:28.000Z</time></trkpt>
        <trkpt lat="29.380313" lon="104.608595"><ele>338.1301</ele><time>2026-07-15T03:41:29.000Z</time></trkpt>
        <trkpt lat="29.380228" lon="104.608537"><ele>338.32516</ele><time>2026-07-15T03:41:30.000Z</time></trkpt>
        <trkpt lat="29.380147" lon="104.608481"><ele>338.37225</ele><time>2026-07-15T03:41:31.000Z</time></trkpt>
        <trkpt lat="29.380067" lon="104.608426"><ele>338.55603</ele><time>2026-07-15T03:41:32.000Z</time></trkpt>
        <trkpt lat="29.37999" lon="104.608374"><ele>338.93375</ele><time>2026-07-15T03:41:33.000Z</time></trkpt>
        <trkpt lat="29.379915" lon="104.608322"><ele>339.2793</ele><time>2026-07-15T03:41:34.000Z</time></trkpt>
        <trkpt lat="29.379842" lon="104.608273"><ele>339.27396</ele><time>2026-07-15T03:41:35.000Z</time></trkpt>
        <trkpt lat="29.379772" lon="104.608224"><ele>339.4087</ele><time>2026-07-15T03:41:36.000Z</time></trkpt>
        <trkpt lat="29.379705" lon="104.608177"><ele>339.26578</ele><time>2026-07-15T03:41:37.000Z</time></trkpt>
        <trkpt lat="29.37964" lon="104.608131"><ele>339.09033</ele><time>2026-07-15T03:41:38.000Z</time></trkpt>
        <trkpt lat="29.379577" lon="104.608087"><ele>338.9581</ele><time>2026-07-15T03:41:39.000Z</time></trkpt>
        <trkpt lat="29.379516" lon="104.608044"><ele>338.60605</ele><time>2026-07-15T03:41:40.000Z</time></trkpt>
        <trkpt lat="29.379457" lon="104.608003"><ele>338.22525</ele><time>2026-07-15T03:41:41.000Z</time></trkpt>
        <trkpt lat="29.3794" lon="104.607963"><ele>338.17444</ele><time>2026-07-15T03:41:42.000Z</time></trkpt>
        <trkpt lat="29.379345" lon="104.607924"><ele>337.95303</ele><time>2026-07-15T03:41:43.000Z</time></trkpt>
        <trkpt lat="29.379292" lon="104.607886"><ele>337.72888</ele><time>2026-07-15T03:41:44.000Z</time></trkpt>
        <trkpt lat="29.379241" lon="104.60785"><ele>337.46216</ele><time>2026-07-15T03:41:45.000Z</time></trkpt>
        <trkpt lat="29.379191" lon="104.607816"><ele>337.24484</ele><time>2026-07-15T03:41:46.000Z</time></trkpt>
        <trkpt lat="29.379143" lon="104.607782"><ele>336.7804</ele><time>2026-07-15T03:41:47.000Z</time></trkpt>
        <trkpt lat="29.379098" lon="104.607749"><ele>336.50433</ele><time>2026-07-15T03:41:48.000Z</time></trkpt>
        <trkpt lat="29.379054" lon="104.607716"><ele>336.171</ele><time>2026-07-15T03:41:49.000Z</time></trkpt>
        <trkpt lat="29.379011" lon="104.607683"><ele>336.22104</ele><time>2026-07-15T03:41:50.000Z</time></trkpt>
        <trkpt lat="29.378969" lon="104.60765"><ele>336.30286</ele><time>2026-07-15T03:41:51.000Z</time></trkpt>
        <trkpt lat="29.378928" lon="104.607618"><ele>336.43515</ele><time>2026-07-15T03:41:52.000Z</time></trkpt>
        <trkpt lat="29.378887" lon="104.607587"><ele>336.38928</ele><time>2026-07-15T03:41:53.000Z</time></trkpt>
        <trkpt lat="29.378845" lon="104.607555"><ele>336.7035</ele><time>2026-07-15T03:41:54.000Z</time></trkpt>
        <trkpt lat="29.378804" lon="104.607524"><ele>337.07373</ele><time>2026-07-15T03:41:55.000Z</time></trkpt>
        <trkpt lat="29.378761" lon="104.607492"><ele>337.51282</ele><time>2026-07-15T03:41:56.000Z</time></trkpt>
        <trkpt lat="29.378716" lon="104.607458"><ele>337.89044</ele><time>2026-07-15T03:41:57.000Z</time></trkpt>
        <trkpt lat="29.378667" lon="104.607423"><ele>338.4305</ele><time>2026-07-15T03:41:58.000Z</time></trkpt>
        <trkpt lat="29.378616" lon="104.607385"><ele>339.2277</ele><time>2026-07-15T03:41:59.000Z</time></trkpt>
        <trkpt lat="29.378561" lon="104.607346"><ele>339.8344</ele><time>2026-07-15T03:42:00.000Z</time></trkpt>
        <trkpt lat="29.378502" lon="104.607303"><ele>340.7951</ele><time>2026-07-15T03:42:01.000Z</time></trkpt>
        <trkpt lat="29.37844" lon="104.607258"><ele>341.57428</ele><time>2026-07-15T03:42:02.000Z</time></trkpt>
        <trkpt lat="29.378375" lon="104.607211"><ele>342.34488</ele><time>2026-07-15T03:42:03.000Z</time></trkpt>
        <trkpt lat="29.378306" lon="104.607162"><ele>343.25162</ele><time>2026-07-15T03:42:04.000Z</time></trkpt>
        <trkpt lat="29.378233" lon="104.60711"><ele>344.48865</ele><time>2026-07-15T03:42:05.000Z</time></trkpt>
        <trkpt lat="29.378158" lon="104.607056"><ele>345.541</ele><time>2026-07-15T03:42:06.000Z</time></trkpt>
        <trkpt lat="29.378081" lon="104.607001"><ele>346.73093</ele><time>2026-07-15T03:42:07.000Z</time></trkpt>
        <trkpt lat="29.378005" lon="104.606946"><ele>347.82547</ele><time>2026-07-15T03:42:08.000Z</time></trkpt>
        <trkpt lat="29.37793" lon="104.606892"><ele>348.945</ele><time>2026-07-15T03:42:09.000Z</time></trkpt>
        <trkpt lat="29.377857" lon="104.60684"><ele>349.2021</ele><time>2026-07-15T03:42:10.000Z</time></trkpt>
        <trkpt lat="29.377788" lon="104.606791"><ele>349.70325</ele><time>2026-07-15T03:42:11.000Z</time></trkpt>
        <trkpt lat="29.377724" lon="104.606744"><ele>349.82785</ele><time>2026-07-15T03:42:12.000Z</time></trkpt>
        <trkpt lat="29.377663" lon="104.606701"><ele>349.88123</ele><time>2026-07-15T03:42:13.000Z</time></trkpt>
        <trkpt lat="29.377605" lon="104.606661"><ele>350.02997</ele><time>2026-07-15T03:42:14.000Z</time></trkpt>
        <trkpt lat="29.377552" lon="104.606626"><ele>349.8915</ele><time>2026-07-15T03:42:15.000Z</time></trkpt>
        <trkpt lat="29.377505" lon="104.606596"><ele>349.6695</ele><time>2026-07-15T03:42:16.000Z</time></trkpt>
        <trkpt lat="29.377466" lon="104.606569"><ele>349.6072</ele><time>2026-07-15T03:42:17.000Z</time></trkpt>
        <trkpt lat="29.377434" lon="104.606547"><ele>349.246</ele><time>2026-07-15T03:42:18.000Z</time></trkpt>
        <trkpt lat="29.37742" lon="104.606523"><ele>348.9187</ele><time>2026-07-15T03:42:19.000Z</time></trkpt>
        <trkpt lat="29.377521" lon="104.606669"><ele>348.4074</ele><time>2026-07-15T03:42:26.000Z</time></trkpt>
        <trkpt lat="29.377559" lon="104.606708"><ele>348.8536</ele><time>2026-07-15T03:42:27.000Z</time></trkpt>
        <trkpt lat="29.377609" lon="104.606754"><ele>349.04678</ele><time>2026-07-15T03:42:28.000Z</time></trkpt>
        <trkpt lat="29.377667" lon="104.606801"><ele>349.43924</ele><time>2026-07-15T03:42:29.000Z</time></trkpt>
        <trkpt lat="29.377729" lon="104.606851"><ele>349.8382</ele><time>2026-07-15T03:42:30.000Z</time></trkpt>
        <trkpt lat="29.377795" lon="104.606903"><ele>350.3051</ele><time>2026-07-15T03:42:31.000Z</time></trkpt>
        <trkpt lat="29.37786" lon="104.606953"><ele>350.53958</ele><time>2026-07-15T03:42:32.000Z</time></trkpt>
        <trkpt lat="29.377921" lon="104.607"><ele>350.80447</ele><time>2026-07-15T03:42:33.000Z</time></trkpt>
        <trkpt lat="29.377975" lon="104.60704"><ele>350.70297</ele><time>2026-07-15T03:42:34.000Z</time></trkpt>
        <trkpt lat="29.378017" lon="104.607071"><ele>350.78027</ele><time>2026-07-15T03:42:35.000Z</time></trkpt>
        <trkpt lat="29.37805" lon="104.607094"><ele>351.08832</ele><time>2026-07-15T03:42:36.000Z</time></trkpt>
        <trkpt lat="29.378092" lon="104.607122"><ele>351.19415</ele><time>2026-07-15T03:42:38.000Z</time></trkpt>
        <trkpt lat="29.378101" lon="104.607129"><ele>350.89487</ele><time>2026-07-15T03:42:39.000Z</time></trkpt>
        <trkpt lat="29.377968" lon="104.607025"><ele>351.2424</ele><time>2026-07-15T03:42:49.000Z</time></trkpt>
        <trkpt lat="29.37795" lon="104.607011"><ele>351.4014</ele><time>2026-07-15T03:42:50.000Z</time></trkpt>
        <trkpt lat="29.377931" lon="104.606997"><ele>351.51965</ele><time>2026-07-15T03:42:51.000Z</time></trkpt>
        <trkpt lat="29.37789" lon="104.606966"><ele>351.83102</ele><time>2026-07-15T03:42:54.000Z</time></trkpt>
        <trkpt lat="29.377889" lon="104.606953"><ele>352.42007</ele><time>2026-07-15T03:42:57.000Z</time></trkpt>
        <trkpt lat="29.377892" lon="104.606933"><ele>353.72168</ele><time>2026-07-15T03:43:05.000Z</time></trkpt>
        <trkpt lat="29.377892" lon="104.606933"><ele>353.59592</ele><time>2026-07-15T03:43:06.000Z</time></trkpt>
        <trkpt lat="29.377893" lon="104.606935"><ele>353.45578</ele><time>2026-07-15T03:43:07.000Z</time></trkpt>
        <trkpt lat="29.377898" lon="104.606949"><ele>353.25583</ele><time>2026-07-15T03:43:13.000Z</time></trkpt>
        <trkpt lat="29.377899" lon="104.606952"><ele>353.26782</ele><time>2026-07-15T03:43:14.000Z</time></trkpt>
        <trkpt lat="29.377899" lon="104.606955"><ele>353.2458</ele><time>2026-07-15T03:43:15.000Z</time></trkpt>
        <trkpt lat="29.377898" lon="104.606966"><ele>353.56116</ele><time>2026-07-15T03:43:21.000Z</time></trkpt>
        <trkpt lat="29.377897" lon="104.606967"><ele>352.57504</ele><time>2026-07-15T03:43:25.000Z</time></trkpt>
        <trkpt lat="29.377897" lon="104.606968"><ele>352.91895</ele><time>2026-07-15T03:43:27.000Z</time></trkpt>
        <trkpt lat="29.377907" lon="104.60698"><ele>353.8042</ele><time>2026-07-15T03:43:51.000Z</time></trkpt>
        <trkpt lat="29.377922" lon="104.606993"><ele>353.77237</ele><time>2026-07-15T03:43:52.000Z</time></trkpt>
        <trkpt lat="29.377946" lon="104.60701"><ele>353.54608</ele><time>2026-07-15T03:43:53.000Z</time></trkpt>
        <trkpt lat="29.37803" lon="104.60707"><ele>351.26038</ele><time>2026-07-15T03:44:00.000Z</time></trkpt>
        <trkpt lat="29.378079" lon="104.607105"><ele>350.73767</ele><time>2026-07-15T03:44:01.000Z</time></trkpt>
        <trkpt lat="29.378149" lon="104.607156"><ele>350.15955</ele><time>2026-07-15T03:44:02.000Z</time></trkpt>
        <trkpt lat="29.378233" lon="104.607215"><ele>349.3943</ele><time>2026-07-15T03:44:03.000Z</time></trkpt>
        <trkpt lat="29.378325" lon="104.607282"><ele>348.4477</ele><time>2026-07-15T03:44:04.000Z</time></trkpt>
        <trkpt lat="29.378421" lon="104.607351"><ele>347.1026</ele><time>2026-07-15T03:44:05.000Z</time></trkpt>
        <trkpt lat="29.378519" lon="104.607421"><ele>346.03058</ele><time>2026-07-15T03:44:06.000Z</time></trkpt>
        <trkpt lat="29.378617" lon="104.607491"><ele>344.96518</ele><time>2026-07-15T03:44:07.000Z</time></trkpt>
        <trkpt lat="29.378714" lon="104.60756"><ele>343.8064</ele><time>2026-07-15T03:44:08.000Z</time></trkpt>
        <trkpt lat="29.37881" lon="104.607627"><ele>342.7011</ele><time>2026-07-15T03:44:09.000Z</time></trkpt>
        <trkpt lat="29.378904" lon="104.607693"><ele>341.69977</ele><time>2026-07-15T03:44:10.000Z</time></trkpt>
        <trkpt lat="29.378996" lon="104.607758"><ele>340.28177</ele><time>2026-07-15T03:44:11.000Z</time></trkpt>
        <trkpt lat="29.379086" lon="104.607822"><ele>339.27545</ele><time>2026-07-15T03:44:12.000Z</time></trkpt>
        <trkpt lat="29.379176" lon="104.607887"><ele>338.5227</ele><time>2026-07-15T03:44:13.000Z</time></trkpt>
        <trkpt lat="29.379265" lon="104.607952"><ele>338.10556</ele><time>2026-07-15T03:44:14.000Z</time></trkpt>
        <trkpt lat="29.379355" lon="104.608017"><ele>337.79404</ele><time>2026-07-15T03:44:15.000Z</time></trkpt>
        <trkpt lat="29.379446" lon="104.608083"><ele>337.56503</ele><time>2026-07-15T03:44:16.000Z</time></trkpt>
        <trkpt lat="29.379538" lon="104.60815"><ele>337.68213</ele><time>2026-07-15T03:44:17.000Z</time></trkpt>
        <trkpt lat="29.379632" lon="104.608217"><ele>337.84082</ele><time>2026-07-15T03:44:18.000Z</time></trkpt>
        <trkpt lat="29.379727" lon="104.608285"><ele>338.1601</ele><time>2026-07-15T03:44:19.000Z</time></trkpt>
        <trkpt lat="29.379823" lon="104.608353"><ele>338.55838</ele><time>2026-07-15T03:44:20.000Z</time></trkpt>
        <trkpt lat="29.379918" lon="104.60842"><ele>339.0956</ele><time>2026-07-15T03:44:21.000Z</time></trkpt>
        <trkpt lat="29.380013" lon="104.608486"><ele>339.82922</ele><time>2026-07-15T03:44:22.000Z</time></trkpt>
        <trkpt lat="29.380106" lon="104.608552"><ele>340.26382</ele><time>2026-07-15T03:44:23.000Z</time></trkpt>
        <trkpt lat="29.380199" lon="104.608617"><ele>340.3789</ele><time>2026-07-15T03:44:24.000Z</time></trkpt>
        <trkpt lat="29.38029" lon="104.608681"><ele>340.4018</ele><time>2026-07-15T03:44:25.000Z</time></trkpt>
        <trkpt lat="29.380382" lon="104.608744"><ele>340.01514</ele><time>2026-07-15T03:44:26.000Z</time></trkpt>
        <trkpt lat="29.380473" lon="104.608807"><ele>339.95154</ele><time>2026-07-15T03:44:27.000Z</time></trkpt>
        <trkpt lat="29.380563" lon="104.60887"><ele>339.76862</ele><time>2026-07-15T03:44:28.000Z</time></trkpt>
        <trkpt lat="29.380652" lon="104.608931"><ele>339.74976</ele><time>2026-07-15T03:44:29.000Z</time></trkpt>
        <trkpt lat="29.380739" lon="104.608991"><ele>339.41507</ele><time>2026-07-15T03:44:30.000Z</time></trkpt>
        <trkpt lat="29.380825" lon="104.609049"><ele>339.20877</ele><time>2026-07-15T03:44:31.000Z</time></trkpt>
        <trkpt lat="29.380907" lon="104.609104"><ele>339.29385</ele><time>2026-07-15T03:44:32.000Z</time></trkpt>
        <trkpt lat="29.380986" lon="104.609155"><ele>339.0401</ele><time>2026-07-15T03:44:33.000Z</time></trkpt>
        <trkpt lat="29.381064" lon="104.609204"><ele>338.96982</ele><time>2026-07-15T03:44:34.000Z</time></trkpt>
        <trkpt lat="29.38114" lon="104.609253"><ele>338.8571</ele><time>2026-07-15T03:44:35.000Z</time></trkpt>
        <trkpt lat="29.381214" lon="104.609301"><ele>338.7888</ele><time>2026-07-15T03:44:36.000Z</time></trkpt>
        <trkpt lat="29.381286" lon="104.609348"><ele>338.73276</ele><time>2026-07-15T03:44:37.000Z</time></trkpt>
        <trkpt lat="29.381355" lon="104.609393"><ele>338.78665</ele><time>2026-07-15T03:44:38.000Z</time></trkpt>
        <trkpt lat="29.381417" lon="104.609436"><ele>338.87848</ele><time>2026-07-15T03:44:39.000Z</time></trkpt>
        <trkpt lat="29.381474" lon="104.609476"><ele>339.14078</ele><time>2026-07-15T03:44:40.000Z</time></trkpt>
        <trkpt lat="29.381526" lon="104.609513"><ele>339.39236</ele><time>2026-07-15T03:44:41.000Z</time></trkpt>
        <trkpt lat="29.381574" lon="104.609547"><ele>339.66653</ele><time>2026-07-15T03:44:42.000Z</time></trkpt>
        <trkpt lat="29.381619" lon="104.609578"><ele>340.33948</ele><time>2026-07-15T03:44:43.000Z</time></trkpt>
        <trkpt lat="29.381663" lon="104.609607"><ele>341.06058</ele><time>2026-07-15T03:44:44.000Z</time></trkpt>
        <trkpt lat="29.381705" lon="104.609635"><ele>341.9973</ele><time>2026-07-15T03:44:45.000Z</time></trkpt>
        <trkpt lat="29.381746" lon="104.609661"><ele>342.69345</ele><time>2026-07-15T03:44:46.000Z</time></trkpt>
        <trkpt lat="29.381786" lon="104.609686"><ele>343.4246</ele><time>2026-07-15T03:44:47.000Z</time></trkpt>
        <trkpt lat="29.381825" lon="104.609711"><ele>343.92526</ele><time>2026-07-15T03:44:48.000Z</time></trkpt>
        <trkpt lat="29.381863" lon="104.609736"><ele>344.4386</ele><time>2026-07-15T03:44:49.000Z</time></trkpt>
        <trkpt lat="29.381898" lon="104.60976"><ele>345.08328</ele><time>2026-07-15T03:44:50.000Z</time></trkpt>
        <trkpt lat="29.381959" lon="104.609802"><ele>345.83545</ele><time>2026-07-15T03:44:52.000Z</time></trkpt>
        <trkpt lat="29.381981" lon="104.609817"><ele>346.08792</ele><time>2026-07-15T03:44:53.000Z</time></trkpt>
        <trkpt lat="29.381995" lon="104.609825"><ele>345.98926</ele><time>2026-07-15T03:44:54.000Z</time></trkpt>
        <trkpt lat="29.382056" lon="104.609863"><ele>344.75665</ele><time>2026-07-15T03:45:13.000Z</time></trkpt>
        <trkpt lat="29.382085" lon="104.609884"><ele>344.50708</ele><time>2026-07-15T03:45:14.000Z</time></trkpt>
        <trkpt lat="29.382204" lon="104.609969"><ele>344.02066</ele><time>2026-07-15T03:45:15.000Z</time></trkpt>
        <trkpt lat="29.382221" lon="104.60998"><ele>343.42795</ele><time>2026-07-15T03:45:16.000Z</time></trkpt>
        <trkpt lat="29.382223" lon="104.609982"><ele>342.65158</ele><time>2026-07-15T03:45:17.000Z</time></trkpt>
        <trkpt lat="29.382373" lon="104.610092"><ele>340.14816</ele><time>2026-07-15T03:45:22.000Z</time></trkpt>
        <trkpt lat="29.382449" lon="104.610147"><ele>340.01804</ele><time>2026-07-15T03:45:23.000Z</time></trkpt>
        <trkpt lat="29.382547" lon="104.610217"><ele>339.52692</ele><time>2026-07-15T03:45:24.000Z</time></trkpt>
        <trkpt lat="29.382653" lon="104.610293"><ele>338.80057</ele><time>2026-07-15T03:45:25.000Z</time></trkpt>
        <trkpt lat="29.382762" lon="104.610371"><ele>338.71997</ele><time>2026-07-15T03:45:26.000Z</time></trkpt>
        <trkpt lat="29.38287" lon="104.610449"><ele>338.34793</ele><time>2026-07-15T03:45:27.000Z</time></trkpt>
        <trkpt lat="29.382973" lon="104.610524"><ele>338.14856</ele><time>2026-07-15T03:45:28.000Z</time></trkpt>
        <trkpt lat="29.38307" lon="104.610596"><ele>337.9804</ele><time>2026-07-15T03:45:29.000Z</time></trkpt>
        <trkpt lat="29.383162" lon="104.610664"><ele>337.862</ele><time>2026-07-15T03:45:30.000Z</time></trkpt>
        <trkpt lat="29.383248" lon="104.610727"><ele>337.9771</ele><time>2026-07-15T03:45:31.000Z</time></trkpt>
        <trkpt lat="29.383328" lon="104.610786"><ele>337.83636</ele><time>2026-07-15T03:45:32.000Z</time></trkpt>
        <trkpt lat="29.383405" lon="104.61084"><ele>337.9072</ele><time>2026-07-15T03:45:33.000Z</time></trkpt>
        <trkpt lat="29.383478" lon="104.61089"><ele>337.52444</ele><time>2026-07-15T03:45:34.000Z</time></trkpt>
        <trkpt lat="29.383548" lon="104.610938"><ele>337.54578</ele><time>2026-07-15T03:45:35.000Z</time></trkpt>
        <trkpt lat="29.383617" lon="104.610984"><ele>337.09836</ele><time>2026-07-15T03:45:36.000Z</time></trkpt>
        <trkpt lat="29.383683" lon="104.611029"><ele>336.52908</ele><time>2026-07-15T03:45:37.000Z</time></trkpt>
        <trkpt lat="29.383747" lon="104.611073"><ele>336.26093</ele><time>2026-07-15T03:45:38.000Z</time></trkpt>
        <trkpt lat="29.383811" lon="104.611117"><ele>336.338</ele><time>2026-07-15T03:45:39.000Z</time></trkpt>
        <trkpt lat="29.383875" lon="104.611162"><ele>336.13895</ele><time>2026-07-15T03:45:40.000Z</time></trkpt>
        <trkpt lat="29.383939" lon="104.611206"><ele>335.97482</ele><time>2026-07-15T03:45:41.000Z</time></trkpt>
        <trkpt lat="29.384003" lon="104.61125"><ele>335.91858</ele><time>2026-07-15T03:45:42.000Z</time></trkpt>
        <trkpt lat="29.384063" lon="104.611292"><ele>336.1847</ele><time>2026-07-15T03:45:43.000Z</time></trkpt>
        <trkpt lat="29.384115" lon="104.61133"><ele>336.462</ele><time>2026-07-15T03:45:44.000Z</time></trkpt>
        <trkpt lat="29.384157" lon="104.61136"><ele>336.90732</ele><time>2026-07-15T03:45:45.000Z</time></trkpt>
        <trkpt lat="29.384187" lon="104.611382"><ele>337.07892</ele><time>2026-07-15T03:45:46.000Z</time></trkpt>
        <trkpt lat="29.384205" lon="104.611396"><ele>337.31586</ele><time>2026-07-15T03:45:47.000Z</time></trkpt>
        <trkpt lat="29.384241" lon="104.611424"><ele>337.39783</ele><time>2026-07-15T03:45:58.000Z</time></trkpt>
        <trkpt lat="29.384268" lon="104.611444"><ele>338.00052</ele><time>2026-07-15T03:45:59.000Z</time></trkpt>
        <trkpt lat="29.384348" lon="104.611502"><ele>339.62952</ele><time>2026-07-15T03:46:01.000Z</time></trkpt>
        <trkpt lat="29.384397" lon="104.611538"><ele>340.67508</ele><time>2026-07-15T03:46:02.000Z</time></trkpt>
        <trkpt lat="29.384452" lon="104.611577"><ele>341.65594</ele><time>2026-07-15T03:46:03.000Z</time></trkpt>
        <trkpt lat="29.384513" lon="104.611619"><ele>342.64392</ele><time>2026-07-15T03:46:04.000Z</time></trkpt>
        <trkpt lat="29.384579" lon="104.611665"><ele>343.91202</ele><time>2026-07-15T03:46:05.000Z</time></trkpt>
        <trkpt lat="29.384649" lon="104.611714"><ele>344.12982</ele><time>2026-07-15T03:46:06.000Z</time></trkpt>
        <trkpt lat="29.384723" lon="104.611765"><ele>344.2133</ele><time>2026-07-15T03:46:07.000Z</time></trkpt>
        <trkpt lat="29.384801" lon="104.611819"><ele>344.34695</ele><time>2026-07-15T03:46:08.000Z</time></trkpt>
        <trkpt lat="29.384882" lon="104.611875"><ele>344.42194</ele><time>2026-07-15T03:46:09.000Z</time></trkpt>
        <trkpt lat="29.384966" lon="104.611933"><ele>344.68463</ele><time>2026-07-15T03:46:10.000Z</time></trkpt>
        <trkpt lat="29.385052" lon="104.611993"><ele>346.04767</ele><time>2026-07-15T03:46:11.000Z</time></trkpt>
        <trkpt lat="29.38514" lon="104.612055"><ele>347.12326</ele><time>2026-07-15T03:46:12.000Z</time></trkpt>
        <trkpt lat="29.385229" lon="104.612117"><ele>347.65002</ele><time>2026-07-15T03:46:13.000Z</time></trkpt>
        <trkpt lat="29.385318" lon="104.61218"><ele>347.70905</ele><time>2026-07-15T03:46:14.000Z</time></trkpt>
        <trkpt lat="29.385408" lon="104.612242"><ele>347.61954</ele><time>2026-07-15T03:46:15.000Z</time></trkpt>
        <trkpt lat="29.385497" lon="104.612304"><ele>347.15106</ele><time>2026-07-15T03:46:16.000Z</time></trkpt>
        <trkpt lat="29.385584" lon="104.612365"><ele>346.72397</ele><time>2026-07-15T03:46:17.000Z</time></trkpt>
        <trkpt lat="29.385668" lon="104.612423"><ele>345.99802</ele><time>2026-07-15T03:46:18.000Z</time></trkpt>
        <trkpt lat="29.385748" lon="104.612478"><ele>345.2584</ele><time>2026-07-15T03:46:19.000Z</time></trkpt>
        <trkpt lat="29.385821" lon="104.612528"><ele>344.32858</ele><time>2026-07-15T03:46:20.000Z</time></trkpt>
        <trkpt lat="29.385885" lon="104.612571"><ele>344.08655</ele><time>2026-07-15T03:46:21.000Z</time></trkpt>
        <trkpt lat="29.385942" lon="104.612609"><ele>343.05167</ele><time>2026-07-15T03:46:22.000Z</time></trkpt>
        <trkpt lat="29.385991" lon="104.612642"><ele>342.0578</ele><time>2026-07-15T03:46:23.000Z</time></trkpt>
        <trkpt lat="29.38603" lon="104.612668"><ele>340.9501</ele><time>2026-07-15T03:46:24.000Z</time></trkpt>
        <trkpt lat="29.386059" lon="104.612686"><ele>340.5504</ele><time>2026-07-15T03:46:25.000Z</time></trkpt>
        <trkpt lat="29.38608" lon="104.612698"><ele>340.04547</ele><time>2026-07-15T03:46:26.000Z</time></trkpt>
        <trkpt lat="29.386111" lon="104.612718"><ele>338.3538</ele><time>2026-07-15T03:46:30.000Z</time></trkpt>
        <trkpt lat="29.386152" lon="104.612745"><ele>336.32248</ele><time>2026-07-15T03:46:33.000Z</time></trkpt>
        <trkpt lat="29.386174" lon="104.612761"><ele>335.82278</ele><time>2026-07-15T03:46:34.000Z</time></trkpt>
        <trkpt lat="29.386242" lon="104.612812"><ele>334.93246</ele><time>2026-07-15T03:46:36.000Z</time></trkpt>
        <trkpt lat="29.386283" lon="104.612842"><ele>334.49622</ele><time>2026-07-15T03:46:37.000Z</time></trkpt>
        <trkpt lat="29.386329" lon="104.612875"><ele>334.11823</ele><time>2026-07-15T03:46:38.000Z</time></trkpt>
        <trkpt lat="29.386378" lon="104.612911"><ele>333.66153</ele><time>2026-07-15T03:46:39.000Z</time></trkpt>
        <trkpt lat="29.386432" lon="104.61295"><ele>332.9808</ele><time>2026-07-15T03:46:40.000Z</time></trkpt>
        <trkpt lat="29.38649" lon="104.612991"><ele>332.5025</ele><time>2026-07-15T03:46:41.000Z</time></trkpt>
        <trkpt lat="29.386552" lon="104.613035"><ele>332.1305</ele><time>2026-07-15T03:46:42.000Z</time></trkpt>
        <trkpt lat="29.386616" lon="104.61308"><ele>331.582</ele><time>2026-07-15T03:46:43.000Z</time></trkpt>
        <trkpt lat="29.386683" lon="104.613126"><ele>331.17807</ele><time>2026-07-15T03:46:44.000Z</time></trkpt>
        <trkpt lat="29.386753" lon="104.613174"><ele>330.40173</ele><time>2026-07-15T03:46:45.000Z</time></trkpt>
        <trkpt lat="29.386825" lon="104.613223"><ele>329.81894</ele><time>2026-07-15T03:46:46.000Z</time></trkpt>
        <trkpt lat="29.386898" lon="104.613272"><ele>329.25876</ele><time>2026-07-15T03:46:47.000Z</time></trkpt>
        <trkpt lat="29.386971" lon="104.613322"><ele>328.83347</ele><time>2026-07-15T03:46:48.000Z</time></trkpt>
        <trkpt lat="29.387043" lon="104.613372"><ele>328.6795</ele><time>2026-07-15T03:46:49.000Z</time></trkpt>
        <trkpt lat="29.387112" lon="104.61342"><ele>328.35114</ele><time>2026-07-15T03:46:50.000Z</time></trkpt>
        <trkpt lat="29.387177" lon="104.613467"><ele>328.07248</ele><time>2026-07-15T03:46:51.000Z</time></trkpt>
        <trkpt lat="29.387237" lon="104.613509"><ele>328.01706</ele><time>2026-07-15T03:46:52.000Z</time></trkpt>
        <trkpt lat="29.387291" lon="104.613547"><ele>327.91196</ele><time>2026-07-15T03:46:53.000Z</time></trkpt>
        <trkpt lat="29.387337" lon="104.613578"><ele>327.8562</ele><time>2026-07-15T03:46:54.000Z</time></trkpt>
        <trkpt lat="29.387376" lon="104.613605"><ele>327.97803</ele><time>2026-07-15T03:46:55.000Z</time></trkpt>
        <trkpt lat="29.387409" lon="104.613626"><ele>328.1282</ele><time>2026-07-15T03:46:56.000Z</time></trkpt>
        <trkpt lat="29.387438" lon="104.613643"><ele>327.2511</ele><time>2026-07-15T03:46:57.000Z</time></trkpt>
        <trkpt lat="29.387463" lon="104.613656"><ele>327.42233</ele><time>2026-07-15T03:46:58.000Z</time></trkpt>
        <trkpt lat="29.387496" lon="104.61366"><ele>327.1029</ele><time>2026-07-15T03:47:00.000Z</time></trkpt>
        <trkpt lat="29.387495" lon="104.613659"><ele>328.33987</ele><time>2026-07-15T03:47:05.000Z</time></trkpt>
        <trkpt lat="29.387436" lon="104.613624"><ele>328.33987</ele><time>2026-07-15T03:47:06.000Z</time></trkpt>
        <trkpt lat="29.387408" lon="104.613601"><ele>329.94812</ele><time>2026-07-15T03:47:14.000Z</time></trkpt>
        <trkpt lat="29.387391" lon="104.613584"><ele>330.01562</ele><time>2026-07-15T03:47:15.000Z</time></trkpt>
        <trkpt lat="29.387363" lon="104.613559"><ele>330.27258</ele><time>2026-07-15T03:47:16.000Z</time></trkpt>
        <trkpt lat="29.387241" lon="104.613451"><ele>330.2542</ele><time>2026-07-15T03:47:17.000Z</time></trkpt>
        <trkpt lat="29.387224" lon="104.613436"><ele>330.0847</ele><time>2026-07-15T03:47:18.000Z</time></trkpt>
        <trkpt lat="29.387222" lon="104.613434"><ele>329.95895</ele><time>2026-07-15T03:47:19.000Z</time></trkpt>
        <trkpt lat="29.387142" lon="104.61338"><ele>329.14304</ele><time>2026-07-15T03:47:24.000Z</time></trkpt>
        <trkpt lat="29.38711" lon="104.613358"><ele>329.82544</ele><time>2026-07-15T03:47:25.000Z</time></trkpt>
        <trkpt lat="29.387074" lon="104.613333"><ele>329.6914</ele><time>2026-07-15T03:47:26.000Z</time></trkpt>
        <trkpt lat="29.387042" lon="104.613309"><ele>329.2556</ele><time>2026-07-15T03:47:27.000Z</time></trkpt>
        <trkpt lat="29.387014" lon="104.613289"><ele>329.2556</ele><time>2026-07-15T03:47:28.000Z</time></trkpt>
        <trkpt lat="29.386993" lon="104.613273"><ele>329.2556</ele><time>2026-07-15T03:47:29.000Z</time></trkpt>
        <trkpt lat="29.386967" lon="104.613251"><ele>329.2556</ele><time>2026-07-15T03:47:31.000Z</time></trkpt>
        <trkpt lat="29.386941" lon="104.613224"><ele>329.69098</ele><time>2026-07-15T03:47:35.000Z</time></trkpt>
        <trkpt lat="29.38692" lon="104.613205"><ele>329.54703</ele><time>2026-07-15T03:47:39.000Z</time></trkpt>
        <trkpt lat="29.386894" lon="104.613184"><ele>330.1105</ele><time>2026-07-15T03:47:41.000Z</time></trkpt>
        <trkpt lat="29.386849" lon="104.61315"><ele>329.94498</ele><time>2026-07-15T03:47:43.000Z</time></trkpt>
        <trkpt lat="29.386822" lon="104.613131"><ele>329.96268</ele><time>2026-07-15T03:47:44.000Z</time></trkpt>
        <trkpt lat="29.386791" lon="104.61311"><ele>330.48245</ele><time>2026-07-15T03:47:45.000Z</time></trkpt>
        <trkpt lat="29.386757" lon="104.613088"><ele>330.54288</ele><time>2026-07-15T03:47:46.000Z</time></trkpt>
        <trkpt lat="29.38672" lon="104.613064"><ele>330.64954</ele><time>2026-07-15T03:47:47.000Z</time></trkpt>
        <trkpt lat="29.386619" lon="104.613"><ele>330.72363</ele><time>2026-07-15T03:47:48.000Z</time></trkpt>
        <trkpt lat="29.386605" lon="104.612992"><ele>331.071</ele><time>2026-07-15T03:47:49.000Z</time></trkpt>
        <trkpt lat="29.386596" lon="104.612991"><ele>330.69617</ele><time>2026-07-15T03:47:52.000Z</time></trkpt>
        <trkpt lat="29.386454" lon="104.612994"><ele>332.03726</ele><time>2026-07-15T03:47:56.000Z</time></trkpt>
        <trkpt lat="29.386394" lon="104.613009"><ele>332.327</ele><time>2026-07-15T03:47:57.000Z</time></trkpt>
        <trkpt lat="29.38632" lon="104.613042"><ele>332.81976</ele><time>2026-07-15T03:47:58.000Z</time></trkpt>
        <trkpt lat="29.386243" lon="104.613091"><ele>333.07117</ele><time>2026-07-15T03:47:59.000Z</time></trkpt>
        <trkpt lat="29.386165" lon="104.613152"><ele>333.36264</ele><time>2026-07-15T03:48:00.000Z</time></trkpt>
        <trkpt lat="29.386089" lon="104.613224"><ele>334.12253</ele><time>2026-07-15T03:48:01.000Z</time></trkpt>
        <trkpt lat="29.386016" lon="104.613304"><ele>334.67682</ele><time>2026-07-15T03:48:02.000Z</time></trkpt>
        <trkpt lat="29.385946" lon="104.613392"><ele>335.0899</ele><time>2026-07-15T03:48:03.000Z</time></trkpt>
        <trkpt lat="29.385879" lon="104.613485"><ele>335.77014</ele><time>2026-07-15T03:48:04.000Z</time></trkpt>
        <trkpt lat="29.385815" lon="104.613581"><ele>336.61557</ele><time>2026-07-15T03:48:05.000Z</time></trkpt>
        <trkpt lat="29.385754" lon="104.613677"><ele>337.24597</ele><time>2026-07-15T03:48:06.000Z</time></trkpt>
        <trkpt lat="29.385697" lon="104.613774"><ele>337.54147</ele><time>2026-07-15T03:48:07.000Z</time></trkpt>
        <trkpt lat="29.385644" lon="104.61387"><ele>338.05334</ele><time>2026-07-15T03:48:08.000Z</time></trkpt>
        <trkpt lat="29.385593" lon="104.613965"><ele>338.61398</ele><time>2026-07-15T03:48:09.000Z</time></trkpt>
        <trkpt lat="29.385545" lon="104.614059"><ele>339.0868</ele><time>2026-07-15T03:48:10.000Z</time></trkpt>
        <trkpt lat="29.3855" lon="104.614149"><ele>339.7078</ele><time>2026-07-15T03:48:11.000Z</time></trkpt>
        <trkpt lat="29.385458" lon="104.614237"><ele>340.53455</ele><time>2026-07-15T03:48:12.000Z</time></trkpt>
        <trkpt lat="29.38542" lon="104.614319"><ele>341.11853</ele><time>2026-07-15T03:48:13.000Z</time></trkpt>
        <trkpt lat="29.385384" lon="104.614395"><ele>341.32333</ele><time>2026-07-15T03:48:14.000Z</time></trkpt>
        <trkpt lat="29.385353" lon="104.614462"><ele>341.34427</ele><time>2026-07-15T03:48:15.000Z</time></trkpt>
        <trkpt lat="29.385327" lon="104.614518"><ele>341.1876</ele><time>2026-07-15T03:48:16.000Z</time></trkpt>
        <trkpt lat="29.385306" lon="104.614562"><ele>340.97498</ele><time>2026-07-15T03:48:17.000Z</time></trkpt>
        <trkpt lat="29.385289" lon="104.614598"><ele>340.82312</ele><time>2026-07-15T03:48:18.000Z</time></trkpt>
        <trkpt lat="29.385276" lon="104.614626"><ele>340.56473</ele><time>2026-07-15T03:48:19.000Z</time></trkpt>
        <trkpt lat="29.385259" lon="104.614668"><ele>339.99887</ele><time>2026-07-15T03:48:21.000Z</time></trkpt>
        <trkpt lat="29.385243" lon="104.614705"><ele>340.61786</ele><time>2026-07-15T03:48:23.000Z</time></trkpt>
        <trkpt lat="29.385234" lon="104.614728"><ele>340.9381</ele><time>2026-07-15T03:48:24.000Z</time></trkpt>
        <trkpt lat="29.385222" lon="104.614757"><ele>341.13773</ele><time>2026-07-15T03:48:25.000Z</time></trkpt>
        <trkpt lat="29.385206" lon="104.614792"><ele>341.61777</ele><time>2026-07-15T03:48:26.000Z</time></trkpt>
        <trkpt lat="29.385162" lon="104.614885"><ele>341.7211</ele><time>2026-07-15T03:48:28.000Z</time></trkpt>
        <trkpt lat="29.385136" lon="104.614939"><ele>341.71375</ele><time>2026-07-15T03:48:29.000Z</time></trkpt>
        <trkpt lat="29.385106" lon="104.614999"><ele>341.7983</ele><time>2026-07-15T03:48:30.000Z</time></trkpt>
        <trkpt lat="29.385074" lon="104.615063"><ele>342.1177</ele><time>2026-07-15T03:48:31.000Z</time></trkpt>
        <trkpt lat="29.38504" lon="104.615131"><ele>342.20447</ele><time>2026-07-15T03:48:32.000Z</time></trkpt>
        <trkpt lat="29.385003" lon="104.615203"><ele>342.24518</ele><time>2026-07-15T03:48:33.000Z</time></trkpt>
        <trkpt lat="29.384966" lon="104.615276"><ele>342.30115</ele><time>2026-07-15T03:48:34.000Z</time></trkpt>
        <trkpt lat="29.384928" lon="104.61535"><ele>342.27353</ele><time>2026-07-15T03:48:35.000Z</time></trkpt>
        <trkpt lat="29.384889" lon="104.615421"><ele>342.18762</ele><time>2026-07-15T03:48:36.000Z</time></trkpt>
        <trkpt lat="29.38485" lon="104.61549"><ele>342.38538</ele><time>2026-07-15T03:48:37.000Z</time></trkpt>
        <trkpt lat="29.384812" lon="104.615555"><ele>342.36258</ele><time>2026-07-15T03:48:38.000Z</time></trkpt>
        <trkpt lat="29.384775" lon="104.615617"><ele>342.12082</ele><time>2026-07-15T03:48:39.000Z</time></trkpt>
        <trkpt lat="29.384739" lon="104.615675"><ele>342.02762</ele><time>2026-07-15T03:48:40.000Z</time></trkpt>
        <trkpt lat="29.384703" lon="104.615735"><ele>341.6614</ele><time>2026-07-15T03:48:41.000Z</time></trkpt>
        <trkpt lat="29.384667" lon="104.615796"><ele>341.82516</ele><time>2026-07-15T03:48:42.000Z</time></trkpt>
        <trkpt lat="29.384629" lon="104.615861"><ele>341.67593</ele><time>2026-07-15T03:48:43.000Z</time></trkpt>
        <trkpt lat="29.38459" lon="104.61593"><ele>341.46997</ele><time>2026-07-15T03:48:44.000Z</time></trkpt>
        <trkpt lat="29.384549" lon="104.616003"><ele>341.3747</ele><time>2026-07-15T03:48:45.000Z</time></trkpt>
        <trkpt lat="29.384506" lon="104.616079"><ele>341.10178</ele><time>2026-07-15T03:48:46.000Z</time></trkpt>
        <trkpt lat="29.384461" lon="104.61616"><ele>341.20114</ele><time>2026-07-15T03:48:47.000Z</time></trkpt>
        <trkpt lat="29.384414" lon="104.616246"><ele>341.21088</ele><time>2026-07-15T03:48:48.000Z</time></trkpt>
        <trkpt lat="29.384366" lon="104.616336"><ele>342.12164</ele><time>2026-07-15T03:48:49.000Z</time></trkpt>
        <trkpt lat="29.384318" lon="104.616427"><ele>342.88266</ele><time>2026-07-15T03:48:50.000Z</time></trkpt>
        <trkpt lat="29.384269" lon="104.616519"><ele>343.3352</ele><time>2026-07-15T03:48:51.000Z</time></trkpt>
        <trkpt lat="29.384221" lon="104.616612"><ele>343.5823</ele><time>2026-07-15T03:48:52.000Z</time></trkpt>
        <trkpt lat="29.384173" lon="104.616706"><ele>343.80298</ele><time>2026-07-15T03:48:53.000Z</time></trkpt>
        <trkpt lat="29.384123" lon="104.616802"><ele>344.00116</ele><time>2026-07-15T03:48:54.000Z</time></trkpt>
        <trkpt lat="29.384074" lon="104.616899"><ele>343.92792</ele><time>2026-07-15T03:48:55.000Z</time></trkpt>
        <trkpt lat="29.384024" lon="104.616996"><ele>343.98196</ele><time>2026-07-15T03:48:56.000Z</time></trkpt>
        <trkpt lat="29.383973" lon="104.617095"><ele>343.94495</ele><time>2026-07-15T03:48:57.000Z</time></trkpt>
        <trkpt lat="29.383922" lon="104.617195"><ele>344.18442</ele><time>2026-07-15T03:48:58.000Z</time></trkpt>
        <trkpt lat="29.38387" lon="104.617295"><ele>344.35126</ele><time>2026-07-15T03:48:59.000Z</time></trkpt>
        <trkpt lat="29.383817" lon="104.617398"><ele>344.26154</ele><time>2026-07-15T03:49:00.000Z</time></trkpt>
        <trkpt lat="29.383763" lon="104.617502"><ele>344.2119</ele><time>2026-07-15T03:49:01.000Z</time></trkpt>
        <trkpt lat="29.383708" lon="104.617607"><ele>343.78995</ele><time>2026-07-15T03:49:02.000Z</time></trkpt>
        <trkpt lat="29.383654" lon="104.617711"><ele>343.38373</ele><time>2026-07-15T03:49:03.000Z</time></trkpt>
        <trkpt lat="29.3836" lon="104.617813"><ele>342.83224</ele><time>2026-07-15T03:49:04.000Z</time></trkpt>
        <trkpt lat="29.383548" lon="104.617911"><ele>342.2282</ele><time>2026-07-15T03:49:05.000Z</time></trkpt>
        <trkpt lat="29.383498" lon="104.618005"><ele>341.97794</ele><time>2026-07-15T03:49:06.000Z</time></trkpt>
        <trkpt lat="29.383451" lon="104.618095"><ele>341.71027</ele><time>2026-07-15T03:49:07.000Z</time></trkpt>
        <trkpt lat="29.383404" lon="104.618182"><ele>341.6331</ele><time>2026-07-15T03:49:08.000Z</time></trkpt>
        <trkpt lat="29.383359" lon="104.618267"><ele>341.8562</ele><time>2026-07-15T03:49:09.000Z</time></trkpt>
        <trkpt lat="29.383314" lon="104.618352"><ele>342.0826</ele><time>2026-07-15T03:49:10.000Z</time></trkpt>
        <trkpt lat="29.383269" lon="104.618436"><ele>342.69733</ele><time>2026-07-15T03:49:11.000Z</time></trkpt>
        <trkpt lat="29.383225" lon="104.618519"><ele>343.22964</ele><time>2026-07-15T03:49:12.000Z</time></trkpt>
        <trkpt lat="29.383183" lon="104.618597"><ele>343.7185</ele><time>2026-07-15T03:49:13.000Z</time></trkpt>
        <trkpt lat="29.383144" lon="104.618671"><ele>344.33377</ele><time>2026-07-15T03:49:14.000Z</time></trkpt>
        <trkpt lat="29.383107" lon="104.618739"><ele>344.8321</ele><time>2026-07-15T03:49:15.000Z</time></trkpt>
        <trkpt lat="29.383074" lon="104.618801"><ele>345.29318</ele><time>2026-07-15T03:49:16.000Z</time></trkpt>
        <trkpt lat="29.383046" lon="104.618857"><ele>345.6555</ele><time>2026-07-15T03:49:17.000Z</time></trkpt>
        <trkpt lat="29.383023" lon="104.618907"><ele>345.97238</ele><time>2026-07-15T03:49:18.000Z</time></trkpt>
        <trkpt lat="29.383006" lon="104.618954"><ele>346.11008</ele><time>2026-07-15T03:49:19.000Z</time></trkpt>
        <trkpt lat="29.382993" lon="104.618996"><ele>345.9543</ele><time>2026-07-15T03:49:20.000Z</time></trkpt>
        <trkpt lat="29.382992" lon="104.61903"><ele>345.95557</ele><time>2026-07-15T03:49:21.000Z</time></trkpt>
        <trkpt lat="29.383" lon="104.61906"><ele>345.92984</ele><time>2026-07-15T03:49:22.000Z</time></trkpt>
        <trkpt lat="29.383016" lon="104.619087"><ele>345.87436</ele><time>2026-07-15T03:49:23.000Z</time></trkpt>
        <trkpt lat="29.383039" lon="104.619112"><ele>345.4122</ele><time>2026-07-15T03:49:24.000Z</time></trkpt>
        <trkpt lat="29.383068" lon="104.619134"><ele>345.17026</ele><time>2026-07-15T03:49:25.000Z</time></trkpt>
        <trkpt lat="29.383102" lon="104.619152"><ele>344.86728</ele><time>2026-07-15T03:49:26.000Z</time></trkpt>
        <trkpt lat="29.383135" lon="104.619165"><ele>344.66122</ele><time>2026-07-15T03:49:27.000Z</time></trkpt>
        <trkpt lat="29.383165" lon="104.619173"><ele>344.69656</ele><time>2026-07-15T03:49:28.000Z</time></trkpt>
        <trkpt lat="29.383191" lon="104.619171"><ele>344.5795</ele><time>2026-07-15T03:49:29.000Z</time></trkpt>
        <trkpt lat="29.383262" lon="104.619161"><ele>344.381</ele><time>2026-07-15T03:49:33.000Z</time></trkpt>
        <trkpt lat="29.383273" lon="104.619158"><ele>344.60074</ele><time>2026-07-15T03:49:34.000Z</time></trkpt>
        <trkpt lat="29.383286" lon="104.61916"><ele>344.105</ele><time>2026-07-15T03:49:35.000Z</time></trkpt>
        <trkpt lat="29.38336" lon="104.61918"><ele>342.08997</ele><time>2026-07-15T03:49:40.000Z</time></trkpt>
        <trkpt lat="29.383384" lon="104.619191"><ele>341.91174</ele><time>2026-07-15T03:49:41.000Z</time></trkpt>
        <trkpt lat="29.383417" lon="104.619209"><ele>341.5963</ele><time>2026-07-15T03:49:42.000Z</time></trkpt>
        <trkpt lat="29.3835" lon="104.619259"><ele>340.81064</ele><time>2026-07-15T03:49:44.000Z</time></trkpt>
        <trkpt lat="29.38355" lon="104.61929"><ele>340.2154</ele><time>2026-07-15T03:49:45.000Z</time></trkpt>
        <trkpt lat="29.383604" lon="104.619325"><ele>339.719</ele><time>2026-07-15T03:49:46.000Z</time></trkpt>
        <trkpt lat="29.383662" lon="104.619363"><ele>339.3768</ele><time>2026-07-15T03:49:47.000Z</time></trkpt>
        <trkpt lat="29.383723" lon="104.619403"><ele>338.94476</ele><time>2026-07-15T03:49:48.000Z</time></trkpt>
        <trkpt lat="29.383785" lon="104.619445"><ele>338.8335</ele><time>2026-07-15T03:49:49.000Z</time></trkpt>
        <trkpt lat="29.38385" lon="104.619489"><ele>338.83414</ele><time>2026-07-15T03:49:50.000Z</time></trkpt>
        <trkpt lat="29.383916" lon="104.619537"><ele>339.4503</ele><time>2026-07-15T03:49:51.000Z</time></trkpt>
        <trkpt lat="29.383985" lon="104.619586"><ele>339.62317</ele><time>2026-07-15T03:49:52.000Z</time></trkpt>
        <trkpt lat="29.384054" lon="104.619637"><ele>339.63312</ele><time>2026-07-15T03:49:53.000Z</time></trkpt>
        <trkpt lat="29.384123" lon="104.619687"><ele>339.51038</ele><time>2026-07-15T03:49:54.000Z</time></trkpt>
        <trkpt lat="29.384191" lon="104.619736"><ele>339.35748</ele><time>2026-07-15T03:49:55.000Z</time></trkpt>
        <trkpt lat="29.384258" lon="104.619784"><ele>339.415</ele><time>2026-07-15T03:49:56.000Z</time></trkpt>
        <trkpt lat="29.384321" lon="104.619829"><ele>339.3964</ele><time>2026-07-15T03:49:57.000Z</time></trkpt>
        <trkpt lat="29.384378" lon="104.619871"><ele>339.15308</ele><time>2026-07-15T03:49:58.000Z</time></trkpt>
        <trkpt lat="29.384429" lon="104.619907"><ele>339.68265</ele><time>2026-07-15T03:49:59.000Z</time></trkpt>
        <trkpt lat="29.38446" lon="104.61993"><ele>339.42636</ele><time>2026-07-15T03:50:00.000Z</time></trkpt>
        <trkpt lat="29.384464" lon="104.619933"><ele>339.3205</ele><time>2026-07-15T03:50:01.000Z</time></trkpt>
        <trkpt lat="29.384588" lon="104.620022"><ele>336.95645</ele><time>2026-07-15T03:50:07.000Z</time></trkpt>
        <trkpt lat="29.384657" lon="104.620071"><ele>336.46838</ele><time>2026-07-15T03:50:08.000Z</time></trkpt>
        <trkpt lat="29.384751" lon="104.620138"><ele>335.61142</ele><time>2026-07-15T03:50:09.000Z</time></trkpt>
        <trkpt lat="29.384857" lon="104.620213"><ele>334.97717</ele><time>2026-07-15T03:50:10.000Z</time></trkpt>
        <trkpt lat="29.38497" lon="104.620292"><ele>334.39975</ele><time>2026-07-15T03:50:11.000Z</time></trkpt>
        <trkpt lat="29.385084" lon="104.620371"><ele>333.98544</ele><time>2026-07-15T03:50:12.000Z</time></trkpt>
        <trkpt lat="29.385197" lon="104.620449"><ele>333.45584</ele><time>2026-07-15T03:50:13.000Z</time></trkpt>
        <trkpt lat="29.385306" lon="104.620524"><ele>333.03088</ele><time>2026-07-15T03:50:14.000Z</time></trkpt>
        <trkpt lat="29.38541" lon="104.620596"><ele>332.74728</ele><time>2026-07-15T03:50:15.000Z</time></trkpt>
        <trkpt lat="29.385509" lon="104.620664"><ele>332.44077</ele><time>2026-07-15T03:50:16.000Z</time></trkpt>
        <trkpt lat="29.385604" lon="104.620729"><ele>332.25763</ele><time>2026-07-15T03:50:17.000Z</time></trkpt>
        <trkpt lat="29.385691" lon="104.620788"><ele>331.92194</ele><time>2026-07-15T03:50:18.000Z</time></trkpt>
        <trkpt lat="29.385771" lon="104.620842"><ele>331.49265</ele><time>2026-07-15T03:50:19.000Z</time></trkpt>
        <trkpt lat="29.385842" lon="104.620888"><ele>330.8854</ele><time>2026-07-15T03:50:20.000Z</time></trkpt>
        <trkpt lat="29.3859" lon="104.620924"><ele>330.42453</ele><time>2026-07-15T03:50:21.000Z</time></trkpt>
        <trkpt lat="29.385943" lon="104.620948"><ele>329.53217</ele><time>2026-07-15T03:50:22.000Z</time></trkpt>
        <trkpt lat="29.385974" lon="104.620963"><ele>329.01663</ele><time>2026-07-15T03:50:23.000Z</time></trkpt>
        <trkpt lat="29.385994" lon="104.620972"><ele>328.52316</ele><time>2026-07-15T03:50:24.000Z</time></trkpt>
        <trkpt lat="29.386036" lon="104.620995"><ele>327.36447</ele><time>2026-07-15T03:50:27.000Z</time></trkpt>
        <trkpt lat="29.386069" lon="104.621015"><ele>326.80984</ele><time>2026-07-15T03:50:29.000Z</time></trkpt>
        <trkpt lat="29.386085" lon="104.621028"><ele>326.49197</ele><time>2026-07-15T03:50:30.000Z</time></trkpt>
        <trkpt lat="29.386112" lon="104.621034"><ele>325.8086</ele><time>2026-07-15T03:50:32.000Z</time></trkpt>
        <trkpt lat="29.386056" lon="104.621017"><ele>327.88565</ele><time>2026-07-15T03:50:59.000Z</time></trkpt>
        <trkpt lat="29.386043" lon="104.621012"><ele>327.50528</ele><time>2026-07-15T03:51:00.000Z</time></trkpt>
        <trkpt lat="29.386041" lon="104.621012"><ele>327.52274</ele><time>2026-07-15T03:51:01.000Z</time></trkpt>
        <trkpt lat="29.386041" lon="104.621012"><ele>327.52274</ele><time>2026-07-15T03:51:02.000Z</time></trkpt>
        <trkpt lat="29.386004" lon="104.620986"><ele>326.78027</ele><time>2026-07-15T03:51:15.000Z</time></trkpt>
        <trkpt lat="29.385979" lon="104.620969"><ele>327.1104</ele><time>2026-07-15T03:51:16.000Z</time></trkpt>
        <trkpt lat="29.385946" lon="104.620946"><ele>327.45132</ele><time>2026-07-15T03:51:17.000Z</time></trkpt>
        <trkpt lat="29.385647" lon="104.620738"><ele>329.62814</ele><time>2026-07-15T03:51:22.000Z</time></trkpt>
        <trkpt lat="29.385615" lon="104.620654"><ele>330.09775</ele><time>2026-07-15T03:51:23.000Z</time></trkpt>
        <trkpt lat="29.385607" lon="104.620647"><ele>330.74002</ele><time>2026-07-15T03:51:24.000Z</time></trkpt>
        <trkpt lat="29.38555" lon="104.620602"><ele>332.1042</ele><time>2026-07-15T03:51:29.000Z</time></trkpt>
        <trkpt lat="29.385504" lon="104.620568"><ele>332.08124</ele><time>2026-07-15T03:51:30.000Z</time></trkpt>
        <trkpt lat="29.385431" lon="104.620515"><ele>332.24454</ele><time>2026-07-15T03:51:31.000Z</time></trkpt>
        <trkpt lat="29.385335" lon="104.620447"><ele>332.76392</ele><time>2026-07-15T03:51:32.000Z</time></trkpt>
        <trkpt lat="29.385222" lon="104.620368"><ele>333.20352</ele><time>2026-07-15T03:51:33.000Z</time></trkpt>
        <trkpt lat="29.385099" lon="104.620282"><ele>333.76837</ele><time>2026-07-15T03:51:34.000Z</time></trkpt>
        <trkpt lat="29.384973" lon="104.620194"><ele>334.3886</ele><time>2026-07-15T03:51:35.000Z</time></trkpt>
        <trkpt lat="29.384847" lon="104.620106"><ele>334.98184</ele><time>2026-07-15T03:51:36.000Z</time></trkpt>
        <trkpt lat="29.384726" lon="104.620021"><ele>335.59802</ele><time>2026-07-15T03:51:37.000Z</time></trkpt>
        <trkpt lat="29.384612" lon="104.619941"><ele>335.86386</ele><time>2026-07-15T03:51:38.000Z</time></trkpt>
        <trkpt lat="29.384507" lon="104.619868"><ele>336.26553</ele><time>2026-07-15T03:51:39.000Z</time></trkpt>
        <trkpt lat="29.384411" lon="104.619802"><ele>336.71344</ele><time>2026-07-15T03:51:40.000Z</time></trkpt>
        <trkpt lat="29.384323" lon="104.619741"><ele>337.24112</ele><time>2026-07-15T03:51:41.000Z</time></trkpt>
        <trkpt lat="29.384243" lon="104.619686"><ele>337.72916</ele><time>2026-07-15T03:51:42.000Z</time></trkpt>
        <trkpt lat="29.384169" lon="104.619636"><ele>337.98068</ele><time>2026-07-15T03:51:43.000Z</time></trkpt>
        <trkpt lat="29.384103" lon="104.619588"><ele>338.30984</ele><time>2026-07-15T03:51:44.000Z</time></trkpt>
        <trkpt lat="29.384041" lon="104.619542"><ele>338.69604</ele><time>2026-07-15T03:51:45.000Z</time></trkpt>
        <trkpt lat="29.383986" lon="104.619501"><ele>338.55786</ele><time>2026-07-15T03:51:46.000Z</time></trkpt>
        <trkpt lat="29.383934" lon="104.619463"><ele>338.9991</ele><time>2026-07-15T03:51:47.000Z</time></trkpt>
        <trkpt lat="29.383884" lon="104.619427"><ele>339.01047</ele><time>2026-07-15T03:51:48.000Z</time></trkpt>
        <trkpt lat="29.383838" lon="104.619394"><ele>339.0566</ele><time>2026-07-15T03:51:49.000Z</time></trkpt>
        <trkpt lat="29.383793" lon="104.619363"><ele>339.30933</ele><time>2026-07-15T03:51:50.000Z</time></trkpt>
        <trkpt lat="29.383751" lon="104.619334"><ele>339.18634</ele><time>2026-07-15T03:51:51.000Z</time></trkpt>
        <trkpt lat="29.383713" lon="104.619308"><ele>339.319</ele><time>2026-07-15T03:51:52.000Z</time></trkpt>
        <trkpt lat="29.383681" lon="104.619286"><ele>339.67566</ele><time>2026-07-15T03:51:53.000Z</time></trkpt>
        <trkpt lat="29.383655" lon="104.619268"><ele>340.0537</ele><time>2026-07-15T03:51:54.000Z</time></trkpt>
        <trkpt lat="29.383634" lon="104.619256"><ele>340.26196</ele><time>2026-07-15T03:51:55.000Z</time></trkpt>
        <trkpt lat="29.383628" lon="104.61926"><ele>339.70593</ele><time>2026-07-15T03:52:05.000Z</time></trkpt>
        <trkpt lat="29.383627" lon="104.619256"><ele>339.3271</ele><time>2026-07-15T03:52:07.000Z</time></trkpt>
        <trkpt lat="29.383618" lon="104.619246"><ele>340.1063</ele><time>2026-07-15T03:52:13.000Z</time></trkpt>
        <trkpt lat="29.383592" lon="104.61922"><ele>339.9889</ele><time>2026-07-15T03:52:14.000Z</time></trkpt>
        <trkpt lat="29.383589" lon="104.619217"><ele>339.93704</ele><time>2026-07-15T03:52:15.000Z</time></trkpt>
        <trkpt lat="29.383528" lon="104.619174"><ele>341.1173</ele><time>2026-07-15T03:52:21.000Z</time></trkpt>
        <trkpt lat="29.383379" lon="104.619068"><ele>341.41022</ele><time>2026-07-15T03:52:22.000Z</time></trkpt>
        <trkpt lat="29.383357" lon="104.619058"><ele>342.0328</ele><time>2026-07-15T03:52:23.000Z</time></trkpt>
        <trkpt lat="29.383249" lon="104.619007"><ele>342.79483</ele><time>2026-07-15T03:52:25.000Z</time></trkpt>
        <trkpt lat="29.383241" lon="104.619004"><ele>343.12988</ele><time>2026-07-15T03:52:26.000Z</time></trkpt>
        <trkpt lat="29.38324" lon="104.619003"><ele>343.32962</ele><time>2026-07-15T03:52:27.000Z</time></trkpt>
        <trkpt lat="29.383169" lon="104.618916"><ele>343.89777</ele><time>2026-07-15T03:52:33.000Z</time></trkpt>
        <trkpt lat="29.38316" lon="104.618887"><ele>344.02905</ele><time>2026-07-15T03:52:34.000Z</time></trkpt>
        <trkpt lat="29.383163" lon="104.618844"><ele>343.9824</ele><time>2026-07-15T03:52:35.000Z</time></trkpt>
        <trkpt lat="29.38318" lon="104.618728"><ele>344.49792</ele><time>2026-07-15T03:52:37.000Z</time></trkpt>
        <trkpt lat="29.383197" lon="104.618667"><ele>345.06738</ele><time>2026-07-15T03:52:38.000Z</time></trkpt>
        <trkpt lat="29.383222" lon="104.618603"><ele>345.42108</ele><time>2026-07-15T03:52:39.000Z</time></trkpt>
        <trkpt lat="29.38325" lon="104.618539"><ele>345.56842</ele><time>2026-07-15T03:52:40.000Z</time></trkpt>
        <trkpt lat="29.383282" lon="104.618477"><ele>345.77725</ele><time>2026-07-15T03:52:41.000Z</time></trkpt>
        <trkpt lat="29.383315" lon="104.618418"><ele>345.77884</ele><time>2026-07-15T03:52:42.000Z</time></trkpt>
        <trkpt lat="29.383348" lon="104.61836"><ele>345.80978</ele><time>2026-07-15T03:52:43.000Z</time></trkpt>
        <trkpt lat="29.383382" lon="104.618304"><ele>345.9454</ele><time>2026-07-15T03:52:44.000Z</time></trkpt>
        <trkpt lat="29.383418" lon="104.618248"><ele>345.945</ele><time>2026-07-15T03:52:45.000Z</time></trkpt>
        <trkpt lat="29.383453" lon="104.618193"><ele>345.70386</ele><time>2026-07-15T03:52:46.000Z</time></trkpt>
        <trkpt lat="29.38349" lon="104.618137"><ele>345.41074</ele><time>2026-07-15T03:52:47.000Z</time></trkpt>
        <trkpt lat="29.383527" lon="104.618081"><ele>344.91205</ele><time>2026-07-15T03:52:48.000Z</time></trkpt>
        <trkpt lat="29.383564" lon="104.618025"><ele>344.45248</ele><time>2026-07-15T03:52:49.000Z</time></trkpt>
        <trkpt lat="29.3836" lon="104.617971"><ele>344.1159</ele><time>2026-07-15T03:52:50.000Z</time></trkpt>
        <trkpt lat="29.383635" lon="104.617921"><ele>343.52957</ele><time>2026-07-15T03:52:51.000Z</time></trkpt>
        <trkpt lat="29.383666" lon="104.617877"><ele>343.39737</ele><time>2026-07-15T03:52:52.000Z</time></trkpt>
        <trkpt lat="29.383692" lon="104.61784"><ele>343.18692</ele><time>2026-07-15T03:52:53.000Z</time></trkpt>
        <trkpt lat="29.383712" lon="104.617813"><ele>342.85016</ele><time>2026-07-15T03:52:54.000Z</time></trkpt>
        <trkpt lat="29.383708" lon="104.617805"><ele>342.74045</ele><time>2026-07-15T03:52:55.000Z</time></trkpt>
        <trkpt lat="29.383708" lon="104.617806"><ele>342.28888</ele><time>2026-07-15T03:53:01.000Z</time></trkpt>
        <trkpt lat="29.383723" lon="104.617779"><ele>342.56937</ele><time>2026-07-15T03:53:02.000Z</time></trkpt>
        <trkpt lat="29.383814" lon="104.617619"><ele>343.22397</ele><time>2026-07-15T03:53:05.000Z</time></trkpt>
        <trkpt lat="29.383818" lon="104.617611"><ele>343.54416</ele><time>2026-07-15T03:53:06.000Z</time></trkpt>
        <trkpt lat="29.383819" lon="104.61761"><ele>344.03415</ele><time>2026-07-15T03:53:07.000Z</time></trkpt>
        <trkpt lat="29.383895" lon="104.617464"><ele>345.41385</ele><time>2026-07-15T03:53:12.000Z</time></trkpt>
        <trkpt lat="29.383939" lon="104.617379"><ele>345.7482</ele><time>2026-07-15T03:53:13.000Z</time></trkpt>
        <trkpt lat="29.384" lon="104.617263"><ele>345.98953</ele><time>2026-07-15T03:53:14.000Z</time></trkpt>
        <trkpt lat="29.38407" lon="104.617129"><ele>346.21762</ele><time>2026-07-15T03:53:15.000Z</time></trkpt>
        <trkpt lat="29.384145" lon="104.616988"><ele>346.4372</ele><time>2026-07-15T03:53:16.000Z</time></trkpt>
        <trkpt lat="29.38422" lon="104.616847"><ele>346.167</ele><time>2026-07-15T03:53:17.000Z</time></trkpt>
        <trkpt lat="29.384292" lon="104.616711"><ele>346.2321</ele><time>2026-07-15T03:53:18.000Z</time></trkpt>
        <trkpt lat="29.38436" lon="104.616583"><ele>346.58087</ele><time>2026-07-15T03:53:19.000Z</time></trkpt>
        <trkpt lat="29.384423" lon="104.616464"><ele>346.693</ele><time>2026-07-15T03:53:20.000Z</time></trkpt>
        <trkpt lat="29.38448" lon="104.616356"><ele>346.79337</ele><time>2026-07-15T03:53:21.000Z</time></trkpt>
        <trkpt lat="29.38453" lon="104.616262"><ele>346.61777</ele><time>2026-07-15T03:53:22.000Z</time></trkpt>
        <trkpt lat="29.384573" lon="104.616183"><ele>346.9714</ele><time>2026-07-15T03:53:23.000Z</time></trkpt>
        <trkpt lat="29.384608" lon="104.616118"><ele>347.1318</ele><time>2026-07-15T03:53:24.000Z</time></trkpt>
        <trkpt lat="29.384572" lon="104.616169"><ele>345.86014</ele><time>2026-07-15T03:53:28.000Z</time></trkpt>
        <trkpt lat="29.384739" lon="104.616223"><ele>344.20486</ele><time>2026-07-15T03:53:33.000Z</time></trkpt>
        <trkpt lat="29.384813" lon="104.616255"><ele>343.43942</ele><time>2026-07-15T03:53:34.000Z</time></trkpt>
        <trkpt lat="29.3849" lon="104.616301"><ele>342.51816</ele><time>2026-07-15T03:53:35.000Z</time></trkpt>
        <trkpt lat="29.384993" lon="104.616355"><ele>341.80554</ele><time>2026-07-15T03:53:36.000Z</time></trkpt>
        <trkpt lat="29.385088" lon="104.616415"><ele>340.77594</ele><time>2026-07-15T03:53:37.000Z</time></trkpt>
        <trkpt lat="29.385185" lon="104.616479"><ele>339.4568</ele><time>2026-07-15T03:53:38.000Z</time></trkpt>
        <trkpt lat="29.385282" lon="104.616548"><ele>338.1996</ele><time>2026-07-15T03:53:39.000Z</time></trkpt>
        <trkpt lat="29.38538" lon="104.616619"><ele>336.70343</ele><time>2026-07-15T03:53:40.000Z</time></trkpt>
        <trkpt lat="29.385478" lon="104.616694"><ele>335.96805</ele><time>2026-07-15T03:53:41.000Z</time></trkpt>
        <trkpt lat="29.385576" lon="104.61677"><ele>335.16605</ele><time>2026-07-15T03:53:42.000Z</time></trkpt>
        <trkpt lat="29.385675" lon="104.616848"><ele>334.58994</ele><time>2026-07-15T03:53:43.000Z</time></trkpt>
        <trkpt lat="29.385773" lon="104.616927"><ele>334.34824</ele><time>2026-07-15T03:53:44.000Z</time></trkpt>
        <trkpt lat="29.38587" lon="104.617006"><ele>334.1401</ele><time>2026-07-15T03:53:45.000Z</time></trkpt>
        <trkpt lat="29.385966" lon="104.617085"><ele>334.2295</ele><time>2026-07-15T03:53:46.000Z</time></trkpt>
        <trkpt lat="29.38606" lon="104.617163"><ele>334.45737</ele><time>2026-07-15T03:53:47.000Z</time></trkpt>
        <trkpt lat="29.386154" lon="104.61724"><ele>334.99658</ele><time>2026-07-15T03:53:48.000Z</time></trkpt>
        <trkpt lat="29.386247" lon="104.617316"><ele>335.38446</ele><time>2026-07-15T03:53:49.000Z</time></trkpt>
        <trkpt lat="29.386338" lon="104.617392"><ele>335.80212</ele><time>2026-07-15T03:53:50.000Z</time></trkpt>
        <trkpt lat="29.386428" lon="104.617467"><ele>335.84576</ele><time>2026-07-15T03:53:51.000Z</time></trkpt>
        <trkpt lat="29.386516" lon="104.61754"><ele>335.6282</ele><time>2026-07-15T03:53:52.000Z</time></trkpt>
        <trkpt lat="29.3866" lon="104.61761"><ele>335.14285</ele><time>2026-07-15T03:53:53.000Z</time></trkpt>
        <trkpt lat="29.38668" lon="104.617677"><ele>334.5982</ele><time>2026-07-15T03:53:54.000Z</time></trkpt>
        <trkpt lat="29.386755" lon="104.61774"><ele>333.99307</ele><time>2026-07-15T03:53:55.000Z</time></trkpt>
        <trkpt lat="29.386826" lon="104.617797"><ele>333.40067</ele><time>2026-07-15T03:53:56.000Z</time></trkpt>
        <trkpt lat="29.386892" lon="104.617849"><ele>332.92963</ele><time>2026-07-15T03:53:57.000Z</time></trkpt>
        <trkpt lat="29.386954" lon="104.617896"><ele>332.5291</ele><time>2026-07-15T03:53:58.000Z</time></trkpt>
        <trkpt lat="29.387011" lon="104.617938"><ele>332.20242</ele><time>2026-07-15T03:53:59.000Z</time></trkpt>
        <trkpt lat="29.387065" lon="104.617979"><ele>331.96893</ele><time>2026-07-15T03:54:00.000Z</time></trkpt>
        <trkpt lat="29.387118" lon="104.61802"><ele>331.59198</ele><time>2026-07-15T03:54:01.000Z</time></trkpt>
        <trkpt lat="29.387171" lon="104.618062"><ele>331.13892</ele><time>2026-07-15T03:54:02.000Z</time></trkpt>
        <trkpt lat="29.387226" lon="104.618106"><ele>330.57455</ele><time>2026-07-15T03:54:03.000Z</time></trkpt>
        <trkpt lat="29.387283" lon="104.618153"><ele>330.0044</ele><time>2026-07-15T03:54:04.000Z</time></trkpt>
        <trkpt lat="29.387343" lon="104.618201"><ele>329.61392</ele><time>2026-07-15T03:54:05.000Z</time></trkpt>
        <trkpt lat="29.387406" lon="104.618252"><ele>329.21344</ele><time>2026-07-15T03:54:06.000Z</time></trkpt>
        <trkpt lat="29.387471" lon="104.618305"><ele>328.79974</ele><time>2026-07-15T03:54:07.000Z</time></trkpt>
        <trkpt lat="29.387539" lon="104.61836"><ele>328.52545</ele><time>2026-07-15T03:54:08.000Z</time></trkpt>
        <trkpt lat="29.387608" lon="104.618416"><ele>328.12933</ele><time>2026-07-15T03:54:09.000Z</time></trkpt>
        <trkpt lat="29.387677" lon="104.618473"><ele>327.99463</ele><time>2026-07-15T03:54:10.000Z</time></trkpt>
        <trkpt lat="29.387748" lon="104.618529"><ele>327.9316</ele><time>2026-07-15T03:54:11.000Z</time></trkpt>
        <trkpt lat="29.387818" lon="104.618585"><ele>328.06302</ele><time>2026-07-15T03:54:12.000Z</time></trkpt>
        <trkpt lat="29.387888" lon="104.618641"><ele>329.05453</ele><time>2026-07-15T03:54:13.000Z</time></trkpt>
        <trkpt lat="29.387953" lon="104.618695"><ele>329.59222</ele><time>2026-07-15T03:54:14.000Z</time></trkpt>
        <trkpt lat="29.388013" lon="104.618749"><ele>329.92596</ele><time>2026-07-15T03:54:15.000Z</time></trkpt>
        <trkpt lat="29.388068" lon="104.618799"><ele>330.0961</ele><time>2026-07-15T03:54:16.000Z</time></trkpt>
        <trkpt lat="29.388117" lon="104.618845"><ele>330.2899</ele><time>2026-07-15T03:54:17.000Z</time></trkpt>
        <trkpt lat="29.388149" lon="104.61889"><ele>330.52405</ele><time>2026-07-15T03:54:18.000Z</time></trkpt>
        <trkpt lat="29.388179" lon="104.618957"><ele>330.12628</ele><time>2026-07-15T03:54:19.000Z</time></trkpt>
        <trkpt lat="29.388194" lon="104.619028"><ele>330.29205</ele><time>2026-07-15T03:54:20.000Z</time></trkpt>
        <trkpt lat="29.388196" lon="104.6191"><ele>330.231</ele><time>2026-07-15T03:54:21.000Z</time></trkpt>
        <trkpt lat="29.388184" lon="104.619174"><ele>330.20465</ele><time>2026-07-15T03:54:22.000Z</time></trkpt>
        <trkpt lat="29.388161" lon="104.61925"><ele>330.34274</ele><time>2026-07-15T03:54:23.000Z</time></trkpt>
        <trkpt lat="29.388127" lon="104.619331"><ele>330.51492</ele><time>2026-07-15T03:54:24.000Z</time></trkpt>
        <trkpt lat="29.388084" lon="104.619416"><ele>331.02695</ele><time>2026-07-15T03:54:25.000Z</time></trkpt>
        <trkpt lat="29.388033" lon="104.619505"><ele>331.42184</ele><time>2026-07-15T03:54:26.000Z</time></trkpt>
        <trkpt lat="29.387977" lon="104.619597"><ele>331.12903</ele><time>2026-07-15T03:54:27.000Z</time></trkpt>
        <trkpt lat="29.387916" lon="104.619694"><ele>331.31955</ele><time>2026-07-15T03:54:28.000Z</time></trkpt>
        <trkpt lat="29.38785" lon="104.619795"><ele>331.41907</ele><time>2026-07-15T03:54:29.000Z</time></trkpt>
        <trkpt lat="29.387782" lon="104.6199"><ele>331.742</ele><time>2026-07-15T03:54:30.000Z</time></trkpt>
        <trkpt lat="29.387711" lon="104.62001"><ele>331.73087</ele><time>2026-07-15T03:54:31.000Z</time></trkpt>
        <trkpt lat="29.387639" lon="104.620124"><ele>331.46103</ele><time>2026-07-15T03:54:32.000Z</time></trkpt>
        <trkpt lat="29.387565" lon="104.620242"><ele>331.10968</ele><time>2026-07-15T03:54:33.000Z</time></trkpt>
        <trkpt lat="29.38749" lon="104.620364"><ele>331.0679</ele><time>2026-07-15T03:54:34.000Z</time></trkpt>
        <trkpt lat="29.387413" lon="104.620491"><ele>331.0274</ele><time>2026-07-15T03:54:35.000Z</time></trkpt>
        <trkpt lat="29.387337" lon="104.620621"><ele>330.5013</ele><time>2026-07-15T03:54:36.000Z</time></trkpt>
        <trkpt lat="29.38725" lon="104.620742"><ele>329.73462</ele><time>2026-07-15T03:54:37.000Z</time></trkpt>
        <trkpt lat="29.387154" lon="104.620863"><ele>329.23962</ele><time>2026-07-15T03:54:38.000Z</time></trkpt>
        <trkpt lat="29.38706" lon="104.620979"><ele>328.54443</ele><time>2026-07-15T03:54:39.000Z</time></trkpt>
        <trkpt lat="29.386971" lon="104.62109"><ele>328.23953</ele><time>2026-07-15T03:54:40.000Z</time></trkpt>
        <trkpt lat="29.386891" lon="104.621191"><ele>327.8661</ele><time>2026-07-15T03:54:41.000Z</time></trkpt>
        <trkpt lat="29.386822" lon="104.621279"><ele>327.80182</ele><time>2026-07-15T03:54:42.000Z</time></trkpt>
        <trkpt lat="29.386764" lon="104.621352"><ele>327.70914</ele><time>2026-07-15T03:54:43.000Z</time></trkpt>
        <trkpt lat="29.386715" lon="104.621413"><ele>327.55496</ele><time>2026-07-15T03:54:44.000Z</time></trkpt>
        <trkpt lat="29.386671" lon="104.621461"><ele>327.44275</ele><time>2026-07-15T03:54:45.000Z</time></trkpt>
        <trkpt lat="29.386632" lon="104.621495"><ele>327.15796</ele><time>2026-07-15T03:54:46.000Z</time></trkpt>
        <trkpt lat="29.386599" lon="104.621517"><ele>327.2493</ele><time>2026-07-15T03:54:47.000Z</time></trkpt>
        <trkpt lat="29.386572" lon="104.621522"><ele>327.24164</ele><time>2026-07-15T03:54:48.000Z</time></trkpt>
        <trkpt lat="29.386572" lon="104.621522"><ele>326.7092</ele><time>2026-07-15T03:54:50.000Z</time></trkpt>
        <trkpt lat="29.38655" lon="104.621416"><ele>326.901</ele><time>2026-07-15T03:54:57.000Z</time></trkpt>
        <trkpt lat="29.386539" lon="104.621393"><ele>327.1124</ele><time>2026-07-15T03:54:58.000Z</time></trkpt>
        <trkpt lat="29.386518" lon="104.621361"><ele>327.47745</ele><time>2026-07-15T03:54:58.000Z</time></trkpt>
        <trkpt lat="29.386489" lon="104.621325"><ele>328.0823</ele><time>2026-07-15T03:54:59.000Z</time></trkpt>
        <trkpt lat="29.386453" lon="104.621285"><ele>328.55472</ele><time>2026-07-15T03:55:00.000Z</time></trkpt>
        <trkpt lat="29.386408" lon="104.621242"><ele>329.01755</ele><time>2026-07-15T03:55:01.000Z</time></trkpt>
        <trkpt lat="29.386355" lon="104.621195"><ele>329.30707</ele><time>2026-07-15T03:55:02.000Z</time></trkpt>
        <trkpt lat="29.386295" lon="104.621146"><ele>330.03336</ele><time>2026-07-15T03:55:03.000Z</time></trkpt>
        <trkpt lat="29.386228" lon="104.621095"><ele>330.48828</ele><time>2026-07-15T03:55:04.000Z</time></trkpt>
        <trkpt lat="29.386155" lon="104.62104"><ele>331.114</ele><time>2026-07-15T03:55:05.000Z</time></trkpt>
        <trkpt lat="29.386077" lon="104.620982"><ele>331.3694</ele><time>2026-07-15T03:55:06.000Z</time></trkpt>
        <trkpt lat="29.385993" lon="104.620922"><ele>331.63168</ele><time>2026-07-15T03:55:07.000Z</time></trkpt>
        <trkpt lat="29.385906" lon="104.620859"><ele>331.9279</ele><time>2026-07-15T03:55:08.000Z</time></trkpt>
        <trkpt lat="29.385817" lon="104.620795"><ele>332.32944</ele><time>2026-07-15T03:55:09.000Z</time></trkpt>
        <trkpt lat="29.385724" lon="104.620729"><ele>332.50452</ele><time>2026-07-15T03:55:10.000Z</time></trkpt>
        <trkpt lat="29.38563" lon="104.620662"><ele>332.82138</ele><time>2026-07-15T03:55:11.000Z</time></trkpt>
        <trkpt lat="29.385534" lon="104.620595"><ele>333.1905</ele><time>2026-07-15T03:55:12.000Z</time></trkpt>
        <trkpt lat="29.385438" lon="104.620526"><ele>333.71118</ele><time>2026-07-15T03:55:13.000Z</time></trkpt>
        <trkpt lat="29.38534" lon="104.620457"><ele>334.39062</ele><time>2026-07-15T03:55:14.000Z</time></trkpt>
        <trkpt lat="29.385241" lon="104.620388"><ele>334.4294</ele><time>2026-07-15T03:55:15.000Z</time></trkpt>
        <trkpt lat="29.385142" lon="104.620318"><ele>334.4184</ele><time>2026-07-15T03:55:16.000Z</time></trkpt>
        <trkpt lat="29.385042" lon="104.620249"><ele>334.51346</ele><time>2026-07-15T03:55:17.000Z</time></trkpt>
        <trkpt lat="29.384941" lon="104.62018"><ele>335.03845</ele><time>2026-07-15T03:55:19.000Z</time></trkpt>
        <trkpt lat="29.38484" lon="104.620112"><ele>335.44357</ele><time>2026-07-15T03:55:20.000Z</time></trkpt>
        <trkpt lat="29.384739" lon="104.620045"><ele>335.95694</ele><time>2026-07-15T03:55:21.000Z</time></trkpt>
        <trkpt lat="29.384638" lon="104.619976"><ele>336.59622</ele><time>2026-07-15T03:55:22.000Z</time></trkpt>
        <trkpt lat="29.384538" lon="104.619907"><ele>337.2378</ele><time>2026-07-15T03:55:23.000Z</time></trkpt>
        <trkpt lat="29.384439" lon="104.619838"><ele>337.73685</ele><time>2026-07-15T03:55:24.000Z</time></trkpt>
        <trkpt lat="29.384342" lon="104.619769"><ele>338.00897</ele><time>2026-07-15T03:55:25.000Z</time></trkpt>
        <trkpt lat="29.384246" lon="104.619703"><ele>338.37747</ele><time>2026-07-15T03:55:26.000Z</time></trkpt>
        <trkpt lat="29.384153" lon="104.619638"><ele>338.5358</ele><time>2026-07-15T03:55:27.000Z</time></trkpt>
        <trkpt lat="29.384064" lon="104.619576"><ele>338.8118</ele><time>2026-07-15T03:55:28.000Z</time></trkpt>
        <trkpt lat="29.383979" lon="104.619516"><ele>338.91928</ele><time>2026-07-15T03:55:29.000Z</time></trkpt>
        <trkpt lat="29.383899" lon="104.619459"><ele>339.17374</ele><time>2026-07-15T03:55:30.000Z</time></trkpt>
        <trkpt lat="29.383821" lon="104.619405"><ele>339.38208</ele><time>2026-07-15T03:55:31.000Z</time></trkpt>
        <trkpt lat="29.383747" lon="104.619353"><ele>339.37317</ele><time>2026-07-15T03:55:32.000Z</time></trkpt>
        <trkpt lat="29.383674" lon="104.619302"><ele>339.5016</ele><time>2026-07-15T03:55:33.000Z</time></trkpt>
        <trkpt lat="29.383603" lon="104.619254"><ele>339.739</ele><time>2026-07-15T03:55:34.000Z</time></trkpt>
        <trkpt lat="29.383533" lon="104.619206"><ele>339.80524</ele><time>2026-07-15T03:55:35.000Z</time></trkpt>
        <trkpt lat="29.383465" lon="104.61916"><ele>340.02475</ele><time>2026-07-15T03:55:36.000Z</time></trkpt>
        <trkpt lat="29.383398" lon="104.619115"><ele>340.6467</ele><time>2026-07-15T03:55:37.000Z</time></trkpt>
        <trkpt lat="29.383333" lon="104.619072"><ele>341.19778</ele><time>2026-07-15T03:55:38.000Z</time></trkpt>
        <trkpt lat="29.38327" lon="104.619031"><ele>341.75412</ele><time>2026-07-15T03:55:39.000Z</time></trkpt>
        <trkpt lat="29.38321" lon="104.618992"><ele>342.25763</ele><time>2026-07-15T03:55:40.000Z</time></trkpt>
        <trkpt lat="29.383152" lon="104.618958"><ele>342.34067</ele><time>2026-07-15T03:55:41.000Z</time></trkpt>
        <trkpt lat="29.383099" lon="104.618926"><ele>342.73776</ele><time>2026-07-15T03:55:42.000Z</time></trkpt>
        <trkpt lat="29.383052" lon="104.618898"><ele>342.72116</ele><time>2026-07-15T03:55:43.000Z</time></trkpt>
        <trkpt lat="29.383008" lon="104.618888"><ele>342.89438</ele><time>2026-07-15T03:55:44.000Z</time></trkpt>
        <trkpt lat="29.382975" lon="104.618904"><ele>343.04285</ele><time>2026-07-15T03:55:45.000Z</time></trkpt>
        <trkpt lat="29.382899" lon="104.618965"><ele>343.03757</ele><time>2026-07-15T03:55:47.000Z</time></trkpt>
        <trkpt lat="29.382862" lon="104.619012"><ele>342.88803</ele><time>2026-07-15T03:55:48.000Z</time></trkpt>
        <trkpt lat="29.382823" lon="104.619077"><ele>342.85242</ele><time>2026-07-15T03:55:49.000Z</time></trkpt>
        <trkpt lat="29.382784" lon="104.619156"><ele>342.53943</ele><time>2026-07-15T03:55:50.000Z</time></trkpt>
        <trkpt lat="29.382744" lon="104.619244"><ele>342.18695</ele><time>2026-07-15T03:55:51.000Z</time></trkpt>
        <trkpt lat="29.382703" lon="104.619341"><ele>341.64697</ele><time>2026-07-15T03:55:52.000Z</time></trkpt>
        <trkpt lat="29.382658" lon="104.619446"><ele>340.9229</ele><time>2026-07-15T03:55:53.000Z</time></trkpt>
        <trkpt lat="29.382612" lon="104.619556"><ele>340.17706</ele><time>2026-07-15T03:55:54.000Z</time></trkpt>
        <trkpt lat="29.382561" lon="104.619673"><ele>339.722</ele><time>2026-07-15T03:55:55.000Z</time></trkpt>
        <trkpt lat="29.382508" lon="104.619795"><ele>339.3925</ele><time>2026-07-15T03:55:56.000Z</time></trkpt>
        <trkpt lat="29.382451" lon="104.619922"><ele>339.0677</ele><time>2026-07-15T03:55:57.000Z</time></trkpt>
        <trkpt lat="29.382391" lon="104.620051"><ele>338.58298</ele><time>2026-07-15T03:55:58.000Z</time></trkpt>
        <trkpt lat="29.382329" lon="104.620184"><ele>338.46204</ele><time>2026-07-15T03:55:59.000Z</time></trkpt>
        <trkpt lat="29.382265" lon="104.620317"><ele>338.07867</ele><time>2026-07-15T03:56:00.000Z</time></trkpt>
        <trkpt lat="29.382201" lon="104.620447"><ele>337.8645</ele><time>2026-07-15T03:56:01.000Z</time></trkpt>
        <trkpt lat="29.382139" lon="104.620572"><ele>337.63446</ele><time>2026-07-15T03:56:02.000Z</time></trkpt>
        <trkpt lat="29.382078" lon="104.620692"><ele>337.26703</ele><time>2026-07-15T03:56:03.000Z</time></trkpt>
        <trkpt lat="29.382019" lon="104.620808"><ele>337.12286</ele><time>2026-07-15T03:56:04.000Z</time></trkpt>
        <trkpt lat="29.381961" lon="104.620919"><ele>336.74988</ele><time>2026-07-15T03:56:05.000Z</time></trkpt>
        <trkpt lat="29.381905" lon="104.621026"><ele>336.5066</ele><time>2026-07-15T03:56:06.000Z</time></trkpt>
        <trkpt lat="29.38185" lon="104.62113"><ele>336.4053</ele><time>2026-07-15T03:56:07.000Z</time></trkpt>
        <trkpt lat="29.381796" lon="104.621231"><ele>336.28043</ele><time>2026-07-15T03:56:08.000Z</time></trkpt>
        <trkpt lat="29.381741" lon="104.621329"><ele>336.14825</ele><time>2026-07-15T03:56:09.000Z</time></trkpt>
        <trkpt lat="29.381687" lon="104.621426"><ele>335.7784</ele><time>2026-07-15T03:56:10.000Z</time></trkpt>
        <trkpt lat="29.381632" lon="104.621522"><ele>335.37634</ele><time>2026-07-15T03:56:11.000Z</time></trkpt>
        <trkpt lat="29.381579" lon="104.621617"><ele>335.00595</ele><time>2026-07-15T03:56:12.000Z</time></trkpt>
        <trkpt lat="29.381528" lon="104.621709"><ele>334.75848</ele><time>2026-07-15T03:56:13.000Z</time></trkpt>
        <trkpt lat="29.381478" lon="104.621801"><ele>334.05164</ele><time>2026-07-15T03:56:14.000Z</time></trkpt>
        <trkpt lat="29.38143" lon="104.62189"><ele>333.10745</ele><time>2026-07-15T03:56:15.000Z</time></trkpt>
        <trkpt lat="29.381383" lon="104.621977"><ele>332.55353</ele><time>2026-07-15T03:56:16.000Z</time></trkpt>
        <trkpt lat="29.381339" lon="104.62206"><ele>332.3866</ele><time>2026-07-15T03:56:17.000Z</time></trkpt>
        <trkpt lat="29.381297" lon="104.622137"><ele>332.30997</ele><time>2026-07-15T03:56:18.000Z</time></trkpt>
        <trkpt lat="29.38126" lon="104.622208"><ele>332.33963</ele><time>2026-07-15T03:56:19.000Z</time></trkpt>
        <trkpt lat="29.381226" lon="104.622274"><ele>332.47748</ele><time>2026-07-15T03:56:20.000Z</time></trkpt>
        <trkpt lat="29.381196" lon="104.622338"><ele>332.59683</ele><time>2026-07-15T03:56:21.000Z</time></trkpt>
        <trkpt lat="29.381168" lon="104.622399"><ele>332.92633</ele><time>2026-07-15T03:56:22.000Z</time></trkpt>
        <trkpt lat="29.381151" lon="104.622457"><ele>332.7538</ele><time>2026-07-15T03:56:23.000Z</time></trkpt>
        <trkpt lat="29.381144" lon="104.622516"><ele>333.16507</ele><time>2026-07-15T03:56:24.000Z</time></trkpt>
        <trkpt lat="29.38115" lon="104.622576"><ele>333.8413</ele><time>2026-07-15T03:56:25.000Z</time></trkpt>
        <trkpt lat="29.381168" lon="104.622629"><ele>333.79916</ele><time>2026-07-15T03:56:26.000Z</time></trkpt>
        <trkpt lat="29.381197" lon="104.622677"><ele>334.2634</ele><time>2026-07-15T03:56:27.000Z</time></trkpt>
        <trkpt lat="29.381236" lon="104.62272"><ele>334.23685</ele><time>2026-07-15T03:56:28.000Z</time></trkpt>
        <trkpt lat="29.381285" lon="104.622761"><ele>334.4243</ele><time>2026-07-15T03:56:29.000Z</time></trkpt>
        <trkpt lat="29.381341" lon="104.6228"><ele>334.8522</ele><time>2026-07-15T03:56:30.000Z</time></trkpt>
        <trkpt lat="29.381403" lon="104.622837"><ele>335.1512</ele><time>2026-07-15T03:56:31.000Z</time></trkpt>
        <trkpt lat="29.38147" lon="104.622873"><ele>335.43265</ele><time>2026-07-15T03:56:32.000Z</time></trkpt>
        <trkpt lat="29.38154" lon="104.622908"><ele>335.43185</ele><time>2026-07-15T03:56:33.000Z</time></trkpt>
        <trkpt lat="29.381611" lon="104.622944"><ele>335.3993</ele><time>2026-07-15T03:56:34.000Z</time></trkpt>
        <trkpt lat="29.381685" lon="104.62298"><ele>335.4338</ele><time>2026-07-15T03:56:35.000Z</time></trkpt>
        <trkpt lat="29.38176" lon="104.62302"><ele>335.2775</ele><time>2026-07-15T03:56:36.000Z</time></trkpt>
        <trkpt lat="29.381837" lon="104.623061"><ele>335.24066</ele><time>2026-07-15T03:56:37.000Z</time></trkpt>
        <trkpt lat="29.381915" lon="104.623105"><ele>335.08884</ele><time>2026-07-15T03:56:38.000Z</time></trkpt>
        <trkpt lat="29.381995" lon="104.623151"><ele>334.65738</ele><time>2026-07-15T03:56:39.000Z</time></trkpt>
        <trkpt lat="29.382076" lon="104.623198"><ele>333.8499</ele><time>2026-07-15T03:56:40.000Z</time></trkpt>
        <trkpt lat="29.382157" lon="104.623247"><ele>333.3553</ele><time>2026-07-15T03:56:41.000Z</time></trkpt>
        <trkpt lat="29.38224" lon="104.623299"><ele>332.96497</ele><time>2026-07-15T03:56:42.000Z</time></trkpt>
        <trkpt lat="29.382324" lon="104.623353"><ele>331.73364</ele><time>2026-07-15T03:56:43.000Z</time></trkpt>
        <trkpt lat="29.382408" lon="104.623409"><ele>330.95737</ele><time>2026-07-15T03:56:44.000Z</time></trkpt>
        <trkpt lat="29.382495" lon="104.623467"><ele>330.2495</ele><time>2026-07-15T03:56:45.000Z</time></trkpt>
        <trkpt lat="29.382582" lon="104.623526"><ele>329.69467</ele><time>2026-07-15T03:56:46.000Z</time></trkpt>
        <trkpt lat="29.38267" lon="104.623588"><ele>328.75772</ele><time>2026-07-15T03:56:47.000Z</time></trkpt>
        <trkpt lat="29.382755" lon="104.62365"><ele>329.5376</ele><time>2026-07-15T03:56:48.000Z</time></trkpt>
        <trkpt lat="29.382839" lon="104.623711"><ele>328.66824</ele><time>2026-07-15T03:56:49.000Z</time></trkpt>
        <trkpt lat="29.382918" lon="104.62377"><ele>328.2267</ele><time>2026-07-15T03:56:50.000Z</time></trkpt>
        <trkpt lat="29.382994" lon="104.623826"><ele>327.35617</ele><time>2026-07-15T03:56:51.000Z</time></trkpt>
        <trkpt lat="29.383066" lon="104.623879"><ele>328.96796</ele><time>2026-07-15T03:56:52.000Z</time></trkpt>
        <trkpt lat="29.383132" lon="104.623929"><ele>326.91095</ele><time>2026-07-15T03:56:53.000Z</time></trkpt>
        <trkpt lat="29.383193" lon="104.623975"><ele>326.42484</ele><time>2026-07-15T03:56:54.000Z</time></trkpt>
        <trkpt lat="29.383252" lon="104.624018"><ele>327.0561</ele><time>2026-07-15T03:56:55.000Z</time></trkpt>
        <trkpt lat="29.383308" lon="104.624059"><ele>326.09418</ele><time>2026-07-15T03:56:56.000Z</time></trkpt>
        <trkpt lat="29.383363" lon="104.624098"><ele>325.7418</ele><time>2026-07-15T03:56:57.000Z</time></trkpt>
        <trkpt lat="29.383417" lon="104.624135"><ele>325.24115</ele><time>2026-07-15T03:56:58.000Z</time></trkpt>
        <trkpt lat="29.383471" lon="104.624172"><ele>325.21838</ele><time>2026-07-15T03:56:59.000Z</time></trkpt>
        <trkpt lat="29.383526" lon="104.62421"><ele>325.4045</ele><time>2026-07-15T03:57:00.000Z</time></trkpt>
        <trkpt lat="29.383585" lon="104.624249"><ele>325.72488</ele><time>2026-07-15T03:57:01.000Z</time></trkpt>
        <trkpt lat="29.383645" lon="104.624289"><ele>325.93396</ele><time>2026-07-15T03:57:02.000Z</time></trkpt>
        <trkpt lat="29.383706" lon="104.624329"><ele>326.14154</ele><time>2026-07-15T03:57:03.000Z</time></trkpt>
        <trkpt lat="29.383767" lon="104.624368"><ele>325.851</ele><time>2026-07-15T03:57:04.000Z</time></trkpt>
        <trkpt lat="29.383826" lon="104.624405"><ele>325.9828</ele><time>2026-07-15T03:57:05.000Z</time></trkpt>
        <trkpt lat="29.383884" lon="104.624441"><ele>325.59204</ele><time>2026-07-15T03:57:06.000Z</time></trkpt>
        <trkpt lat="29.38394" lon="104.624476"><ele>325.73917</ele><time>2026-07-15T03:57:07.000Z</time></trkpt>
        <trkpt lat="29.383998" lon="104.62451"><ele>325.9357</ele><time>2026-07-15T03:57:08.000Z</time></trkpt>
        <trkpt lat="29.384055" lon="104.624544"><ele>326.01297</ele><time>2026-07-15T03:57:09.000Z</time></trkpt>
        <trkpt lat="29.384114" lon="104.624577"><ele>325.22998</ele><time>2026-07-15T03:57:10.000Z</time></trkpt>
        <trkpt lat="29.384172" lon="104.624611"><ele>324.84384</ele><time>2026-07-15T03:57:11.000Z</time></trkpt>
        <trkpt lat="29.384227" lon="104.624643"><ele>324.14474</ele><time>2026-07-15T03:57:12.000Z</time></trkpt>
        <trkpt lat="29.384275" lon="104.624671"><ele>323.7254</ele><time>2026-07-15T03:57:13.000Z</time></trkpt>
        <trkpt lat="29.384315" lon="104.624696"><ele>323.50873</ele><time>2026-07-15T03:57:14.000Z</time></trkpt>
        <trkpt lat="29.384346" lon="104.624714"><ele>323.26364</ele><time>2026-07-15T03:57:15.000Z</time></trkpt>
        <trkpt lat="29.384368" lon="104.624728"><ele>323.0633</ele><time>2026-07-15T03:57:16.000Z</time></trkpt>
        <trkpt lat="29.384403" lon="104.624754"><ele>322.6582</ele><time>2026-07-15T03:57:19.000Z</time></trkpt>
        <trkpt lat="29.384434" lon="104.624776"><ele>322.96616</ele><time>2026-07-15T03:57:22.000Z</time></trkpt>
        <trkpt lat="29.384446" lon="104.624785"><ele>322.91745</ele><time>2026-07-15T03:57:23.000Z</time></trkpt>
        <trkpt lat="29.384484" lon="104.624814"><ele>323.12183</ele><time>2026-07-15T03:57:26.000Z</time></trkpt>
        <trkpt lat="29.384518" lon="104.62484"><ele>323.5168</ele><time>2026-07-15T03:57:29.000Z</time></trkpt>
        <trkpt lat="29.384536" lon="104.624853"><ele>323.60483</ele><time>2026-07-15T03:57:30.000Z</time></trkpt>
        <trkpt lat="29.38456" lon="104.624871"><ele>323.7479</ele><time>2026-07-15T03:57:31.000Z</time></trkpt>
        <trkpt lat="29.384617" lon="104.624912"><ele>323.44257</ele><time>2026-07-15T03:57:33.000Z</time></trkpt>
        <trkpt lat="29.384649" lon="104.624934"><ele>323.34314</ele><time>2026-07-15T03:57:34.000Z</time></trkpt>
        <trkpt lat="29.384683" lon="104.624959"><ele>323.11865</ele><time>2026-07-15T03:57:35.000Z</time></trkpt>
        <trkpt lat="29.38472" lon="104.624986"><ele>322.9913</ele><time>2026-07-15T03:57:36.000Z</time></trkpt>
        <trkpt lat="29.384815" lon="104.625055"><ele>322.89825</ele><time>2026-07-15T03:57:37.000Z</time></trkpt>
        <trkpt lat="29.384828" lon="104.625064"><ele>322.4079</ele><time>2026-07-15T03:57:38.000Z</time></trkpt>
        <trkpt lat="29.384839" lon="104.625071"><ele>321.76395</ele><time>2026-07-15T03:57:41.000Z</time></trkpt>
        <trkpt lat="29.384916" lon="104.625121"><ele>321.64972</ele><time>2026-07-15T03:57:44.000Z</time></trkpt>
        <trkpt lat="29.385074" lon="104.625225"><ele>321.48987</ele><time>2026-07-15T03:57:45.000Z</time></trkpt>
        <trkpt lat="29.385096" lon="104.62524"><ele>321.4181</ele><time>2026-07-15T03:57:46.000Z</time></trkpt>
        <trkpt lat="29.38523" lon="104.625329"><ele>321.2506</ele><time>2026-07-15T03:57:49.000Z</time></trkpt>
        <trkpt lat="29.38523" lon="104.625329"><ele>321.22067</ele><time>2026-07-15T03:57:50.000Z</time></trkpt>
        <trkpt lat="29.38523" lon="104.625329"><ele>321.2435</ele><time>2026-07-15T03:57:51.000Z</time></trkpt>
        <trkpt lat="29.385154" lon="104.625165"><ele>322.057</ele><time>2026-07-15T03:58:00.000Z</time></trkpt>
        <trkpt lat="29.38512" lon="104.625115"><ele>322.08804</ele><time>2026-07-15T03:58:01.000Z</time></trkpt>
        <trkpt lat="29.385072" lon="104.625058"><ele>322.23233</ele><time>2026-07-15T03:58:02.000Z</time></trkpt>
        <trkpt lat="29.385017" lon="104.625"><ele>322.1985</ele><time>2026-07-15T03:58:03.000Z</time></trkpt>
        <trkpt lat="29.384955" lon="104.624944"><ele>322.4598</ele><time>2026-07-15T03:58:04.000Z</time></trkpt>
        <trkpt lat="29.384889" lon="104.624888"><ele>322.52563</ele><time>2026-07-15T03:58:05.000Z</time></trkpt>
        <trkpt lat="29.38482" lon="104.624833"><ele>322.65878</ele><time>2026-07-15T03:58:06.000Z</time></trkpt>
        <trkpt lat="29.384748" lon="104.624779"><ele>322.8688</ele><time>2026-07-15T03:58:07.000Z</time></trkpt>
        <trkpt lat="29.384675" lon="104.624726"><ele>323.1738</ele><time>2026-07-15T03:58:08.000Z</time></trkpt>
        <trkpt lat="29.3846" lon="104.624673"><ele>323.27695</ele><time>2026-07-15T03:58:09.000Z</time></trkpt>
        <trkpt lat="29.384525" lon="104.62462"><ele>323.45178</ele><time>2026-07-15T03:58:10.000Z</time></trkpt>
        <trkpt lat="29.384446" lon="104.624566"><ele>323.51227</ele><time>2026-07-15T03:58:11.000Z</time></trkpt>
        <trkpt lat="29.384366" lon="104.624511"><ele>323.7072</ele><time>2026-07-15T03:58:12.000Z</time></trkpt>
        <trkpt lat="29.384282" lon="104.624454"><ele>323.86642</ele><time>2026-07-15T03:58:13.000Z</time></trkpt>
        <trkpt lat="29.384196" lon="104.624395"><ele>324.01584</ele><time>2026-07-15T03:58:14.000Z</time></trkpt>
        <trkpt lat="29.384106" lon="104.624333"><ele>324.3713</ele><time>2026-07-15T03:58:15.000Z</time></trkpt>
        <trkpt lat="29.384013" lon="104.62427"><ele>324.6342</ele><time>2026-07-15T03:58:16.000Z</time></trkpt>
        <trkpt lat="29.383916" lon="104.624203"><ele>325.17343</ele><time>2026-07-15T03:58:17.000Z</time></trkpt>
        <trkpt lat="29.383818" lon="104.624134"><ele>325.31622</ele><time>2026-07-15T03:58:18.000Z</time></trkpt>
        <trkpt lat="29.383717" lon="104.624063"><ele>325.49396</ele><time>2026-07-15T03:58:19.000Z</time></trkpt>
        <trkpt lat="29.383613" lon="104.623988"><ele>325.31454</ele><time>2026-07-15T03:58:20.000Z</time></trkpt>
        <trkpt lat="29.383507" lon="104.623913"><ele>325.18808</ele><time>2026-07-15T03:58:21.000Z</time></trkpt>
        <trkpt lat="29.383398" lon="104.623836"><ele>325.09586</ele><time>2026-07-15T03:58:22.000Z</time></trkpt>
        <trkpt lat="29.383287" lon="104.623758"><ele>325.04227</ele><time>2026-07-15T03:58:23.000Z</time></trkpt>
        <trkpt lat="29.383175" lon="104.623679"><ele>325.05276</ele><time>2026-07-15T03:58:24.000Z</time></trkpt>
        <trkpt lat="29.383065" lon="104.6236"><ele>324.94244</ele><time>2026-07-15T03:58:25.000Z</time></trkpt>
        <trkpt lat="29.382956" lon="104.623522"><ele>324.94855</ele><time>2026-07-15T03:58:26.000Z</time></trkpt>
        <trkpt lat="29.38285" lon="104.623445"><ele>325.1096</ele><time>2026-07-15T03:58:27.000Z</time></trkpt>
        <trkpt lat="29.382746" lon="104.623372"><ele>325.25177</ele><time>2026-07-15T03:58:28.000Z</time></trkpt>
        <trkpt lat="29.382646" lon="104.6233"><ele>325.24557</ele><time>2026-07-15T03:58:29.000Z</time></trkpt>
        <trkpt lat="29.382549" lon="104.623232"><ele>325.2754</ele><time>2026-07-15T03:58:30.000Z</time></trkpt>
        <trkpt lat="29.382456" lon="104.623168"><ele>325.06937</ele><time>2026-07-15T03:58:31.000Z</time></trkpt>
        <trkpt lat="29.382364" lon="104.623106"><ele>325.30655</ele><time>2026-07-15T03:58:32.000Z</time></trkpt>
        <trkpt lat="29.382273" lon="104.623044"><ele>325.63947</ele><time>2026-07-15T03:58:33.000Z</time></trkpt>
        <trkpt lat="29.382182" lon="104.622983"><ele>326.25092</ele><time>2026-07-15T03:58:34.000Z</time></trkpt>
        <trkpt lat="29.382092" lon="104.622922"><ele>326.9807</ele><time>2026-07-15T03:58:35.000Z</time></trkpt>
        <trkpt lat="29.382002" lon="104.622861"><ele>327.74622</ele><time>2026-07-15T03:58:36.000Z</time></trkpt>
        <trkpt lat="29.381913" lon="104.6228"><ele>328.30978</ele><time>2026-07-15T03:58:37.000Z</time></trkpt>
        <trkpt lat="29.381825" lon="104.622739"><ele>329.52112</ele><time>2026-07-15T03:58:38.000Z</time></trkpt>
        <trkpt lat="29.381738" lon="104.62268"><ele>329.45224</ele><time>2026-07-15T03:58:39.000Z</time></trkpt>
        <trkpt lat="29.381654" lon="104.622622"><ele>329.75455</ele><time>2026-07-15T03:58:40.000Z</time></trkpt>
        <trkpt lat="29.381575" lon="104.622567"><ele>329.91687</ele><time>2026-07-15T03:58:41.000Z</time></trkpt>
        <trkpt lat="29.381501" lon="104.622516"><ele>330.55447</ele><time>2026-07-15T03:58:42.000Z</time></trkpt>
        <trkpt lat="29.381433" lon="104.622469"><ele>331.32916</ele><time>2026-07-15T03:58:43.000Z</time></trkpt>
        <trkpt lat="29.381373" lon="104.622422"><ele>331.91364</ele><time>2026-07-15T03:58:44.000Z</time></trkpt>
        <trkpt lat="29.381323" lon="104.622368"><ele>332.3166</ele><time>2026-07-15T03:58:45.000Z</time></trkpt>
        <trkpt lat="29.381287" lon="104.62231"><ele>332.7885</ele><time>2026-07-15T03:58:46.000Z</time></trkpt>
        <trkpt lat="29.381264" lon="104.62225"><ele>333.2407</ele><time>2026-07-15T03:58:47.000Z</time></trkpt>
        <trkpt lat="29.381254" lon="104.622188"><ele>333.45502</ele><time>2026-07-15T03:58:48.000Z</time></trkpt>
        <trkpt lat="29.381256" lon="104.622125"><ele>333.9509</ele><time>2026-07-15T03:58:49.000Z</time></trkpt>
        <trkpt lat="29.38127" lon="104.622061"><ele>333.95282</ele><time>2026-07-15T03:58:50.000Z</time></trkpt>
        <trkpt lat="29.381294" lon="104.621994"><ele>333.87326</ele><time>2026-07-15T03:58:51.000Z</time></trkpt>
        <trkpt lat="29.381326" lon="104.621924"><ele>333.84485</ele><time>2026-07-15T03:58:52.000Z</time></trkpt>
        <trkpt lat="29.381367" lon="104.621853"><ele>333.65448</ele><time>2026-07-15T03:58:53.000Z</time></trkpt>
        <trkpt lat="29.381413" lon="104.62178"><ele>333.35062</ele><time>2026-07-15T03:58:54.000Z</time></trkpt>
        <trkpt lat="29.381464" lon="104.621705"><ele>333.12683</ele><time>2026-07-15T03:58:55.000Z</time></trkpt>
        <trkpt lat="29.381518" lon="104.621628"><ele>332.69406</ele><time>2026-07-15T03:58:56.000Z</time></trkpt>
        <trkpt lat="29.381574" lon="104.621549"><ele>332.35736</ele><time>2026-07-15T03:58:57.000Z</time></trkpt>
        <trkpt lat="29.381632" lon="104.621468"><ele>332.22235</ele><time>2026-07-15T03:58:58.000Z</time></trkpt>
        <trkpt lat="29.381691" lon="104.621385"><ele>331.5426</ele><time>2026-07-15T03:58:59.000Z</time></trkpt>
        <trkpt lat="29.38175" lon="104.6213"><ele>331.24423</ele><time>2026-07-15T03:59:00.000Z</time></trkpt>
        <trkpt lat="29.38181" lon="104.621212"><ele>330.86252</ele><time>2026-07-15T03:59:01.000Z</time></trkpt>
        <trkpt lat="29.381869" lon="104.621122"><ele>330.5525</ele><time>2026-07-15T03:59:02.000Z</time></trkpt>
        <trkpt lat="29.381928" lon="104.62103"><ele>330.46573</ele><time>2026-07-15T03:59:03.000Z</time></trkpt>
        <trkpt lat="29.381987" lon="104.620936"><ele>330.41238</ele><time>2026-07-15T03:59:04.000Z</time></trkpt>
        <trkpt lat="29.382046" lon="104.620839"><ele>330.4941</ele><time>2026-07-15T03:59:05.000Z</time></trkpt>
        <trkpt lat="29.382104" lon="104.62074"><ele>330.57635</ele><time>2026-07-15T03:59:06.000Z</time></trkpt>
        <trkpt lat="29.382162" lon="104.620639"><ele>330.3786</ele><time>2026-07-15T03:59:07.000Z</time></trkpt>
        <trkpt lat="29.38222" lon="104.620537"><ele>330.12167</ele><time>2026-07-15T03:59:08.000Z</time></trkpt>
        <trkpt lat="29.382277" lon="104.620435"><ele>330.20135</ele><time>2026-07-15T03:59:09.000Z</time></trkpt>
        <trkpt lat="29.382333" lon="104.620335"><ele>330.0899</ele><time>2026-07-15T03:59:10.000Z</time></trkpt>
        <trkpt lat="29.382387" lon="104.620238"><ele>330.08206</ele><time>2026-07-15T03:59:10.000Z</time></trkpt>
        <trkpt lat="29.382439" lon="104.620145"><ele>330.0975</ele><time>2026-07-15T03:59:11.000Z</time></trkpt>
        <trkpt lat="29.382489" lon="104.620058"><ele>330.06967</ele><time>2026-07-15T03:59:12.000Z</time></trkpt>
        <trkpt lat="29.382536" lon="104.619978"><ele>330.09323</ele><time>2026-07-15T03:59:13.000Z</time></trkpt>
        <trkpt lat="29.382579" lon="104.619905"><ele>330.27573</ele><time>2026-07-15T03:59:14.000Z</time></trkpt>
        <trkpt lat="29.382619" lon="104.619839"><ele>330.57617</ele><time>2026-07-15T03:59:15.000Z</time></trkpt>
        <trkpt lat="29.382652" lon="104.619783"><ele>330.96838</ele><time>2026-07-15T03:59:16.000Z</time></trkpt>
        <trkpt lat="29.382677" lon="104.619739"><ele>330.67734</ele><time>2026-07-15T03:59:17.000Z</time></trkpt>
        <trkpt lat="29.382695" lon="104.619708"><ele>330.95258</ele><time>2026-07-15T03:59:18.000Z</time></trkpt>
        <trkpt lat="29.382705" lon="104.619686"><ele>331.0576</ele><time>2026-07-15T03:59:19.000Z</time></trkpt>
        <trkpt lat="29.382734" lon="104.619625"><ele>333.73392</ele><time>2026-07-15T03:59:31.000Z</time></trkpt>
        <trkpt lat="29.382749" lon="104.619595"><ele>333.9891</ele><time>2026-07-15T03:59:32.000Z</time></trkpt>
        <trkpt lat="29.382768" lon="104.619557"><ele>334.47473</ele><time>2026-07-15T03:59:33.000Z</time></trkpt>
        <trkpt lat="29.382816" lon="104.619466"><ele>336.16025</ele><time>2026-07-15T03:59:35.000Z</time></trkpt>
        <trkpt lat="29.382843" lon="104.619414"><ele>336.6626</ele><time>2026-07-15T03:59:36.000Z</time></trkpt>
        <trkpt lat="29.382872" lon="104.619359"><ele>337.02194</ele><time>2026-07-15T03:59:37.000Z</time></trkpt>
        <trkpt lat="29.382902" lon="104.619304"><ele>337.65582</ele><time>2026-07-15T03:59:38.000Z</time></trkpt>
        <trkpt lat="29.38293" lon="104.619251"><ele>337.9371</ele><time>2026-07-15T03:59:39.000Z</time></trkpt>
        <trkpt lat="29.382956" lon="104.619203"><ele>338.54663</ele><time>2026-07-15T03:59:40.000Z</time></trkpt>
        <trkpt lat="29.382979" lon="104.61916"><ele>339.0731</ele><time>2026-07-15T03:59:41.000Z</time></trkpt>
        <trkpt lat="29.382999" lon="104.619122"><ele>339.66315</ele><time>2026-07-15T03:59:42.000Z</time></trkpt>
        <trkpt lat="29.383016" lon="104.619089"><ele>339.9903</ele><time>2026-07-15T03:59:43.000Z</time></trkpt>
        <trkpt lat="29.38303" lon="104.619063"><ele>340.1945</ele><time>2026-07-15T03:59:44.000Z</time></trkpt>
        <trkpt lat="29.383051" lon="104.619023"><ele>340.94223</ele><time>2026-07-15T03:59:46.000Z</time></trkpt>
        <trkpt lat="29.383066" lon="104.618994"><ele>341.46155</ele><time>2026-07-15T03:59:48.000Z</time></trkpt>
        <trkpt lat="29.383079" lon="104.618968"><ele>341.85443</ele><time>2026-07-15T03:59:50.000Z</time></trkpt>
        <trkpt lat="29.383101" lon="104.618925"><ele>342.53363</ele><time>2026-07-15T03:59:52.000Z</time></trkpt>
        <trkpt lat="29.383114" lon="104.618899"><ele>342.57593</ele><time>2026-07-15T03:59:53.000Z</time></trkpt>
        <trkpt lat="29.383131" lon="104.618868"><ele>342.94614</ele><time>2026-07-15T03:59:54.000Z</time></trkpt>
        <trkpt lat="29.383151" lon="104.618832"><ele>343.29022</ele><time>2026-07-15T03:59:55.000Z</time></trkpt>
        <trkpt lat="29.3832" lon="104.618745"><ele>344.00507</ele><time>2026-07-15T03:59:57.000Z</time></trkpt>
        <trkpt lat="29.383228" lon="104.618696"><ele>344.4796</ele><time>2026-07-15T03:59:59.000Z</time></trkpt>
        <trkpt lat="29.383257" lon="104.618644"><ele>344.84894</ele><time>2026-07-15T04:00:00.000Z</time></trkpt>
        <trkpt lat="29.383288" lon="104.618587"><ele>345.35504</ele><time>2026-07-15T04:00:01.000Z</time></trkpt>
        <trkpt lat="29.383321" lon="104.618528"><ele>345.8755</ele><time>2026-07-15T04:00:02.000Z</time></trkpt>
        <trkpt lat="29.383355" lon="104.618466"><ele>346.21475</ele><time>2026-07-15T04:00:03.000Z</time></trkpt>
        <trkpt lat="29.38339" lon="104.618401"><ele>346.19604</ele><time>2026-07-15T04:00:04.000Z</time></trkpt>
        <trkpt lat="29.383426" lon="104.618335"><ele>346.02682</ele><time>2026-07-15T04:00:05.000Z</time></trkpt>
        <trkpt lat="29.383464" lon="104.618266"><ele>345.925</ele><time>2026-07-15T04:00:06.000Z</time></trkpt>
        <trkpt lat="29.383502" lon="104.618195"><ele>345.8522</ele><time>2026-07-15T04:00:07.000Z</time></trkpt>
        <trkpt lat="29.383541" lon="104.618123"><ele>345.6085</ele><time>2026-07-15T04:00:08.000Z</time></trkpt>
        <trkpt lat="29.38358" lon="104.618051"><ele>345.2253</ele><time>2026-07-15T04:00:09.000Z</time></trkpt>
        <trkpt lat="29.383619" lon="104.617979"><ele>344.80353</ele><time>2026-07-15T04:00:10.000Z</time></trkpt>
        <trkpt lat="29.383658" lon="104.617906"><ele>344.30127</ele><time>2026-07-15T04:00:11.000Z</time></trkpt>
        <trkpt lat="29.383698" lon="104.617833"><ele>344.07178</ele><time>2026-07-15T04:00:12.000Z</time></trkpt>
        <trkpt lat="29.383738" lon="104.61776"><ele>343.94855</ele><time>2026-07-15T04:00:13.000Z</time></trkpt>
        <trkpt lat="29.383777" lon="104.617686"><ele>343.6777</ele><time>2026-07-15T04:00:14.000Z</time></trkpt>
        <trkpt lat="29.383817" lon="104.617612"><ele>343.84366</ele><time>2026-07-15T04:00:15.000Z</time></trkpt>
        <trkpt lat="29.383857" lon="104.617539"><ele>344.026</ele><time>2026-07-15T04:00:16.000Z</time></trkpt>
        <trkpt lat="29.383896" lon="104.617465"><ele>344.19925</ele><time>2026-07-15T04:00:17.000Z</time></trkpt>
        <trkpt lat="29.383936" lon="104.617391"><ele>344.57184</ele><time>2026-07-15T04:00:18.000Z</time></trkpt>
        <trkpt lat="29.383974" lon="104.617319"><ele>345.3395</ele><time>2026-07-15T04:00:19.000Z</time></trkpt>
        <trkpt lat="29.384012" lon="104.617248"><ele>345.69727</ele><time>2026-07-15T04:00:20.000Z</time></trkpt>
        <trkpt lat="29.38405" lon="104.617174"><ele>345.54617</ele><time>2026-07-15T04:00:21.000Z</time></trkpt>
        <trkpt lat="29.384088" lon="104.617102"><ele>345.68204</ele><time>2026-07-15T04:00:22.000Z</time></trkpt>
        <trkpt lat="29.384125" lon="104.617031"><ele>345.83694</ele><time>2026-07-15T04:00:23.000Z</time></trkpt>
        <trkpt lat="29.384162" lon="104.616959"><ele>345.51965</ele><time>2026-07-15T04:00:24.000Z</time></trkpt>
        <trkpt lat="29.384198" lon="104.616891"><ele>345.55988</ele><time>2026-07-15T04:00:25.000Z</time></trkpt>
        <trkpt lat="29.384234" lon="104.616824"><ele>345.56244</ele><time>2026-07-15T04:00:26.000Z</time></trkpt>
        <trkpt lat="29.384269" lon="104.616759"><ele>345.42557</ele><time>2026-07-15T04:00:27.000Z</time></trkpt>
        <trkpt lat="29.384302" lon="104.616696"><ele>345.2288</ele><time>2026-07-15T04:00:28.000Z</time></trkpt>
        <trkpt lat="29.384335" lon="104.616637"><ele>345.2445</ele><time>2026-07-15T04:00:29.000Z</time></trkpt>
        <trkpt lat="29.384366" lon="104.61658"><ele>345.22772</ele><time>2026-07-15T04:00:30.000Z</time></trkpt>
        <trkpt lat="29.384397" lon="104.616526"><ele>345.07108</ele><time>2026-07-15T04:00:31.000Z</time></trkpt>
        <trkpt lat="29.384425" lon="104.616473"><ele>345.24405</ele><time>2026-07-15T04:00:32.000Z</time></trkpt>
        <trkpt lat="29.384453" lon="104.616421"><ele>345.51917</ele><time>2026-07-15T04:00:33.000Z</time></trkpt>
        <trkpt lat="29.38448" lon="104.616372"><ele>345.61633</ele><time>2026-07-15T04:00:34.000Z</time></trkpt>
        <trkpt lat="29.384505" lon="104.616324"><ele>345.72662</ele><time>2026-07-15T04:00:35.000Z</time></trkpt>
        <trkpt lat="29.38453" lon="104.616277"><ele>345.89093</ele><time>2026-07-15T04:00:36.000Z</time></trkpt>
        <trkpt lat="29.384553" lon="104.616232"><ele>345.98712</ele><time>2026-07-15T04:00:37.000Z</time></trkpt>
        <trkpt lat="29.384574" lon="104.616188"><ele>346.33737</ele><time>2026-07-15T04:00:38.000Z</time></trkpt>
        <trkpt lat="29.384594" lon="104.616145"><ele>346.53278</ele><time>2026-07-15T04:00:39.000Z</time></trkpt>
        <trkpt lat="29.384613" lon="104.616105"><ele>346.755</ele><time>2026-07-15T04:00:40.000Z</time></trkpt>
        <trkpt lat="29.384632" lon="104.616068"><ele>346.90997</ele><time>2026-07-15T04:00:41.000Z</time></trkpt>
        <trkpt lat="29.384656" lon="104.616056"><ele>347.04282</ele><time>2026-07-15T04:00:42.000Z</time></trkpt>
        <trkpt lat="29.384685" lon="104.616064"><ele>346.96744</ele><time>2026-07-15T04:00:43.000Z</time></trkpt>
        <trkpt lat="29.384782" lon="104.616104"><ele>346.5604</ele><time>2026-07-15T04:00:45.000Z</time></trkpt>
        <trkpt lat="29.384832" lon="104.616136"><ele>346.14984</ele><time>2026-07-15T04:00:46.000Z</time></trkpt>
        <trkpt lat="29.384885" lon="104.616175"><ele>345.71884</ele><time>2026-07-15T04:00:47.000Z</time></trkpt>
        <trkpt lat="29.384937" lon="104.61622"><ele>344.8945</ele><time>2026-07-15T04:00:48.000Z</time></trkpt>
        <trkpt lat="29.384991" lon="104.616268"><ele>343.94452</ele><time>2026-07-15T04:00:49.000Z</time></trkpt>
        <trkpt lat="29.385045" lon="104.616319"><ele>343.18567</ele><time>2026-07-15T04:00:50.000Z</time></trkpt>
        <trkpt lat="29.3851" lon="104.616371"><ele>342.33286</ele><time>2026-07-15T04:00:51.000Z</time></trkpt>
        <trkpt lat="29.385156" lon="104.616425"><ele>341.33545</ele><time>2026-07-15T04:00:52.000Z</time></trkpt>
        <trkpt lat="29.385212" lon="104.616478"><ele>340.53802</ele><time>2026-07-15T04:00:53.000Z</time></trkpt>
        <trkpt lat="29.385269" lon="104.616532"><ele>339.6143</ele><time>2026-07-15T04:00:54.000Z</time></trkpt>
        <trkpt lat="29.385327" lon="104.616586"><ele>338.66916</ele><time>2026-07-15T04:00:55.000Z</time></trkpt>
        <trkpt lat="29.385386" lon="104.616639"><ele>337.90323</ele><time>2026-07-15T04:00:56.000Z</time></trkpt>
        <trkpt lat="29.385446" lon="104.616691"><ele>336.95767</ele><time>2026-07-15T04:00:57.000Z</time></trkpt>
        <trkpt lat="29.385502" lon="104.616741"><ele>336.34705</ele><time>2026-07-15T04:00:58.000Z</time></trkpt>
        <trkpt lat="29.385554" lon="104.616788"><ele>335.75693</ele><time>2026-07-15T04:00:59.000Z</time></trkpt>
        <trkpt lat="29.3856" lon="104.616829"><ele>335.3323</ele><time>2026-07-15T04:01:00.000Z</time></trkpt>
        <trkpt lat="29.385637" lon="104.616863"><ele>335.23248</ele><time>2026-07-15T04:01:01.000Z</time></trkpt>
        <trkpt lat="29.385662" lon="104.616887"><ele>335.3662</ele><time>2026-07-15T04:01:02.000Z</time></trkpt>
        <trkpt lat="29.385669" lon="104.616908"><ele>335.45123</ele><time>2026-07-15T04:01:03.000Z</time></trkpt>
        <trkpt lat="29.385664" lon="104.616903"><ele>335.0293</ele><time>2026-07-15T04:01:10.000Z</time></trkpt>
        <trkpt lat="29.385606" lon="104.616848"><ele>334.85815</ele><time>2026-07-15T04:01:18.000Z</time></trkpt>
        <trkpt lat="29.385606" lon="104.616848"><ele>334.85815</ele><time>2026-07-15T04:01:19.000Z</time></trkpt>
        <trkpt lat="29.385606" lon="104.616848"><ele>334.85815</ele><time>2026-07-15T04:01:20.000Z</time></trkpt>
        <trkpt lat="29.385625" lon="104.616854"><ele>334.69824</ele><time>2026-07-15T04:01:46.000Z</time></trkpt>
        <trkpt lat="29.385628" lon="104.616855"><ele>334.8354</ele><time>2026-07-15T04:02:06.000Z</time></trkpt>
        <trkpt lat="29.385628" lon="104.616855"><ele>335.06534</ele><time>2026-07-15T04:02:07.000Z</time></trkpt>
        <trkpt lat="29.385641" lon="104.616872"><ele>334.1255</ele><time>2026-07-15T04:02:30.000Z</time></trkpt>
        <trkpt lat="29.385641" lon="104.616872"><ele>334.12726</ele><time>2026-07-15T04:02:31.000Z</time></trkpt>
        <trkpt lat="29.385641" lon="104.616872"><ele>334.15167</ele><time>2026-07-15T04:02:32.000Z</time></trkpt>
        <trkpt lat="29.385655" lon="104.616882"><ele>334.12262</ele><time>2026-07-15T04:02:33.000Z</time></trkpt>
        <trkpt lat="29.385722" lon="104.61693"><ele>335.74225</ele><time>2026-07-15T04:02:42.000Z</time></trkpt>
        <trkpt lat="29.385748" lon="104.61695"><ele>335.9607</ele><time>2026-07-15T04:02:43.000Z</time></trkpt>
        <trkpt lat="29.385905" lon="104.617067"><ele>336.4928</ele><time>2026-07-15T04:02:45.000Z</time></trkpt>
        <trkpt lat="29.385992" lon="104.61713"><ele>336.8153</ele><time>2026-07-15T04:02:46.000Z</time></trkpt>
        <trkpt lat="29.386066" lon="104.617184"><ele>337.22354</ele><time>2026-07-15T04:02:47.000Z</time></trkpt>
        <trkpt lat="29.386133" lon="104.617234"><ele>337.52167</ele><time>2026-07-15T04:02:48.000Z</time></trkpt>
        <trkpt lat="29.386197" lon="104.617283"><ele>337.804</ele><time>2026-07-15T04:02:49.000Z</time></trkpt>
        <trkpt lat="29.386259" lon="104.617331"><ele>337.95956</ele><time>2026-07-15T04:02:50.000Z</time></trkpt>
        <trkpt lat="29.386318" lon="104.617378"><ele>338.06546</ele><time>2026-07-15T04:02:51.000Z</time></trkpt>
        <trkpt lat="29.386375" lon="104.617423"><ele>338.2126</ele><time>2026-07-15T04:02:52.000Z</time></trkpt>
        <trkpt lat="29.386432" lon="104.617469"><ele>338.24347</ele><time>2026-07-15T04:02:53.000Z</time></trkpt>
        <trkpt lat="29.386489" lon="104.617513"><ele>338.21304</ele><time>2026-07-15T04:02:54.000Z</time></trkpt>
        <trkpt lat="29.386545" lon="104.617557"><ele>337.88995</ele><time>2026-07-15T04:02:55.000Z</time></trkpt>
        <trkpt lat="29.386598" lon="104.617598"><ele>337.62308</ele><time>2026-07-15T04:02:56.000Z</time></trkpt>
        <trkpt lat="29.386647" lon="104.617636"><ele>337.19452</ele><time>2026-07-15T04:02:57.000Z</time></trkpt>
        <trkpt lat="29.386687" lon="104.617669"><ele>336.85043</ele><time>2026-07-15T04:02:58.000Z</time></trkpt>
        <trkpt lat="29.386719" lon="104.617695"><ele>336.36816</ele><time>2026-07-15T04:02:59.000Z</time></trkpt>
        <trkpt lat="29.386742" lon="104.617715"><ele>336.02075</ele><time>2026-07-15T04:03:00.000Z</time></trkpt>
        <trkpt lat="29.38676" lon="104.617728"><ele>335.91855</ele><time>2026-07-15T04:03:01.000Z</time></trkpt>
        <trkpt lat="29.386639" lon="104.617642"><ele>336.29114</ele><time>2026-07-15T04:03:15.000Z</time></trkpt>
        <trkpt lat="29.386617" lon="104.617626"><ele>336.8433</ele><time>2026-07-15T04:03:16.000Z</time></trkpt>
        <trkpt lat="29.386589" lon="104.617604"><ele>337.10135</ele><time>2026-07-15T04:03:17.000Z</time></trkpt>
        <trkpt lat="29.386559" lon="104.617581"><ele>337.56805</ele><time>2026-07-15T04:03:18.000Z</time></trkpt>
        <trkpt lat="29.386526" lon="104.617555"><ele>338.1957</ele><time>2026-07-15T04:03:19.000Z</time></trkpt>
        <trkpt lat="29.386451" lon="104.617497"><ele>339.1575</ele><time>2026-07-15T04:03:21.000Z</time></trkpt>
        <trkpt lat="29.386411" lon="104.617465"><ele>339.72415</ele><time>2026-07-15T04:03:22.000Z</time></trkpt>
        <trkpt lat="29.386368" lon="104.617431"><ele>340.15137</ele><time>2026-07-15T04:03:23.000Z</time></trkpt>
        <trkpt lat="29.386323" lon="104.617396"><ele>340.62982</ele><time>2026-07-15T04:03:24.000Z</time></trkpt>
        <trkpt lat="29.386277" lon="104.61736"><ele>340.82156</ele><time>2026-07-15T04:03:25.000Z</time></trkpt>
        <trkpt lat="29.386234" lon="104.61732"><ele>341.03165</ele><time>2026-07-15T04:03:26.000Z</time></trkpt>
        <trkpt lat="29.386186" lon="104.617273"><ele>341.35455</ele><time>2026-07-15T04:03:27.000Z</time></trkpt>
        <trkpt lat="29.386136" lon="104.617222"><ele>341.2295</ele><time>2026-07-15T04:03:28.000Z</time></trkpt>
        <trkpt lat="29.386084" lon="104.61717"><ele>341.2993</ele><time>2026-07-15T04:03:29.000Z</time></trkpt>
        <trkpt lat="29.386031" lon="104.617118"><ele>341.45322</ele><time>2026-07-15T04:03:30.000Z</time></trkpt>
        <trkpt lat="29.385978" lon="104.617068"><ele>341.20343</ele><time>2026-07-15T04:03:31.000Z</time></trkpt>
        <trkpt lat="29.385925" lon="104.617018"><ele>340.90094</ele><time>2026-07-15T04:03:32.000Z</time></trkpt>
        <trkpt lat="29.385871" lon="104.61697"><ele>340.4797</ele><time>2026-07-15T04:03:33.000Z</time></trkpt>
        <trkpt lat="29.385817" lon="104.616923"><ele>339.7896</ele><time>2026-07-15T04:03:34.000Z</time></trkpt>
        <trkpt lat="29.385762" lon="104.616876"><ele>339.84625</ele><time>2026-07-15T04:03:35.000Z</time></trkpt>
        <trkpt lat="29.385707" lon="104.61683"><ele>339.09396</ele><time>2026-07-15T04:03:36.000Z</time></trkpt>
        <trkpt lat="29.385652" lon="104.616784"><ele>338.6493</ele><time>2026-07-15T04:03:37.000Z</time></trkpt>
        <trkpt lat="29.385595" lon="104.616739"><ele>338.3642</ele><time>2026-07-15T04:03:38.000Z</time></trkpt>
        <trkpt lat="29.385538" lon="104.616693"><ele>337.6187</ele><time>2026-07-15T04:03:39.000Z</time></trkpt>
        <trkpt lat="29.385479" lon="104.616647"><ele>337.31644</ele><time>2026-07-15T04:03:40.000Z</time></trkpt>
        <trkpt lat="29.38542" lon="104.616601"><ele>337.43768</ele><time>2026-07-15T04:03:41.000Z</time></trkpt>
        <trkpt lat="29.385361" lon="104.616556"><ele>337.36148</ele><time>2026-07-15T04:03:42.000Z</time></trkpt>
        <trkpt lat="29.385302" lon="104.61651"><ele>337.37616</ele><time>2026-07-15T04:03:43.000Z</time></trkpt>
        <trkpt lat="29.385243" lon="104.616465"><ele>337.63126</ele><time>2026-07-15T04:03:44.000Z</time></trkpt>
        <trkpt lat="29.385185" lon="104.616421"><ele>337.98358</ele><time>2026-07-15T04:03:45.000Z</time></trkpt>
        <trkpt lat="29.385128" lon="104.616377"><ele>338.4051</ele><time>2026-07-15T04:03:46.000Z</time></trkpt>
        <trkpt lat="29.385071" lon="104.616334"><ele>338.8746</ele><time>2026-07-15T04:03:47.000Z</time></trkpt>
        <trkpt lat="29.385016" lon="104.616292"><ele>339.44662</ele><time>2026-07-15T04:03:48.000Z</time></trkpt>
        <trkpt lat="29.384963" lon="104.616251"><ele>340.19824</ele><time>2026-07-15T04:03:49.000Z</time></trkpt>
        <trkpt lat="29.384911" lon="104.616211"><ele>341.10693</ele><time>2026-07-15T04:03:50.000Z</time></trkpt>
        <trkpt lat="29.384859" lon="104.616172"><ele>341.86487</ele><time>2026-07-15T04:03:51.000Z</time></trkpt>
        <trkpt lat="29.384807" lon="104.616132"><ele>342.73047</ele><time>2026-07-15T04:03:52.000Z</time></trkpt>
        <trkpt lat="29.384756" lon="104.616093"><ele>343.79474</ele><time>2026-07-15T04:03:53.000Z</time></trkpt>
        <trkpt lat="29.384706" lon="104.616055"><ele>344.78662</ele><time>2026-07-15T04:03:54.000Z</time></trkpt>
        <trkpt lat="29.384658" lon="104.616016"><ele>345.7771</ele><time>2026-07-15T04:03:55.000Z</time></trkpt>
        <trkpt lat="29.384629" lon="104.61597"><ele>346.66644</ele><time>2026-07-15T04:03:56.000Z</time></trkpt>
        <trkpt lat="29.384612" lon="104.615912"><ele>347.93</ele><time>2026-07-15T04:03:57.000Z</time></trkpt>
        <trkpt lat="29.384609" lon="104.615848"><ele>348.73514</ele><time>2026-07-15T04:03:58.000Z</time></trkpt>
        <trkpt lat="29.384618" lon="104.61578"><ele>349.67767</ele><time>2026-07-15T04:03:59.000Z</time></trkpt>
        <trkpt lat="29.384638" lon="104.615707"><ele>350.4828</ele><time>2026-07-15T04:04:00.000Z</time></trkpt>
        <trkpt lat="29.384667" lon="104.61563"><ele>351.0532</ele><time>2026-07-15T04:04:01.000Z</time></trkpt>
        <trkpt lat="29.384704" lon="104.615549"><ele>351.72504</ele><time>2026-07-15T04:04:02.000Z</time></trkpt>
        <trkpt lat="29.384747" lon="104.615464"><ele>352.38348</ele><time>2026-07-15T04:04:03.000Z</time></trkpt>
        <trkpt lat="29.384797" lon="104.615376"><ele>352.85947</ele><time>2026-07-15T04:04:04.000Z</time></trkpt>
        <trkpt lat="29.384851" lon="104.615286"><ele>352.9432</ele><time>2026-07-15T04:04:05.000Z</time></trkpt>
        <trkpt lat="29.384909" lon="104.615194"><ele>353.10098</ele><time>2026-07-15T04:04:06.000Z</time></trkpt>
        <trkpt lat="29.384968" lon="104.615101"><ele>353.19858</ele><time>2026-07-15T04:04:07.000Z</time></trkpt>
        <trkpt lat="29.38503" lon="104.615007"><ele>352.99097</ele><time>2026-07-15T04:04:08.000Z</time></trkpt>
        <trkpt lat="29.385091" lon="104.614913"><ele>353.0531</ele><time>2026-07-15T04:04:09.000Z</time></trkpt>
        <trkpt lat="29.385153" lon="104.614819"><ele>352.88763</ele><time>2026-07-15T04:04:10.000Z</time></trkpt>
        <trkpt lat="29.385213" lon="104.614726"><ele>352.8452</ele><time>2026-07-15T04:04:11.000Z</time></trkpt>
        <trkpt lat="29.385272" lon="104.614637"><ele>352.55957</ele><time>2026-07-15T04:04:12.000Z</time></trkpt>
        <trkpt lat="29.385329" lon="104.61455"><ele>352.31558</ele><time>2026-07-15T04:04:13.000Z</time></trkpt>
        <trkpt lat="29.385382" lon="104.614467"><ele>352.06265</ele><time>2026-07-15T04:04:14.000Z</time></trkpt>
        <trkpt lat="29.385433" lon="104.614388"><ele>351.91193</ele><time>2026-07-15T04:04:15.000Z</time></trkpt>
        <trkpt lat="29.385481" lon="104.614312"><ele>351.60403</ele><time>2026-07-15T04:04:16.000Z</time></trkpt>
        <trkpt lat="29.385527" lon="104.61424"><ele>351.37326</ele><time>2026-07-15T04:04:17.000Z</time></trkpt>
        <trkpt lat="29.38557" lon="104.61417"><ele>350.78665</ele><time>2026-07-15T04:04:18.000Z</time></trkpt>
        <trkpt lat="29.385612" lon="104.614104"><ele>350.20255</ele><time>2026-07-15T04:04:19.000Z</time></trkpt>
        <trkpt lat="29.385652" lon="104.614039"><ele>349.57544</ele><time>2026-07-15T04:04:20.000Z</time></trkpt>
        <trkpt lat="29.38569" lon="104.613976"><ele>348.83804</ele><time>2026-07-15T04:04:21.000Z</time></trkpt>
        <trkpt lat="29.385727" lon="104.613915"><ele>348.19672</ele><time>2026-07-15T04:04:22.000Z</time></trkpt>
        <trkpt lat="29.385763" lon="104.613856"><ele>347.52896</ele><time>2026-07-15T04:04:23.000Z</time></trkpt>
        <trkpt lat="29.385799" lon="104.613798"><ele>346.9454</ele><time>2026-07-15T04:04:24.000Z</time></trkpt>
        <trkpt lat="29.385834" lon="104.613741"><ele>346.24323</ele><time>2026-07-15T04:04:25.000Z</time></trkpt>
        <trkpt lat="29.385868" lon="104.613684"><ele>345.7378</ele><time>2026-07-15T04:04:26.000Z</time></trkpt>
        <trkpt lat="29.385902" lon="104.613627"><ele>345.34296</ele><time>2026-07-15T04:04:27.000Z</time></trkpt>
        <trkpt lat="29.385936" lon="104.613571"><ele>344.66052</ele><time>2026-07-15T04:04:28.000Z</time></trkpt>
        <trkpt lat="29.385969" lon="104.613515"><ele>344.10843</ele><time>2026-07-15T04:04:29.000Z</time></trkpt>
        <trkpt lat="29.386002" lon="104.613459"><ele>343.44174</ele><time>2026-07-15T04:04:30.000Z</time></trkpt>
        <trkpt lat="29.386035" lon="104.613404"><ele>342.9542</ele><time>2026-07-15T04:04:31.000Z</time></trkpt>
        <trkpt lat="29.386068" lon="104.613348"><ele>342.263</ele><time>2026-07-15T04:04:32.000Z</time></trkpt>
        <trkpt lat="29.386099" lon="104.613293"><ele>341.7399</ele><time>2026-07-15T04:04:33.000Z</time></trkpt>
        <trkpt lat="29.38613" lon="104.613239"><ele>341.2857</ele><time>2026-07-15T04:04:34.000Z</time></trkpt>
        <trkpt lat="29.386159" lon="104.613187"><ele>340.5062</ele><time>2026-07-15T04:04:35.000Z</time></trkpt>
        <trkpt lat="29.386188" lon="104.613136"><ele>339.8922</ele><time>2026-07-15T04:04:36.000Z</time></trkpt>
        <trkpt lat="29.386215" lon="104.61309"><ele>339.3018</ele><time>2026-07-15T04:04:37.000Z</time></trkpt>
        <trkpt lat="29.386239" lon="104.613047"><ele>338.62973</ele><time>2026-07-15T04:04:38.000Z</time></trkpt>
        <trkpt lat="29.386259" lon="104.613011"><ele>337.91675</ele><time>2026-07-15T04:04:39.000Z</time></trkpt>
        <trkpt lat="29.386276" lon="104.612981"><ele>337.1827</ele><time>2026-07-15T04:04:40.000Z</time></trkpt>
        <trkpt lat="29.386292" lon="104.612966"><ele>336.78708</ele><time>2026-07-15T04:04:41.000Z</time></trkpt>
        <trkpt lat="29.386118" lon="104.613161"><ele>335.8719</ele><time>2026-07-15T04:04:49.000Z</time></trkpt>
        <trkpt lat="29.386079" lon="104.613218"><ele>336.08884</ele><time>2026-07-15T04:04:50.000Z</time></trkpt>
        <trkpt lat="29.386032" lon="104.613294"><ele>336.69305</ele><time>2026-07-15T04:04:51.000Z</time></trkpt>
        <trkpt lat="29.385981" lon="104.61338"><ele>337.12225</ele><time>2026-07-15T04:04:52.000Z</time></trkpt>
        <trkpt lat="29.385928" lon="104.613475"><ele>337.7495</ele><time>2026-07-15T04:04:53.000Z</time></trkpt>
        <trkpt lat="29.385871" lon="104.613577"><ele>338.724</ele><time>2026-07-15T04:04:54.000Z</time></trkpt>
        <trkpt lat="29.385812" lon="104.613686"><ele>339.20303</ele><time>2026-07-15T04:04:55.000Z</time></trkpt>
        <trkpt lat="29.385751" lon="104.6138"><ele>339.87964</ele><time>2026-07-15T04:04:56.000Z</time></trkpt>
        <trkpt lat="29.385687" lon="104.613918"><ele>340.4029</ele><time>2026-07-15T04:04:57.000Z</time></trkpt>
        <trkpt lat="29.385621" lon="104.614041"><ele>340.9617</ele><time>2026-07-15T04:04:58.000Z</time></trkpt>
        <trkpt lat="29.385554" lon="104.614167"><ele>341.72906</ele><time>2026-07-15T04:04:59.000Z</time></trkpt>
        <trkpt lat="29.385485" lon="104.614297"><ele>341.8598</ele><time>2026-07-15T04:05:00.000Z</time></trkpt>
        <trkpt lat="29.385415" lon="104.614428"><ele>342.14154</ele><time>2026-07-15T04:05:01.000Z</time></trkpt>
        <trkpt lat="29.385345" lon="104.61456"><ele>342.22736</ele><time>2026-07-15T04:05:02.000Z</time></trkpt>
        <trkpt lat="29.385275" lon="104.614693"><ele>342.6766</ele><time>2026-07-15T04:05:03.000Z</time></trkpt>
        <trkpt lat="29.385206" lon="104.614826"><ele>343.0167</ele><time>2026-07-15T04:05:04.000Z</time></trkpt>
        <trkpt lat="29.385136" lon="104.614958"><ele>343.00824</ele><time>2026-07-15T04:05:05.000Z</time></trkpt>
        <trkpt lat="29.385068" lon="104.615089"><ele>343.1546</ele><time>2026-07-15T04:05:06.000Z</time></trkpt>
        <trkpt lat="29.385" lon="104.615217"><ele>343.1153</ele><time>2026-07-15T04:05:07.000Z</time></trkpt>
        <trkpt lat="29.384936" lon="104.615339"><ele>343.02353</ele><time>2026-07-15T04:05:08.000Z</time></trkpt>
        <trkpt lat="29.384877" lon="104.615452"><ele>343.083</ele><time>2026-07-15T04:05:09.000Z</time></trkpt>
        <trkpt lat="29.384824" lon="104.615554"><ele>342.96725</ele><time>2026-07-15T04:05:10.000Z</time></trkpt>
        <trkpt lat="29.384777" lon="104.615646"><ele>342.85568</ele><time>2026-07-15T04:05:11.000Z</time></trkpt>
        <trkpt lat="29.384736" lon="104.615727"><ele>342.88666</ele><time>2026-07-15T04:05:12.000Z</time></trkpt>
        <trkpt lat="29.3847" lon="104.615797"><ele>343.00775</ele><time>2026-07-15T04:05:13.000Z</time></trkpt>
        <trkpt lat="29.384671" lon="104.615855"><ele>342.814</ele><time>2026-07-15T04:05:14.000Z</time></trkpt>
        <trkpt lat="29.384648" lon="104.615901"><ele>342.87405</ele><time>2026-07-15T04:05:15.000Z</time></trkpt>
        <trkpt lat="29.384631" lon="104.615933"><ele>342.886</ele><time>2026-07-15T04:05:16.000Z</time></trkpt>
        <trkpt lat="29.384636" lon="104.615941"><ele>343.10382</ele><time>2026-07-15T04:05:17.000Z</time></trkpt>
        <trkpt lat="29.384732" lon="104.61609"><ele>346.44406</ele><time>2026-07-15T04:05:35.000Z</time></trkpt>
      </trkseg>
  </trk>
</gpx>